GFSSE_con_sbcape_000.txt.gz
CAPE
110 208 979 1122 961 822 1024 1068 966 1039 1292 1623 1965 2187 2597 2615 2729 2947 2882 2604 2570 2720 2301 2155 2168 2320 2252 2153 2162 1948 2028 1933 1750 1674 1640 1536 1310 1354 1235 1164 1188 1102 1343
96 305 1065 1315 1168 978 948 915 990 1070 1607 2154 2162 2761 2581 2586 2385 2669 2711 2562 2490 2426 2234 2078 2321 2308 1978 1698 1764 1805 1621 1807 1671 1763 1861 1680 1513 1256 1404 1033 1243 784 1025
118 376 588 1832 1142 993 1143 1263 1053 1155 1859 2293 2573 2824 2626 2465 2624 2387 2359 2442 2447 2238 2191 2317 2333 2319 2233 1979 1722 1376 1513 1599 1523 1499 1985 1678 1626 1508 1203 1062 1138 1243 1296
315 338 879 1638 1681 1295 1440 1621 1422 1420 1971 2671 2729 3058 2916 2760 2657 2499 2428 2303 2197 2232 2191 2154 2055 1913 1975 1978 1977 1760 1530 1295 1493 1504 1586 1480 1366 1609 1266 829 1233 1124 1128
687 776 1059 1714 1741 1773 1965 2001 2414 2501 2642 2563 3007 2839 2871 3023 2647 2325 2212 2211 2251 2118 1933 1844 1834 1878 1815 1920 1949 1941 1794 1603 1416 1097 1274 1199 1300 1664 1496 938 1057 727 1045
1081 1131 1827 1905 1847 1977 2085 2180 2246 2678 2862 3057 3197 2845 2883 2397 2044 2019 1920 2039 2063 1931 1826 1725 1714 1762 1880 1845 2023 2029 1706 1663 1195 1054 1002 1157 1523 1748 1435 539 1204 392 512
1337 1653 1742 2363 2529 2092 2078 2162 2718 2923 2660 3123 3196 2707 2585 2333 2158 2141 2210 2211 2059 1923 1876 1835 1841 1805 1838 1925 2175 2157 1897 1790 1219 1095 1036 1055 1476 1631 1503 1099 1167 882 935
1861 1916 2016 2380 2168 2430 2673 2851 3096 3097 3083 3160 2666 2470 2407 2352 2239 2196 2116 1914 1759 1669 1742 1698 1809 1928 2082 2280 2473 2069 1972 1896 1568 1309 1226 1207 1383 1808 1860 1498 1014 1317 1074
1914 2118 2295 2380 2386 2659 3167 3069 3083 2738 2587 2522 2413 2562 2295 2207 2388 2257 2081 1951 1840 1788 1823 1946 1941 2241 2249 2396 2374 2082 2001 1951 1804 1528 1330 1063 1456 1877 1398 1522 1123 994 1158
2016 2183 2246 2299 2239 2348 2896 2451 2281 2431 2250 2325 2429 2391 2351 2254 2105 1863 2087 2372 2143 2135 2322 2148 2002 2111 2106 2197 2043 1917 1593 1542 1564 1355 1553 1097 1279 1683 1597 1145 1496 1163 916
1675 1892 2007 2051 2106 2499 2681 2193 2216 2101 2224 2025 1960 2349 2604 1772 1624 1836 1632 1845 1710 1774 1906 2263 1907 1827 2004 1755 1519 1477 1533 1781 1497 1497 1478 1306 1608 1449 1869 1219 1525 1240 1137
1331 1689 1942 2049 2190 2414 2723 2486 2007 1769 1849 1906 1891 1968 1752 1317 1096 389 1442 1637 1421 1098 2042 2053 1804 2020 1497 1037 765 803 581 868 1412 1462 1201 1390 1578 1340 1761 1294 1417 1060 1413
1375 1761 1858 1981 2021 2257 2605 2277 1921 1865 1555 1707 1766 1687 1481 762 662 1013 548 615 677 1459 1268 1316 1099 917 864 767 773 712 708 798 758 696 1100 1493 1778 1621 1663 1678 764 1110 1253
1425 1710 1822 1816 1964 1966 1841 2033 1610 1713 1614 1476 1366 1387 1136 547 441 419 584 722 888 902 742 609 614 672 635 557 500 569 673 736 820 775 603 1542 1980 1764 1872 1557 1886 1053 798
1376 1573 1646 1735 1878 2003 1732 1751 1591 1478 1530 1428 1327 1203 963 689 286 192 679 816 782 678 572 617 573 469 336 412 425 449 443 505 642 677 516 881 2158 2117 1780 1835 1593 1891 1186
1422 1485 1564 1708 1815 1818 1675 1609 1454 1250 1353 1239 1164 1152 1099 483 481 418 614 541 520 520 386 544 487 307 100 67 146 170 249 254 338 381 472 650 1175 2298 2449 2113 1995 1830 1886
1448 1509 1596 1713 1913 1673 1615 1046 977 1237 1110 1088 1086 917 830 825 458 475 379 321 325 150 220 222 147 0 15 27 55 41 24 72 174 216 449 709 854 1259 1864 2639 2560 2115 1844
1348 1332 1432 1908 1848 1457 1397 1004 944 860 927 886 939 812 720 898 725 379 301 151 162 160 124 172 26 27 41 16 15 35 58 81 116 158 309 466 790 1078 1527 1767 2539 2344 1937
1134 1182 1290 1737 1872 1576 964 1117 1100 1013 730 603 583 434 442 538 658 519 176 153 158 170 145 67 15 5 47 45 69 211 143 186 210 249 281 312 347 624 769 1092 1851 2038 1769
915 1158 1366 1606 1665 1175 1206 984 716 755 653 558 627 356 481 525 549 511 236 209 223 158 72 16 12 0 9 13 116 191 88 51 112 163 187 298 380 458 585 965 1815 1654 1777
570 965 1264 1412 1486 1274 1244 1196 986 990 760 605 538 524 465 310 530 448 398 207 110 140 102 38 23 47 65 0 59 99 20 0 10 0 42 162 0 2 465 1077 1437 1735 1556
336 885 1095 1354 1362 1441 1256 956 1010 879 663 676 540 511 596 589 467 303 242 152 146 113 15 0 16 32 69 76 91 2 9 7 0 3 16 12 0 0 0 102 417 482 728
190 589 907 1024 1322 1490 1149 709 827 864 1078 1008 892 976 949 435 389 346 211 139 20 0 1 0 0 0 58 60 36 46 1 1 0 0 4 0 0 0 0 0 6 42 284
166 359 708 776 1014 1116 1006 995 1222 1259 1352 1072 527 635 649 286 193 43 0 0 0 0 0 0 0 14 11 37 22 56 0 13 21 2 0 0 0 0 0 0 0 1 67
169 301 454 528 573 939 1083 1197 1148 1109 1010 25 0 78 137 0 0 0 0 0 0 0 0 0 0 0 0 14 10 1 0 0 1 0 0 0 0 0 0 0 0 0 0
150 309 477 538 634 906 1059 1102 1128 1127 570 0 0 38 0 0 0 0 0 0 0 0 0 0 0 0 0 17 15 4 0 0 0 0 0 0 0 0 0 0 0 0 0

GFSSE_con_sbcape_003.txt.gz
CAPE
156 332 652 603 644 817 673 808 1341 1668 1784 2276 2448 2693 2561 2472 2382 2592 2749 2508 2638 2491 2283 2288 2413 2234 2196 2253 2158 2202 2068 1887 1872 1620 1784 1609 1655 1408 1361 1058 1301 813 1424
268 372 814 1042 750 1073 970 628 1266 1410 2069 2209 2531 2658 2141 1919 2234 2438 2449 2420 2616 2376 2098 2385 2348 2123 1915 1765 1775 1909 1552 1785 1623 1993 1902 1666 1612 1356 1270 1234 791 887 1149
277 424 687 1410 1079 1105 1007 871 1310 1493 2010 2571 2568 2480 2051 1683 2094 2215 2467 2614 2525 2337 2369 2361 2258 2248 2124 2107 1992 1721 1661 1487 1561 1759 2081 985 1128 1107 1247 1357 1354 1308 1283
243 491 512 1210 1325 1138 1221 1149 1406 1934 1897 2293 2728 2478 2110 2145 2179 2239 2468 2399 2400 2388 2349 2187 2020 1937 1975 1982 2062 1807 1762 1552 1429 1369 1075 1084 896 1430 1293 1365 1221 1412 1263
462 659 953 1275 1244 1360 1203 1512 1666 2416 2092 2145 2413 2331 2183 2243 2426 2543 2423 2354 2403 2284 2099 1984 1876 1844 1867 1948 2121 1955 1809 1758 1489 1115 1463 1620 1252 1709 1515 1065 948 1199 937
642 757 1227 1471 1645 1586 1670 1574 1906 2506 2250 2564 2678 2520 2411 2599 2227 2183 2129 2236 2290 2172 2058 1940 1927 1956 2008 2031 2152 2062 2000 1832 1543 1344 1291 1761 1417 1893 1577 820 933 835 1245
823 957 1475 2026 1672 1783 1900 2000 2590 2763 2267 2716 2671 2410 2388 2180 2134 2194 2373 2458 2323 2126 1979 1930 1887 1951 2023 2178 2262 2229 1952 1781 1362 1636 1532 1621 1719 1929 1348 907 806 641 897
833 1296 1455 1882 1888 1977 2055 2120 2352 2876 2678 2872 2623 2466 2396 2299 2346 2383 2359 2194 2042 1895 1881 1928 2098 2271 2362 2388 2504 1887 2002 2128 1412 1585 1673 1628 1612 1939 1668 1482 1321 1146 1277
1261 1346 1881 1912 2241 2267 2725 2635 2790 3036 2866 2588 2553 2496 2466 2475 2444 2501 2380 2224 2069 2048 2182 2220 2188 2182 2237 2234 2245 1737 1877 1861 1780 1711 1548 1705 1573 2037 2154 1720 1251 1378 1141
1369 1550 1907 2047 2040 2270 2052 2828 2218 2684 2455 2298 2312 2469 2533 2339 2397 2241 1977 2272 2275 2297 2060 2382 2197 1956 1952 2135 2103 1929 1868 1791 1809 2063 1646 1651 1282 1905 1817 1920 1396 1254 1190
1613 1789 1913 2000 2303 2417 2135 2134 2410 2237 2210 2254 2269 2188 2026 1888 1920 2013 1876 1967 1956 1794 1812 2325 2041 2107 2038 1680 1601 1631 1340 1548 1825 1977 1954 1496 1570 1545 1821 1482 1472 1654 1070
1243 1642 2026 2145 2101 1997 1952 1887 2140 1763 1438 1600 1919 1941 1913 2096 2130 1899 1503 1804 1831 1518 1953 2020 2016 1738 1435 1486 1430 1271 1336 1558 1539 1691 1580 1642 1694 1508 1722 1687 1404 1344 1392
1173 1338 1732 2066 2142 2031 2517 2435 2519 2229 2136 1965 2182 2111 2283 1893 1626 1531 1620 1300 798 1660 1651 1467 1515 1478 1604 1375 1097 1101 1213 1328 1499 1543 1428 1195 1572 1634 1429 1880 1491 1518 1270
1066 1396 1538 1911 2298 2329 3023 2084 2825 2059 2198 1672 1852 2380 2346 1818 1580 1749 1517 1707 2233 1710 1729 1621 1419 1530 1200 924 856 853 950 965 929 1294 1522 1420 1842 2078 1660 1536 1777 1365 1247
1128 1581 1859 2118 2336 2409 2297 1875 1800 2467 1598 1546 1988 1950 1812 1697 1965 1918 1646 1882 1929 1692 1506 1450 1427 1339 1086 761 786 754 674 787 915 913 1237 1240 1448 1832 1971 2046 1779 1660 1305
1280 1503 1916 2312 2509 2579 2383 2553 2439 2499 2385 2015 2019 1730 1997 1918 2038 2650 1824 2084 1530 1527 1217 1305 1271 1044 827 805 527 584 528 454 675 827 714 1209 1108 1495 1957 2176 2203 1888 1636
1680 1429 1549 1913 2295 2589 2611 2799 2429 2267 2116 1595 1626 1921 2185 2267 2306 2268 2307 2182 1578 1258 1207 1117 1099 788 633 479 513 438 583 530 446 888 768 912 1184 1333 1712 1985 2760 2677 1909
1869 1762 1530 1370 1695 2129 2227 2732 2117 2169 2069 1898 1950 2207 1887 2095 2277 2465 2546 2185 1350 1241 961 1062 969 806 773 580 541 607 538 418 699 809 784 821 713 933 1283 1814 1810 2505 2622
2136 2148 2037 2183 2208 2574 2675 2715 2445 2505 2558 2372 2337 2270 2232 2050 1917 2262 2435 1958 1378 1256 1419 1043 820 955 780 628 569 448 295 346 527 430 797 912 940 1003 829 979 1755 1602 1785
2071 2268 2357 2251 2561 2866 2870 2892 2888 2835 2984 2294 2254 2167 2121 2023 1611 1814 1767 1527 1362 1397 1105 959 1049 947 878 794 478 319 305 259 249 375 499 293 56 660 1198 1591 1615 1616 1703
2086 2192 2318 2384 2643 2727 2309 2186 2312 1772 2416 2254 2277 2219 1898 2070 1758 2016 1917 1659 1484 1184 1062 1063 952 903 463 590 535 93 150 204 100 84 107 3 0 0 91 622 1220 1363 1384
1967 2097 2320 2541 2778 2780 2595 2735 2371 2376 2317 2153 2269 2329 2092 1919 1998 1974 1722 1373 1139 757 998 860 902 535 496 594 371 199 0 140 110 21 0 0 0 0 0 33 187 521 864
1665 1967 2187 2764 3112 2881 2840 2705 2587 2474 2514 2400 2363 2335 2193 2135 2026 1756 1453 1098 1033 600 164 538 425 637 287 542 573 251 5 7 0 4 11 0 0 0 0 0 14 91 35
1404 1617 2174 2568 3050 2935 3027 2580 2694 2304 2131 2225 2594 2452 2374 2272 1661 1473 1351 720 762 311 468 319 291 599 700 223 329 398 266 208 3 0 0 0 0 0 0 0 0 0 0
1215 1344 1687 2519 2873 3357 3116 3161 2726 2627 2427 2558 2342 2041 2478 2104 1525 1004 643 547 576 435 464 187 612 471 398 172 127 217 115 42 54 0 0 0 0 0 0 0 0 0 0
988 1161 1459 2433 2975 2739 2782 2959 2931 2971 2858 2605 2186 1360 1378 1604 885 497 302 498 754 619 322 128 325 289 294 328 349 208 25 1 0 1 2 1 0 0 0 0 0 0 0

GFSSE_con_sbcape_006.txt.gz
CAPE
307 354 503 659 852 987 987 1006 1734 1809 2443 2597 2669 2719 2463 2690 2459 2534 2569 2662 2357 2391 2344 2289 2110 1940 1939 2000 2011 2031 1918 2031 1599 1923 1741 1815 1481 1458 1067 1139 1236 480 1336
475 391 644 965 749 845 982 1066 1553 2172 2245 2295 2663 2255 2180 2115 2354 2393 2528 2534 2242 2133 2294 2311 2202 2144 2077 1951 1754 1843 1533 1730 1469 1820 1708 1186 1478 1419 1126 897 1113 901 1189
544 656 673 930 860 745 760 1233 1586 2083 1793 2445 2142 1636 1596 2035 2271 2479 2552 2390 2318 2316 2310 2046 1863 1895 1892 1875 1819 1716 1660 1380 1169 1521 1457 453 657 1012 1303 1201 1233 994 1258
353 456 409 1227 1089 832 756 1260 1392 1448 1453 1965 1757 1580 1762 2026 2156 2448 2335 2267 2318 2197 2039 1965 1909 1873 1810 1911 1889 1683 1746 1490 1210 906 1277 410 528 1408 1341 1294 1546 1406 1241
484 362 790 1128 1027 935 972 1403 1868 1922 1974 2112 1774 1782 1848 2027 2461 2499 2266 2246 2205 2073 1923 1780 1682 1787 1906 2031 2116 2036 1747 1411 1303 1337 1340 958 866 1483 1039 1220 1417 1080 1001
700 677 590 749 1005 1022 1331 1593 1780 1963 2026 2094 1904 1880 2084 2421 2283 2129 2097 2214 2081 1955 1907 1869 1859 1853 1857 2055 2320 1983 1842 1653 1489 1484 1231 1090 964 1637 1161 1199 872 1186 1246
809 971 683 1542 1440 1264 1469 1749 2097 1772 2062 2220 2295 2154 2357 2119 2114 2111 2319 2305 1988 1826 1882 1811 1919 2025 2121 2219 2392 1807 1875 1590 1621 1580 1546 1569 1491 1486 940 1436 531 869 1291
1011 967 1342 1697 1869 1875 1958 2179 2421 2129 2248 2406 2313 2285 2272 2188 2259 2270 2259 1991 1911 1816 1839 1972 2078 2018 1975 2060 2180 1640 1801 1795 1703 1760 1698 1364 1643 1881 1463 1502 912 929 1238
1089 1269 1458 1492 1981 2221 2222 2325 2349 2218 2085 1971 2187 2286 2204 2222 2196 2169 1911 1736 1931 2095 2186 2026 1995 1763 1844 1843 1772 1725 1674 1546 2010 1780 1610 1741 1674 1813 2125 1713 1549 1498 1298
1308 1499 1720 1877 1962 1898 2011 2330 2302 2031 1581 1781 2148 2166 2288 2278 2159 2013 1891 1959 2004 1782 1850 2107 1857 1850 1938 1878 1799 1827 1660 2033 1447 1342 2026 1666 1582 1868 1948 1912 1335 1273 1189
1316 1453 1629 1767 2007 2082 1417 1572 1797 1780 1890 1943 2146 2106 1764 1402 1648 1567 1610 1690 1948 1753 1757 1894 1842 2007 1756 1727 1672 1699 1778 1439 1507 1387 1746 1686 1461 1631 1987 1988 1573 1601 1332
1404 1476 1297 1678 1779 1774 1391 1803 1872 1378 1137 1102 1137 1372 1258 1467 1698 1243 1567 1596 1730 1601 1746 1800 1677 1733 1878 1207 1217 1546 1017 1213 1533 1538 1631 1724 1576 1628 1692 1904 1385 1949 1253
1442 1489 1661 1496 1862 1856 1735 1666 1628 1471 1338 1428 1830 1740 1352 1456 1373 1659 1636 1547 1306 1354 1740 1661 1638 1421 1536 1322 984 960 1057 1010 768 1184 1714 1341 1386 1604 1624 1901 1677 1839 1350
1283 1302 1436 1615 1785 1780 3127 1740 1547 1325 1334 1220 1305 1824 1898 1678 1615 1914 1666 1762 1845 1477 1611 1586 1348 1574 1473 1192 1125 989 707 723 597 614 1350 1599 1496 1860 1766 1771 1946 1854 1413
1233 1333 1377 1638 2130 2133 2314 1545 1469 1358 1273 1084 1186 1591 1469 1248 1939 1852 1756 1796 1657 1591 1399 1398 1457 1507 1446 1116 983 531 197 170 448 458 631 1600 1277 1530 2059 1896 1753 1866 1505
1098 1224 1401 1584 1981 2117 2108 1964 1649 1512 1308 1284 1139 1145 1653 1395 1886 1478 1535 1368 1476 1667 1320 1365 1585 1601 1391 999 432 299 144 70 169 482 308 721 1327 1231 1678 2128 2078 2077 1826
1193 1196 1469 1735 1907 2388 2422 2296 2068 1581 1457 1340 1256 1677 1876 2092 2071 1819 1537 1430 1414 1596 1938 1687 1573 1427 993 582 288 90 214 208 242 367 420 223 770 1645 1578 1802 2444 2607 2330
1331 1466 1542 1446 1683 2210 2208 2113 1880 1570 1536 1510 1332 1647 2133 2059 1912 1900 1588 1399 1255 1374 1484 1460 1413 1025 547 303 102 134 189 172 259 309 372 479 158 180 1660 1837 1654 2182 2611
1593 1788 1806 1656 1538 1887 2225 2103 2033 1931 3076 2415 1985 1983 1722 2001 1715 1910 1590 1460 1618 1355 1630 1422 1042 672 260 64 29 15 123 145 150 108 459 720 862 616 292 1924 1307 1365 1529
1692 2008 2096 1845 1967 2379 3197 3071 2424 2216 1881 1697 1751 2600 2352 2344 1843 1857 1620 1530 1586 1596 1259 1030 941 402 349 60 9 10 111 87 111 194 272 117 141 519 841 1489 1194 1466 1498
1819 2213 2472 2415 2587 3167 2479 1687 1728 1514 1662 1721 1740 2283 2176 2038 1945 2011 1554 1673 1680 1515 976 609 298 143 10 67 12 20 69 122 64 52 39 0 0 4 232 964 1192 1336 1674
1873 2291 2614 2740 2788 3076 2124 2281 1830 1827 1556 1887 1924 2160 2193 2205 2306 1934 1929 1728 1531 371 577 216 158 22 16 44 63 18 14 76 66 31 0 0 0 0 0 56 445 963 1043
1741 2340 2648 2950 3077 3192 2743 2298 2442 2310 2605 2056 2194 2421 2609 2533 2436 2352 2136 1196 988 160 2 159 162 33 15 229 264 33 11 12 6 38 29 0 0 0 0 0 3 7 0
1606 2034 2674 3053 3327 3241 3333 2960 3234 2219 1651 1266 1698 1361 2005 2482 2299 2176 1775 1094 183 0 59 157 32 85 203 23 28 24 117 178 21 17 36 13 0 0 0 0 0 0 0
1481 1797 2317 3078 3616 3597 3319 3846 3013 2858 1663 1334 1427 1970 2351 2144 2242 1445 1695 531 176 88 308 170 87 164 44 23 16 31 48 16 8 6 8 18 20 20 1 0 0 0 0
1342 1604 1929 2864 3797 3653 3536 3502 3459 2957 2582 1473 1968 1608 1077 1068 1574 1646 1629 687 192 90 301 214 60 71 60 66 62 105 21 18 21 11 8 10 16 13 13 3 2 0 0

GFSSE_con_sbcape_009.txt.gz
CAPE
309 207 407 515 512 922 1148 1775 1853 2548 2761 2849 2881 2955 3063 3018 2981 2910 3057 2614 2354 2739 2215 2071 1973 1940 1833 1805 1815 1771 1777 1672 1898 1614 1652 1394 1468 1346 886 970 764 843 1506
270 154 525 692 815 863 1006 1791 2196 2168 2520 2787 2812 2859 2746 2692 2423 2911 2711 2135 2217 2177 2089 1990 1880 1840 1805 1739 1696 1563 1459 1380 1348 1597 1422 1263 1294 1138 1036 1027 946 969 1162
209 157 445 751 921 1161 1191 1931 2135 1848 1954 2106 2271 2333 2010 2249 2533 2418 2291 2296 2250 2208 1957 1873 1835 1812 1867 1782 1604 1613 1413 1200 881 761 1020 1329 786 1250 1027 1203 1113 1390 1355
184 180 383 1201 951 1082 1270 1321 1808 1408 1411 1660 1928 1757 1882 2034 2343 2179 2081 2137 2042 2015 1893 1745 1700 1821 1930 2050 1919 1631 1408 1151 1064 1121 1417 770 643 1336 1206 1502 1425 1361 1335
250 306 667 1150 1028 998 1463 1548 1966 1628 1601 1646 1684 1739 1791 2072 2324 2032 2026 2082 2021 1936 1766 1698 1819 1845 1900 2115 2100 1846 1522 1177 1130 1355 1526 883 1072 1207 1242 1397 1158 1221 904
320 596 914 973 970 1116 1543 1969 1886 1969 2145 1943 1682 1763 2077 2298 2041 1838 2094 1986 1866 1807 1777 1799 1798 1899 2026 2113 2012 1707 1625 1479 1442 1752 1492 362 1084 1368 1327 1047 1343 1351 1216
780 535 479 1340 1088 1304 1660 1953 2051 1936 2003 1923 1826 2015 2319 2001 1931 1997 2094 1777 1656 1702 1872 1873 1972 1977 1889 2048 2075 1660 1715 1612 1885 1835 1712 2042 962 1525 859 1170 1085 1213 1397
712 626 664 1370 1212 1417 1734 2037 1707 1974 2006 2287 2152 2208 2108 2069 2025 2088 1661 1646 1704 1784 1937 2058 1635 1641 1766 1771 1707 1588 1687 1771 1566 1702 2295 1779 1925 1584 1310 1172 544 1227 1468
917 994 1170 1230 1697 1965 2080 1915 1984 2014 2164 2209 2200 2155 2003 2041 1994 1785 1383 1359 1818 2008 1988 1964 1727 1667 1770 1749 1839 1806 1930 1923 2155 1621 1739 2165 2228 1786 1730 1646 1480 1308 1261
1189 1199 1230 1421 1474 1806 1969 2145 1886 1943 1754 1632 1962 1883 1871 2028 1914 1428 1248 1838 1773 1635 1763 1893 1677 1764 1759 1803 1732 1632 1753 1991 2256 1786 2069 1685 2213 1866 1954 1751 1757 1638 1416
1158 1262 1206 1263 1937 2035 2050 2174 2179 1880 1363 1612 1824 1893 1714 1572 1590 1857 1849 1498 1827 1732 1746 1743 1726 1781 1715 1862 1761 1844 2152 1751 1018 1433 1874 2022 1839 1907 2011 1978 1491 1298 1461
1098 1222 1238 1622 1383 1394 1023 1727 1391 921 850 984 1084 1255 1348 1695 1994 1107 1700 1732 1736 1736 1679 1754 1791 1962 2086 1930 1728 2274 1124 1030 1212 1327 1725 2384 1838 1902 1908 2148 1652 1769 1428
862 1160 1392 1857 2384 1470 1923 1166 1375 1298 1200 1155 1432 1634 1290 1453 1890 1395 1625 1880 2129 1889 1754 1947 1853 1842 1274 1192 1085 1055 906 801 525 764 1742 2002 1445 1656 1866 2244 1665 2068 1649
1071 1130 1157 1910 2163 2051 1889 1152 1236 1093 985 1020 1280 1809 1938 1733 1746 1414 2087 1943 2143 2146 1741 2343 1973 1298 1289 1295 1063 990 533 338 206 298 2073 2051 1661 1774 1881 1956 2196 2035 1660
1152 1251 1220 1346 1763 2265 2330 1227 1278 1247 864 879 1093 1574 1613 1341 2690 2086 2459 1524 1979 2025 1933 1765 1796 1509 1349 1610 1110 494 282 64 24 60 360 2145 1694 1625 2126 2004 2039 1933 1957
986 1044 1130 1514 1907 2029 2320 2208 1779 1543 1723 871 962 1233 1856 1681 2447 1685 2884 2086 1908 1718 2675 1997 2328 1555 1944 1382 885 284 118 124 147 214 178 1392 2090 1724 1731 2250 2201 1987 1939
1027 1079 1162 1309 1759 2066 2072 2543 1725 1268 988 1143 878 1345 1512 1833 1825 2220 2126 2011 1294 2251 2028 2087 1960 2073 1538 329 82 26 65 77 134 250 210 143 1479 2167 1856 1881 2802 2758 2614
1041 1216 1251 1099 1301 1780 2110 2403 1819 1449 1966 1536 1406 1730 1880 2085 2304 2352 1788 1734 2009 1698 2096 1918 1795 816 168 46 19 26 23 49 163 150 276 210 195 367 2228 2374 1692 2123 2204
1196 1375 1426 1448 1350 2056 3380 2325 2051 2533 1605 2131 2261 1487 2384 3182 2649 2130 1873 1955 1908 2117 1318 1563 1312 1462 45 10 8 4 28 72 59 118 100 294 476 521 349 2193 2262 1668 1542
1254 1497 1780 1603 2540 2896 2804 3966 1899 1596 1910 1838 1787 1406 1994 2084 2371 2155 1799 1788 2122 1698 1437 1353 994 202 78 57 3 0 45 113 54 74 112 30 32 241 659 801 1533 1429 1696
1283 1644 2497 2688 3818 2727 1884 2624 2011 1556 1838 1463 1251 3169 2586 2278 2681 1964 2073 2139 1799 2145 1729 441 167 115 16 82 0 61 48 69 58 45 19 0 0 1 92 519 857 1213 1704
1415 1985 3197 3447 4157 3580 2491 2811 2493 1768 1408 1069 1412 2504 2144 2821 2493 2448 2670 1567 1599 831 495 191 94 15 16 114 35 13 25 207 420 35 3 0 0 0 3 35 410 855 1172
1505 2277 3219 4163 4317 4152 3641 3483 3089 3014 2196 2296 1781 2301 2194 2408 2183 2470 2213 2187 1462 503 0 266 134 29 7 61 205 23 21 59 139 119 37 2 0 0 0 0 0 0 0
1585 1900 3328 4159 4419 4279 4192 3078 3543 2153 1554 847 1099 1027 1884 2719 2164 2247 2300 1169 924 55 542 129 27 88 96 20 30 9 32 44 5 29 98 30 0 2 0 0 0 0 0
1354 1641 2768 4273 4552 4515 4302 3799 2562 2637 1340 1206 774 2379 2257 3333 1595 1393 1269 963 348 0 189 320 39 168 205 6 5 15 368 7 6 0 6 31 44 45 22 1 0 0 0
1215 1526 2534 4302 4700 4650 4583 3883 4090 4059 2792 1404 1442 1486 1620 1409 1611 1425 955 1003 358 34 235 247 168 101 68 159 73 110 23 12 25 24 13 21 25 30 48 30 21 18 4

GFSSE_con_sbcape_012.txt.gz
CAPE
172 173 388 367 436 842 1583 2123 2480 2636 2956 2954 3133 3233 3216 3260 3286 3073 2935 3057 3056 2896 2761 2745 2609 2074 1768 1756 1657 1556 1571 1741 1533 1492 1237 1291 1143 695 886 656 575 983 1591
165 240 562 1116 703 1093 2026 2350 2598 2727 2866 2911 3056 3068 3024 3109 3175 2970 2871 2876 2868 2713 2583 2541 2333 1843 1741 1588 1501 1352 1189 979 1396 1334 1215 1104 760 1023 1055 1095 1233 1037 1185
151 157 413 1211 1306 1328 1912 2331 2517 2563 2657 2754 2852 2866 2965 3073 2961 2829 2717 2433 2513 2380 2162 1934 1961 1906 1945 1642 1435 1338 1088 972 849 598 1052 1006 780 1123 1145 1201 1482 1424 1263
85 97 279 1611 1674 1812 2199 2225 2174 2268 2237 2538 2555 2607 2857 2986 2799 2425 1984 1916 1888 1937 1743 1694 1801 1820 1944 1884 1600 1297 1106 991 1012 1081 1143 738 178 1235 1274 1455 1469 1185 1375
169 359 647 1709 1856 1912 2005 2283 2250 2218 2124 2386 2437 2428 2727 2782 2460 1933 1938 1852 1731 1674 1666 1702 1781 1780 1808 1933 1506 1523 1284 1034 1390 1609 1325 907 237 1084 1274 1415 1109 1230 1643
472 353 1146 1798 1613 1992 2231 2150 2150 2413 2276 2277 2193 2365 2595 2318 1754 1984 1861 1581 1507 1537 1638 1824 1771 1796 1753 1851 1656 1517 1480 1328 1355 1713 1311 1648 492 1362 1433 1567 1361 1034 1283
544 397 712 1882 1971 2093 2380 2477 2179 2249 1994 2214 2188 2244 2006 1802 1675 1998 1599 1407 1465 1646 1828 1921 1514 1604 1487 1631 1642 1487 1477 1472 1609 1512 1392 963 1113 1966 1186 1443 1137 1193 1288
419 241 564 1610 2024 2243 2307 2367 2492 2076 1955 2098 1956 2062 1833 1705 1759 1708 1348 1395 1525 1753 1962 1821 1471 1529 1513 1380 1495 1604 1632 1593 864 526 1095 880 1693 1724 1290 686 1099 1320 1326
391 636 901 975 1512 1889 2640 2257 2104 2008 2184 2026 1963 1974 1758 1714 1675 1584 1339 1285 1605 1679 1712 1762 1404 1480 1516 1470 1677 1679 2198 2661 1306 634 1167 1330 2199 1805 1601 732 637 1486 938
894 863 1341 1501 1301 1701 1726 2102 1913 1924 1795 1823 1849 1733 1542 1699 1737 1779 1619 1813 1527 1407 1568 1619 1440 1455 1410 1625 1748 1795 2279 2351 732 16 740 1318 2165 1989 1701 1591 1602 1271 1107
990 987 1113 1228 2073 2305 1970 1639 2003 1799 1413 1524 1581 1756 2170 1592 1759 2011 1906 1765 1656 1578 1447 1552 1710 1776 1890 2035 2628 3000 2821 1837 1084 125 981 1544 1917 2088 1747 1588 1696 1558 1417
736 1100 995 1579 1902 1920 1197 2273 2311 1502 864 1198 1419 1990 1644 1076 1769 1816 1786 1595 1971 1765 252 1135 2163 1747 1842 1994 2170 2620 1407 1063 1440 1189 860 272 2116 2095 2004 1902 1999 1641 1614
969 987 1404 1701 2135 1667 2231 1972 1624 1282 1290 1469 2781 1875 2198 1353 2844 755 1028 1385 1456 948 141 1036 2061 1534 1699 1402 1135 1048 750 706 888 1504 1206 1916 2487 2060 1970 2224 1968 1845 1442
1310 1580 1626 1686 2457 2503 1644 1222 1590 1469 1556 1479 2006 3056 3092 2816 2179 1052 719 1342 503 754 1114 1922 1595 1844 1707 1409 497 364 619 189 66 927 1722 2231 2184 1883 2052 2212 1928 1971 1834
1209 1534 1716 2157 2979 3501 2976 2142 1269 2199 1157 1017 2340 2614 2079 2883 2494 891 2632 2794 1974 1009 2174 2634 1990 2510 2370 1572 1266 984 214 242 243 180 1705 2196 2269 1983 2282 2166 2067 2050 2075
803 1568 2108 2353 3158 3159 3116 3476 3701 1846 1839 1870 1016 2463 3092 3021 3257 3031 3016 2333 1871 2012 2781 2332 2649 2522 2640 1874 1602 500 141 297 360 411 444 2011 2557 2357 2771 2340 2504 2314 2031
1266 1580 1979 2147 2146 2751 3584 3397 3385 2294 1415 1171 1887 2427 2983 3300 3352 3331 2849 2857 2332 2192 2382 2123 1628 2491 887 1362 1015 292 309 289 581 227 355 603 1946 2662 2660 3004 2575 2411 2526
1066 1813 2033 1093 2017 2052 2852 3477 2369 1768 1806 1552 2709 1251 2964 3386 3043 3457 2817 1139 2226 1620 2175 1812 1945 1845 499 605 402 535 154 268 230 391 365 147 1032 1336 2382 2616 2584 2383 2260
1605 2276 2164 2193 2253 2396 3140 2563 2810 2495 2282 1693 2174 2572 1797 1925 3353 2662 2769 1675 2534 2693 1926 2040 1749 1723 1119 556 55 199 263 343 305 56 257 274 393 1072 1421 1976 2349 2339 2088
1538 2225 2214 2266 3416 2915 2903 2799 2846 1945 1869 1862 3626 1397 2281 2920 2968 2680 2722 2816 2871 2732 1120 2082 989 757 629 394 83 15 386 406 192 561 87 77 45 380 1294 1195 1663 1621 1964
1558 2302 2371 2519 3530 3639 3353 2316 2423 2645 2271 2184 2365 3042 2876 3110 3232 3021 3013 2431 2316 2053 563 962 1057 598 807 536 367 198 472 374 443 347 0 0 1 19 273 419 1045 1344 1472
1612 1984 2710 2785 3784 3468 3258 2963 2420 2373 2426 1765 2342 2971 3328 3216 3685 2642 2717 2936 2207 2093 1783 1108 625 663 517 912 261 334 121 269 173 9 10 0 0 2 18 200 646 508 1280
1548 2269 2792 3190 3456 3271 3333 2869 3070 2732 3246 2748 2724 3277 3083 3397 2827 1899 2737 2535 2539 1312 1300 1307 966 671 339 960 370 400 348 135 357 225 110 0 0 0 0 60 0 0 0
1530 2250 2864 3264 3418 3641 3190 2980 2793 2161 2430 2292 2223 2291 2943 3128 3084 3279 3073 2881 2248 1263 1846 1239 847 386 1004 463 597 225 233 103 157 218 282 70 47 0 5 0 11 0 0
1591 2130 2650 3537 3631 3475 3455 3024 2944 2776 2057 2330 2030 3380 3040 3229 2962 2743 3084 2585 1758 777 1837 927 858 583 824 701 307 677 732 532 246 26 59 85 87 71 68 3 0 0 3
1517 2170 2228 3724 3822 3719 3953 3252 3668 2594 2308 2335 2335 2919 2773 2789 2570 2874 2266 2137 1686 911 1487 1082 938 725 496 862 608 785 555 294 71 236 128 55 51 101 94 54 79 44 5

GFSSE_con_sbcape_015.txt.gz
CAPE
109 99 414 480 729 985 1782 2715 2783 2889 3031 3137 3188 3319 3162 3023 2906 3126 3134 2937 2789 2794 2268 1887 1725 1643 1697 1658 1578 1537 1752 1524 1494 1217 1232 918 691 976 949 923 1517 1261 1017
18 141 531 631 928 1659 1991 2717 2766 2852 3065 3147 3111 3208 3097 2796 2552 3041 3057 2679 2715 2659 1991 1912 1833 1705 1575 1515 1405 1354 1269 1470 1446 1337 1116 777 855 1091 1176 972 1382 835 694
109 212 552 1374 1732 1725 2190 2447 2611 2713 3004 3025 3093 3098 3144 2627 2624 2880 2471 2376 2581 2447 1815 1811 1863 1948 1742 1478 1354 1118 1136 997 932 1152 1114 757 907 1277 1560 1366 1456 1072 1122
68 136 601 1618 1917 2166 2434 2609 2569 2345 2257 2782 2893 3121 3019 2650 2769 2467 2019 1987 1961 2223 1722 1786 1761 1823 1918 1693 1496 1226 1131 1053 1003 1035 995 865 730 1068 1493 1611 1496 982 823
31 171 747 1913 2082 2248 2191 2489 2483 2435 2221 2587 2700 3067 2965 2818 2375 1987 1936 1823 1739 2106 1830 1767 1801 1790 1841 1735 1483 1495 1464 1472 1399 1374 794 269 546 1218 1495 1282 1339 1352 1553
136 539 1628 1994 1814 2115 2366 2415 2234 2301 2260 2501 2588 2920 2817 2608 1992 1910 1685 1594 1543 1656 1834 1969 1770 1668 1709 1847 1540 1506 1596 1564 1472 1244 577 711 592 1176 1184 1019 1465 1423 1317
262 703 1273 2225 2506 2476 2366 2365 2509 2101 1984 2481 2671 2772 2712 2529 2028 1786 1539 1402 1477 1628 1820 1752 1451 1661 1507 1626 1635 1513 1545 1516 365 798 908 538 1221 2115 1702 1430 1230 1320 1425
310 575 957 1970 2405 2729 2259 2129 2726 2360 2079 2558 2697 2586 2507 2513 2528 2058 1614 1379 1521 1707 1764 1667 1527 1581 1620 1550 1557 1726 1735 703 0 15 422 767 1880 1798 1428 1166 1265 1357 1356
177 346 875 1104 1591 2164 2814 2324 2367 2507 2477 2505 2718 2563 2305 2023 1922 1630 1423 1417 1550 1527 1657 1695 1454 1595 1713 1996 2246 2074 1620 414 0 177 0 301 1530 1785 640 1175 1330 1265 1413
272 544 623 916 1233 1778 1779 2141 1957 2162 2146 2101 2375 2084 2012 1649 1626 1627 1692 1712 1441 1372 1527 1648 2040 1845 1831 2386 2296 1983 1806 1176 320 0 0 0 1581 1985 993 870 1371 1159 1138
562 588 701 911 1101 1249 1311 1604 2025 1894 1949 2085 1966 2235 2009 1372 1214 1412 721 1686 1601 1633 1633 1144 2591 2378 2471 2910 2552 2043 1736 60 8 7 14 416 2101 1869 1712 1650 1458 1324 1223
649 790 845 940 1121 1143 1344 1389 1440 1360 1000 1056 1259 1182 1307 685 666 1628 1103 1409 1530 1554 859 438 1662 2897 2085 1435 1660 1820 1042 458 222 6 776 1732 2139 1998 1908 1567 1703 1522 1442
557 744 901 1204 1346 1016 960 1147 1334 1077 570 483 739 1030 881 1153 1016 613 264 772 574 68 10 775 1012 1618 1226 665 275 155 93 670 912 839 382 1022 2148 2387 2093 1746 1790 1370 1657
497 895 857 1133 1096 1101 1173 1063 1221 882 495 556 976 1199 1548 863 416 294 502 852 548 126 151 868 580 704 1197 548 364 268 3 0 883 795 939 1508 2291 2470 2378 2276 1937 1749 1408
778 848 843 1120 1171 1251 931 578 664 745 730 735 1016 1438 895 1081 525 350 451 681 366 23 619 881 818 1141 1073 903 670 357 1 1 1 878 1060 2526 2327 2546 2775 2276 2079 2052 1873
904 950 932 1208 1479 1685 1524 1455 1091 1167 766 826 1371 1308 1054 1283 1446 964 1322 1022 1147 767 1311 1498 913 871 1210 793 1042 805 7 26 15 105 1065 1405 2050 2123 2326 2656 2312 2118 2153
929 960 1158 1246 1747 1521 1836 1420 1664 629 166 94 691 1623 1435 1520 1582 1479 1230 1343 919 1459 1531 593 1015 765 286 342 167 100 4 10 7 0 28 1054 1413 1916 2771 2573 2398 2346 2531
778 1079 1347 1300 1561 1458 1641 1854 1472 810 789 836 1402 1503 1586 1610 1555 1730 1527 664 870 648 1157 1057 1138 760 483 121 0 1 0 11 17 13 36 718 1097 1158 1711 2082 2185 2136 2057
748 1248 1300 1148 1071 1311 1396 1863 1357 1098 1681 933 1325 1306 1766 1707 1718 1237 1638 1114 715 1112 787 615 309 447 23 0 0 0 1 3 30 38 42 19 102 740 1165 1631 1860 1827 1499
998 1148 1001 1178 967 808 1767 1231 1272 1342 1366 1400 1195 812 1428 1453 1932 1449 1068 1116 1265 1076 653 313 347 58 0 0 0 0 0 0 0 20 15 0 16 1069 873 743 860 1029 1583
1208 1062 1034 1300 1297 1041 1599 1367 1373 1556 1548 770 961 1056 1502 1386 1503 1496 1529 1289 1652 1033 279 479 113 0 0 0 0 6 7 31 5 0 0 0 0 1 326 518 798 919 992
1069 976 883 932 2210 1586 1502 1320 1330 1360 1529 1094 897 1640 1343 1481 1774 1284 1272 1276 1405 823 210 0 0 0 0 18 0 0 20 23 33 0 0 0 0 0 22 0 15 536 598
803 1160 1129 913 2271 2020 1858 1339 1369 1623 1726 1796 1321 2207 1932 1910 1826 1175 1479 1299 703 160 37 0 0 0 0 29 0 0 1 4 31 16 7 0 0 0 0 0 0 0 288
842 1306 1241 1402 2124 1823 1800 1507 1317 1092 1035 1190 1530 1508 2086 2148 1672 1245 1311 1362 577 188 102 6 5 0 38 0 0 0 0 0 6 28 37 0 5 0 0 0 0 0 72
774 1036 1722 1576 1723 1942 1969 1446 1390 1269 959 1264 1517 1391 1996 1976 1743 1714 1537 1194 129 4 189 87 15 10 45 56 8 15 3 0 2 0 10 31 42 15 6 0 1 0 0
880 1385 1825 1963 1911 2248 1652 1868 1675 1561 1451 1025 916 1829 1893 1520 1534 1934 1485 300 47 8 90 51 61 72 50 22 0 1 0 0 0 0 0 0 2 17 13 32 2 0 0

GFSSE_con_sbcape_018.txt.gz
CAPE
50 83 516 639 1004 2253 2632 2633 2984 3028 3095 3173 3092 2887 2622 2663 2626 2655 2667 2234 2123 2061 1906 1866 1850 1839 1729 1560 1728 1584 1484 1613 1270 1237 772 773 1057 1125 1370 1406 1521 732 686
50 79 811 832 1226 2461 2544 2597 2932 3073 3029 3104 3022 2711 2314 2269 2287 2294 2455 1997 2052 1947 1997 2002 1867 1735 1644 1569 1566 1434 1509 1464 1514 1226 806 665 989 1037 1239 1406 1087 372 617
53 125 566 1396 2024 2189 2415 2771 2849 2915 2666 3086 3176 2706 2218 2252 2323 2289 2085 2040 1981 1847 1824 1870 2115 1920 1682 1535 1463 1252 1107 1036 1227 1285 982 703 998 1047 1560 1309 710 1169 1190
141 243 795 1829 2090 2030 2451 2713 2788 2445 2339 3099 2999 2689 2318 2270 2252 2027 1957 1862 1795 1810 1871 1840 1809 1947 1921 1732 1639 1359 1208 1151 1002 1090 716 710 553 1415 1326 1333 1032 1001 1049
115 397 931 2059 2236 2159 2323 2539 2659 2553 2062 2605 2667 2159 2059 2083 1961 1856 1785 1722 1749 1808 1830 1830 1805 1824 1895 1731 1674 1471 1313 1859 1558 1602 851 363 647 1494 1360 1381 713 1189 1449
184 562 1469 2073 1558 1947 2191 2285 2064 2031 2043 2351 2789 2171 2024 2069 1877 1681 1593 1546 1688 1868 1896 1662 1684 1610 1764 1958 1689 1621 2047 1724 1097 718 229 1052 716 1340 1131 1426 1273 1288 1389
381 778 1070 1973 2211 2287 2120 2005 2067 1871 1768 2315 2725 2065 1915 1988 1786 1622 1447 1496 1680 1791 1867 1611 1451 1653 1551 1735 1457 1856 1590 1159 639 567 943 594 999 1945 1402 1617 1394 1289 666
611 951 1235 1938 2316 2259 2009 1807 2062 1734 1730 2150 2387 2217 2104 2052 1902 1492 1421 1500 1681 1859 1834 1628 1520 1666 1767 1523 1658 1680 675 790 550 507 522 268 1339 2079 1671 1470 1227 1434 629
695 883 1246 1444 1338 1686 2475 2008 1987 1843 1758 1968 2164 2097 2235 1940 1782 1340 1250 1447 1584 1636 1682 1732 1594 1770 1702 1553 1752 2088 1019 133 24 152 104 12 1875 1904 1413 1390 1374 1401 882
509 735 889 1116 1381 1901 1927 2184 2176 2073 1886 1954 2109 1950 1833 1748 1617 1575 1425 1530 1579 1342 1676 1833 1874 2262 1732 1814 1437 1891 993 435 136 0 23 254 1810 1107 1232 1414 1382 1488 1271
362 677 785 984 1224 1475 1421 1589 2113 2148 2045 2038 1982 1999 2113 1286 1118 1467 1119 1506 1544 1697 1097 469 1606 2539 2357 2217 2519 1661 2087 387 65 0 0 102 1649 1512 1029 1367 1519 1003 1491
384 432 721 947 1125 1166 1484 1225 1245 1315 1492 1525 1587 1300 1432 754 595 1578 1366 1220 1517 1443 715 1401 1900 2323 1645 789 952 1199 450 0 0 2 23 417 1613 1987 1570 1585 1399 1300 1425
436 578 629 805 948 996 1081 1021 963 946 722 664 792 669 746 739 987 914 485 711 424 37 0 363 859 742 1020 821 171 11 155 2 81 66 631 1589 2383 2064 2030 1662 1765 1508 1506
549 712 681 777 857 762 588 1054 969 838 463 198 238 466 509 518 579 484 161 625 546 39 96 493 532 536 817 488 137 98 58 449 315 507 375 1314 2111 2222 2055 1880 1824 1540 1725
607 710 797 881 896 696 628 617 612 728 401 192 200 697 776 591 286 173 345 637 620 91 161 607 769 975 848 787 968 401 9 72 651 545 392 1591 1740 2455 2385 2163 2017 1707 1569
555 683 823 912 840 745 796 431 388 503 376 307 465 863 674 519 280 158 229 674 459 232 8 800 772 458 527 221 278 454 336 8 264 467 550 1178 1955 2342 2736 2407 2145 2070 1997
573 705 738 905 806 848 700 407 373 442 651 550 643 1032 715 783 638 658 891 653 688 798 908 359 721 428 41 23 0 3 4 7 14 188 641 637 1198 2218 2370 2732 2655 2385 2035
619 632 725 1029 950 849 934 511 993 611 85 161 622 908 937 954 1197 800 1134 502 688 457 823 600 734 417 21 0 0 0 0 15 19 3 29 203 862 978 1725 2065 2131 2198 1918
726 689 625 746 926 760 1028 1145 852 356 632 667 876 899 892 1046 1207 1018 922 793 315 796 493 536 160 168 1 0 0 0 0 3 22 33 21 393 514 775 805 1426 1692 2005 1476
729 723 817 721 843 812 911 1131 754 529 790 530 690 879 1289 1333 1247 572 862 873 489 623 459 134 82 0 0 0 0 0 0 0 5 10 0 4 556 767 649 623 906 859 1608
599 800 936 783 759 780 994 882 651 619 756 699 802 501 1095 1136 1431 862 669 901 834 642 169 56 0 0 0 0 0 0 5 3 0 0 0 8 12 135 434 392 794 1004 1166
633 908 913 777 578 577 952 940 643 661 834 882 438 543 857 934 1141 943 882 763 842 99 0 0 0 0 0 0 0 0 0 13 1 0 0 6 4 23 59 165 320 456 229
732 775 740 890 735 538 753 783 769 850 1187 1096 708 823 1038 881 1139 1166 799 763 664 250 31 0 0 0 0 0 0 0 0 0 14 1 0 0 0 0 1 0 101 200 40
586 682 633 1092 1031 901 963 945 964 777 1115 941 892 1197 1418 1208 1217 909 823 687 0 49 0 0 0 0 0 0 0 0 0 0 0 0 0 0 0 0 0 0 0 30 34
515 591 559 692 1414 1350 1227 936 911 774 672 558 771 996 1353 1487 1233 920 805 689 12 0 0 0 0 0 3 0 0 0 0 0 0 0 0 0 0 0 0 0 0 0 42
341 684 624 499 1532 1576 1406 1116 865 698 586 463 659 855 1299 1537 1226 1016 992 558 0 0 14 0 0 0 5 16 0 0 0 0 0 0 0 0 0 0 0 0 0 0 0

GFSSE_con_sbcape_021.txt.gz
CAPE
70 92 348 934 1188 1957 2587 2632 2828 2956 2988 2930 2786 2647 2287 2051 2144 2239 2188 2045 1959 1939 1898 1896 1927 1707 1556 1680 1557 1665 1502 1281 1092 638 843 1165 1408 1512 1193 1368 875 638 1558
15 93 695 972 1737 2331 2456 2566 2677 2962 2719 2482 2502 2368 1934 2044 2210 2175 1992 2015 1987 2056 2019 1890 1860 1783 1694 1659 1476 1574 1424 1417 1168 696 615 1004 1102 1288 1418 1268 528 442 899
0 140 558 1254 1877 1990 2336 2600 2435 2482 2285 2406 2246 2100 2004 2111 2132 2062 2013 1937 1856 1806 1797 2161 2008 1833 1669 1560 1422 1296 1001 1082 1415 889 1151 851 655 1434 1458 677 834 1086 1263
77 200 649 1361 2203 1866 2233 2412 2579 2247 2268 2231 2137 2200 2156 2159 1985 1895 1830 1744 1786 1845 1820 1830 1905 2054 1753 1596 1472 1298 1222 1156 1328 1050 606 390 824 1562 1306 818 1201 1080 1180
162 412 730 1577 2218 1800 1986 2240 2448 2644 2117 2024 2031 2077 2117 1979 1822 1733 1675 1708 1774 1797 1864 1887 1841 1831 1735 1627 1131 1187 1384 1566 1626 1004 421 285 846 1326 1354 862 834 1295 1309
317 622 1123 1875 1652 1669 1791 1842 1918 2059 2197 2076 1995 2020 2065 1895 1748 1615 1576 1598 1778 1846 1885 1663 1753 1677 1802 1542 1417 1362 1713 954 1065 519 238 1013 838 1269 1420 875 1310 1422 1491
404 689 1108 2093 2109 1904 1690 1665 1613 1717 2121 2275 2007 1952 2060 1811 1681 1519 1397 1547 1668 1933 1927 1614 1616 1673 1527 1438 1678 1489 1819 1588 302 530 677 559 680 1452 1419 1489 1522 1310 1447
490 768 1200 1655 1777 1787 1684 1740 1646 1620 1920 2181 2054 1930 2017 1943 1629 1524 1462 1541 1760 1776 1827 1682 1626 1660 1404 1423 1867 1487 1246 1275 444 180 515 756 1312 1588 1442 1520 1221 609 1134
737 881 1007 986 1156 1597 1845 1685 1695 1596 1770 2089 1981 1975 1921 1997 1673 1452 1258 1489 1405 1598 1663 1755 1678 1549 1483 1514 1716 1521 1101 1463 231 334 221 438 2227 1833 1419 1200 1422 783 704
859 1010 1086 969 882 1237 1392 1678 1692 1643 1691 1912 1917 1916 1863 1749 1607 1616 1289 1490 1622 1417 1751 1845 1725 1692 1553 1462 1796 1993 1164 466 25 50 2 15 2280 1646 1296 1060 1342 1263 525
668 872 923 1039 1033 1463 1498 1606 1916 1873 1735 1836 1842 1862 2079 1324 1114 1427 1336 1370 1553 1697 1205 1018 1181 2090 1846 1564 2192 2277 1624 404 8 0 0 358 1913 1053 1118 1448 1270 1402 1105
459 748 893 910 1288 1288 1620 1376 1469 1452 1425 1589 1587 1409 1556 873 666 1375 1364 1603 1526 1807 366 1446 1986 1921 1356 523 181 1503 1162 311 13 0 0 232 1506 1289 1285 1417 1295 1279 1539
373 569 773 919 1146 1153 1323 912 1036 1005 1054 1094 1114 899 890 634 303 1277 494 536 395 30 0 93 508 555 819 526 8 4 193 2 5 0 10 854 1409 1919 1604 1576 1500 1333 1559
290 399 636 833 1003 907 673 895 871 795 572 414 401 395 305 495 445 670 144 263 370 83 0 340 392 658 731 438 61 0 57 1 65 39 251 1360 1956 2008 1781 1802 1955 1549 1492
326 399 495 704 819 815 432 851 670 610 515 153 74 228 368 309 295 279 135 148 343 124 38 182 374 694 765 654 396 108 3 235 317 225 206 1202 1907 2209 1746 1639 1976 1569 1551
421 540 531 565 589 604 392 302 438 477 330 119 70 189 520 354 186 103 131 253 379 277 1 136 688 424 434 75 105 93 134 0 223 351 251 479 1955 2216 2484 1600 1808 1804 1581
459 611 586 619 562 453 384 327 164 220 348 200 178 463 590 498 203 150 74 511 563 439 424 542 206 231 7 0 0 0 0 0 153 337 293 356 832 1842 2497 2501 2185 1937 1591
438 526 629 842 732 513 512 344 301 168 256 333 499 464 624 670 434 322 477 553 229 566 519 269 425 240 0 0 0 0 0 5 6 31 164 374 494 662 1130 2112 2255 2169 1614
376 522 560 759 725 609 547 433 363 608 279 109 139 409 651 714 763 583 742 286 252 323 386 381 104 57 0 0 0 0 0 0 9 7 10 305 424 687 527 1455 1381 1994 1420
372 462 487 670 721 676 574 639 321 256 319 161 461 528 591 766 1027 756 629 620 198 531 319 94 19 0 0 0 0 0 0 0 6 3 0 126 195 554 487 431 815 934 1502
386 440 431 604 674 597 617 752 413 478 352 432 420 535 744 858 1025 553 424 645 368 437 232 0 0 0 0 0 0 0 0 0 0 0 1 133 163 277 243 257 436 838 1112
373 508 470 458 431 522 561 820 689 316 231 399 514 345 733 1032 1088 670 414 664 612 469 56 0 0 0 0 0 0 0 0 0 0 0 0 22 63 103 164 316 414 491 365
273 516 563 536 438 464 466 576 306 367 620 495 285 354 369 752 865 917 516 570 561 110 0 0 0 0 0 0 0 0 0 0 0 0 0 2 4 8 2 29 147 95 0
306 442 564 603 502 375 371 518 665 608 593 614 582 536 504 630 767 786 677 546 383 283 6 0 0 0 0 0 0 0 0 0 0 0 0 0 0 0 0 0 10 92 36
263 497 633 602 537 384 289 470 524 344 271 448 657 790 832 794 753 765 614 469 24 34 9 0 0 0 0 0 0 0 0 0 0 0 0 0 0 0 0 0 0 0 82
249 479 624 596 603 473 385 443 457 457 281 348 491 715 693 1038 862 771 609 465 41 0 0 0 0 0 0 0 0 0 0 0 0 0 0 0 0 0 0 0 0 0 4

GFSSE_con_sbcape_027.txt.gz
CAPE
194 268 547 711 919 1249 1830 2358 2581 2846 2817 2668 2760 2480 2044 1874 1940 1918 1922 1915 1965 2005 2024 1661 1842 1714 1471 1644 1285 1270 1016 711 901 1021 1472 1420 1123 1094 1311 1587 1474 1253 1814
197 292 595 953 1264 1845 1967 2355 2407 2872 2728 2653 2365 1965 1973 1953 1897 1906 1924 2159 2119 1884 1794 1726 1697 1508 1441 1613 1617 1439 1269 710 653 1207 1247 1384 1290 1464 756 1099 1314 1656 1696
83 281 453 1308 1678 1863 2065 2516 2651 2515 2192 2263 2317 2177 1891 1863 1905 1876 1803 1692 1804 1931 1820 1775 1683 1639 1489 1382 1414 1194 1310 943 799 1227 978 859 1016 1181 463 590 1308 1541 1421
102 159 389 1542 2040 1891 2286 2696 2606 1996 1971 2055 2032 1973 1845 1861 1826 1725 1755 1945 2039 1955 1649 1631 1640 1518 1519 1376 1178 1123 1330 1168 995 1258 900 879 920 679 1145 946 1353 1229 1107
129 316 661 1838 2415 2266 2391 2487 2547 2330 1976 2031 2028 1955 1826 1721 1629 1660 1792 1915 2092 1981 1768 1806 1526 1437 1383 1224 1226 1120 1469 1567 1063 552 1143 1269 1040 846 1385 1350 1460 1475 1013
182 315 1275 2010 1787 2227 2363 2377 1971 1935 1957 1971 2050 1858 1741 1579 1588 1699 1778 2013 2103 1897 1656 1653 1657 1563 1314 1251 1050 1005 1099 1268 1147 498 1013 1238 1172 1011 996 1310 1247 1428 1255
167 515 1230 2139 2312 2342 2335 2252 1876 1780 1890 1995 1980 1897 1797 1588 1525 1550 1718 1889 1962 1805 1654 1652 1530 1494 1505 1649 1257 1618 1327 1231 1102 799 1045 1290 1324 1001 1488 1711 1507 1518 1538
248 599 1082 1925 2121 2167 2244 1996 1965 1847 1931 1982 2033 1947 1818 1699 1599 1579 1702 1891 1884 1750 1601 1637 1567 1364 1498 1785 1694 1567 1519 769 915 1043 956 1287 1251 1395 1601 1487 1489 1563 1534
374 658 855 1174 1540 1734 1821 1790 1890 1983 1978 1934 1913 1990 1971 1696 1533 1372 1592 1594 1679 1700 1581 1607 1555 1490 1452 1833 1698 1636 1648 681 795 1037 595 1165 1485 1423 1565 1099 1226 1536 1159
545 709 886 917 1069 1200 1416 1530 1601 1819 1936 1981 1908 1816 1839 1677 1578 1678 1267 1791 1576 1427 1384 1599 1462 1387 1412 1460 1930 1712 1726 1244 688 744 975 1085 1725 1632 1174 1412 514 1129 778
644 741 750 880 1359 1610 1447 1404 1493 1500 1739 1840 1759 1787 1643 1577 1708 1633 1665 1454 1720 1582 1505 1328 1615 1706 1461 1647 1746 1796 1579 1151 349 229 374 676 1637 1668 1253 1522 1044 1151 571
614 765 701 701 1043 1273 1047 1529 1650 1322 1022 1207 1332 1727 1710 1747 1733 1820 1876 1713 1851 725 566 1537 1653 1712 1360 855 364 1745 1493 1372 414 172 184 294 1428 1429 1206 1199 1587 646 932
323 467 672 795 1122 1060 897 1228 1477 1371 1417 1399 1768 1791 1633 1594 1496 1606 1776 1362 1576 593 422 1172 1340 1503 1324 524 224 259 1469 1466 638 299 122 339 1280 1195 1214 1530 1172 1327 1206
318 356 496 697 1086 1131 1115 1120 1320 1381 1363 1269 1227 1852 1621 1371 1621 1782 1822 1396 1556 1237 1078 1531 1525 1781 1519 1395 472 242 529 614 601 560 308 433 984 1077 1166 1442 1533 1265 1424
287 337 523 771 1108 1244 1373 1128 1285 1596 1297 1127 1341 1277 1130 911 1313 1566 1932 1497 1340 1493 1170 1373 2075 1655 1783 1192 864 648 403 638 733 788 755 896 1312 1486 1140 1402 1519 1715 1284
291 381 545 804 1030 1206 1256 1364 1369 1531 1259 1355 964 834 1138 1145 1546 1528 1734 1514 1406 1680 1586 1408 1946 1701 514 282 388 1041 927 424 763 992 866 665 976 1385 1364 1215 1332 1635 1332
405 544 713 880 1064 1410 1362 1296 1259 1185 994 882 741 954 835 1207 1754 1943 1658 1371 1526 1909 1972 1521 1551 1610 507 16 25 216 225 264 308 899 987 739 716 970 1300 1243 1180 1197 1639
486 638 756 662 888 1248 1351 1368 1117 872 792 653 595 632 817 1049 1711 1935 1860 1517 1647 1772 2047 1662 2009 1752 1076 22 45 66 133 237 344 762 842 928 935 582 817 1241 1193 1052 1103
686 672 715 773 769 1004 1231 1157 1052 728 741 558 607 693 879 1238 1645 1820 1835 1832 2008 1716 1718 1566 1448 1218 398 53 173 64 163 217 120 166 355 750 977 965 724 708 972 1239 1036
742 816 789 792 860 1059 1004 1024 789 613 389 421 512 619 1215 1496 1717 1967 1782 2069 1890 1520 1588 1436 1522 557 96 141 7 50 37 284 308 311 368 593 1195 1276 1040 1114 1046 884 884
732 905 1072 1147 1311 1066 929 787 622 477 432 730 1104 1300 1413 1656 1861 2150 1877 2135 1875 1654 1736 1685 1038 612 54 33 0 68 34 59 47 101 697 500 1068 1026 966 1141 1046 1005 1041
780 1029 1389 1454 1647 1471 1132 1178 720 766 513 1189 1649 1767 1705 1753 2013 2117 2140 2056 1910 1582 1815 1611 997 240 32 55 24 53 13 44 17 8 500 395 752 310 157 212 1234 1480 1081
861 1179 1525 1911 2078 1805 1724 1197 1042 1061 1248 1441 1636 1668 1690 1958 2121 2221 2222 2043 2031 1900 1716 1724 937 419 48 161 60 52 16 1 62 0 221 266 450 174 66 195 479 851 901
1097 1041 1616 1766 2097 1674 2058 1614 1813 1117 873 1117 1501 1642 1768 1932 2070 2164 2262 2025 2113 1846 1948 1705 819 414 111 95 40 4 66 232 0 0 0 130 118 85 47 34 153 290 511
751 795 1268 1882 2052 2095 2178 2041 1704 1791 1213 1294 1335 1993 2708 2193 2038 2042 2238 2176 2213 2044 2015 1560 782 487 158 39 80 1 0 0 0 0 2 0 30 22 22 47 38 114 353
679 549 901 1704 1891 2065 1992 2069 2302 2307 1903 1381 1459 1402 1409 1546 1645 1996 2186 2444 2461 2142 2130 1782 1103 752 323 134 174 119 3 0 0 0 1 0 0 0 0 6 25 51 68

GFSSE_con_sbcape_030.txt.gz
CAPE
0 219 500 663 895 1371 2119 2300 3044 3066 2514 2189 2233 2170 1904 1956 1974 1935 1914 1868 1573 1762 1826 1754 1726 1513 1728 1322 1362 1110 802 893 977 1492 1497 1328 1429 1481 1615 1592 1597 1165 1916
218 432 518 780 986 1593 1647 2660 2829 2702 2285 2387 2115 1869 1941 1883 1932 2007 1781 1909 1960 1811 1867 1823 1633 1508 1712 1700 1600 1500 890 711 1093 1401 1380 1333 1448 1091 1386 1466 2289 1774 1859
87 422 772 1493 1553 1567 2327 2517 2683 2351 2142 2019 1991 2022 1889 1955 1923 1864 1677 1837 1981 1901 1856 1810 1712 1500 1444 1571 1344 1467 1221 873 1344 1109 1185 792 1117 722 659 1606 1829 1739 1768
317 199 836 1508 1985 1980 2170 2679 2672 2002 1981 2106 2066 1974 1976 1959 1857 1777 1906 1955 1573 1823 1771 1691 1595 1536 1499 1239 1219 1433 1388 928 1375 1106 1083 669 287 538 611 1339 1413 1563 1766
58 554 1081 1549 2092 2127 2367 2608 2637 2202 1953 2074 1999 1942 1908 1792 1774 1795 1824 2045 1917 1818 1893 1748 1451 1510 1364 1185 1111 1304 1514 1054 1093 1090 1020 1461 359 1256 1292 1247 1507 1187 985
439 597 1320 1898 2006 2233 2266 2188 1965 1970 2010 2070 1956 1831 1705 1688 1793 1827 2126 1997 1986 1728 1753 1688 1652 1535 1376 1130 1045 1016 1124 1250 1062 395 1144 969 744 1297 1332 1138 1431 1080 911
499 633 1230 2295 2438 2473 2191 2071 2014 2007 2055 2068 1922 1858 1703 1644 1666 1780 2005 1914 1860 1710 1668 1598 1538 1554 1639 1513 1511 1505 1172 1006 1049 409 1020 1315 525 1206 1165 1410 1482 1409 1384
532 490 892 2053 2316 2679 2273 1942 1877 1925 2038 2076 2035 1905 1804 1676 1677 1745 1900 1899 1823 1640 1618 1593 1469 1472 1801 1717 1648 1750 1235 773 1189 491 748 1190 1365 1418 1492 1648 1627 1578 1458
485 328 528 793 1675 2108 2189 1968 1899 1935 2006 2084 2078 1952 1754 1607 1530 1524 1662 1659 1753 1648 1663 1620 1551 1505 1607 1762 1706 1719 951 661 1206 936 638 654 1220 1336 1563 1564 1695 1560 1683
443 301 466 682 985 1361 1596 1935 1989 1995 2010 1963 1891 1900 1862 1721 1645 1712 1474 1810 1608 1390 1496 1634 1558 1438 1464 1620 1834 1758 1868 1084 960 1056 584 1365 1527 1487 1263 717 1439 1108 889
389 276 364 522 836 1109 992 1343 1679 1804 1863 1875 1835 1758 1645 1940 1856 1774 1517 1696 1642 1401 1393 1804 1774 1737 1474 1828 1878 1941 2003 788 594 574 945 1450 1511 1439 1396 1163 625 1080 472
515 303 284 431 648 866 613 1064 1087 749 602 952 994 1381 1793 1960 1987 1640 1796 1650 1881 282 1237 1655 1517 1606 1557 173 377 1755 1354 852 429 445 623 1232 1492 1554 996 1684 972 1404 522
777 353 273 490 770 762 687 998 998 852 752 1094 1560 1838 1935 1767 1808 1817 1742 1407 1455 582 1217 1543 1526 1314 495 174 45 45 367 266 148 153 242 469 1199 1309 1068 1208 1465 879 920
826 517 345 445 782 780 693 755 750 696 736 548 671 1586 1791 1811 1813 1933 1533 1402 1330 1099 1479 1420 1222 1329 878 663 382 51 50 71 134 117 460 682 1083 876 1335 1494 1355 1434 1364
710 674 600 631 938 906 930 566 462 714 689 431 682 1097 1434 1460 1716 1769 1883 1484 1628 1514 1355 1290 1026 1199 1241 1237 824 197 100 117 146 157 623 994 1075 1115 974 1260 1635 1332 1567
573 512 513 679 964 1052 1092 1142 993 1070 766 772 480 485 1274 1435 1804 1721 1618 1470 1488 1609 1615 1783 1194 1337 762 448 903 593 54 87 79 117 285 741 1079 1238 957 1145 1330 1636 1508
503 461 508 724 840 1177 1334 1504 1399 931 868 654 408 685 1105 1570 2171 2527 2149 1604 1486 2021 1470 1549 1123 1024 530 133 418 48 60 128 141 83 273 531 646 951 1127 915 1171 1458 1722
493 581 704 638 801 1176 1309 1469 1097 879 839 469 224 539 1109 1332 2051 2457 1741 1349 1828 2063 1387 1489 1079 784 399 125 83 45 40 143 222 168 247 504 298 501 764 775 780 1127 1071
640 797 1031 1045 982 1290 1606 1511 1335 1081 865 326 213 558 1011 1392 1773 2375 2081 1870 2304 1714 1687 1253 1149 1040 269 164 159 53 31 85 202 52 78 269 444 279 431 722 770 745 837
1001 1037 1286 1281 1347 1592 1580 1732 1316 896 541 337 365 513 912 1520 1718 2383 2010 1625 1604 1532 1446 1373 1094 849 356 166 21 3 47 71 73 65 43 71 446 395 396 717 860 780 828
1066 1250 1373 1430 1829 1695 1602 1374 1048 590 379 287 425 782 1310 1939 2271 2720 2203 1964 2158 1633 1536 1387 1247 1089 226 131 3 27 46 51 54 51 54 53 56 57 44 201 381 478 672
1025 1221 1603 1602 2092 2039 1629 1728 901 585 321 342 552 1237 1932 2149 2544 2654 2738 2092 2072 1721 1985 1903 1449 627 228 2 22 38 43 38 31 47 46 36 23 24 3 3 706 693 642
958 1247 1705 2099 2336 2204 2216 1600 1204 755 618 629 932 1737 2324 2504 2523 2890 2515 1792 2301 2338 1833 2165 1792 1161 139 21 156 118 18 30 30 18 122 44 34 27 14 26 34 306 248
1015 1247 1675 2372 2408 2480 2375 2170 2674 992 657 662 1134 1525 1788 2292 2420 2524 2570 2486 2862 2091 2012 2639 1821 1242 1153 12 54 4 253 546 26 39 12 36 19 27 17 16 30 37 44
1011 1183 1499 2473 3190 3191 2974 2882 2084 2123 930 704 852 2667 3344 2636 2425 2170 2592 2836 2852 2643 2336 2610 2033 1887 1062 54 1 0 16 0 58 14 46 34 74 27 43 33 36 51 61
1056 1245 1418 2832 3255 3271 2926 2526 3228 3362 2578 1229 1722 1467 1510 1655 2036 2375 2400 2881 2912 2707 2640 2716 2470 1931 1611 515 16 80 0 0 0 5 5 18 36 88 44 19 35 42 55

GFSSE_con_sbcape_033.txt.gz
CAPE
8 112 239 821 1282 1520 2092 2301 2301 2430 2096 2005 2330 1918 2011 2037 1885 1964 1648 1790 1865 1829 1811 1800 1590 1833 1388 1553 1350 764 768 973 1579 1651 1631 1681 1667 1546 1537 1590 1978 1295 1905
0 100 576 933 1366 1752 2228 2856 2593 2317 2083 2359 1972 2026 1889 1973 2065 1936 1903 1975 1784 1821 1779 1687 1557 1736 1705 1694 1518 935 780 1172 1360 1365 1303 1414 1239 1421 1577 1619 2284 1912 1996
16 244 448 1556 1787 1665 2233 2674 2233 2039 2220 1992 2054 1932 1939 2044 1774 1721 1904 1963 1938 1857 1853 1796 1542 1479 1603 1480 1506 1337 957 1398 1187 1165 1171 869 479 642 1590 1817 1931 1913 1877
75 218 305 1870 2047 2037 2331 2458 2461 2018 2026 2167 1991 2040 2084 1980 1796 1879 1936 1721 1915 1840 1747 1640 1564 1521 1307 1218 1445 1483 930 1361 1109 756 1254 333 0 483 1287 1638 1782 1815 1750
183 646 1064 1752 1930 2151 2235 2270 2260 1923 2074 2000 1926 1978 1870 1852 1681 1764 1677 1880 1834 1911 1824 1494 1547 1415 1207 1044 1194 1516 1191 938 983 1051 914 1162 1032 1246 1029 1331 1113 1442 1247
467 538 1236 1668 1889 2005 2021 2088 1866 1829 2033 1980 1788 1683 1734 1923 1963 1981 1765 1950 1679 1758 1712 1708 1667 1531 1378 1209 1098 1094 1013 1091 1063 1171 1211 973 1136 1147 1042 1121 1375 955 1197
645 817 1321 2074 2305 2241 1997 1909 1861 1936 2073 1847 1736 1652 1725 1753 1781 2041 2022 1863 1725 1669 1653 1579 1580 1683 1684 1595 1523 1149 960 977 783 910 1192 602 784 1438 1503 1553 1340 1378 1163
545 376 1330 2004 2281 2237 1882 1886 1948 1975 1964 1912 1833 1742 1721 1732 1798 1950 2017 1909 1694 1635 1607 1540 1503 1729 1739 1716 1645 1273 829 982 734 656 1554 868 1672 1597 1565 1622 1585 1488 1423
245 348 879 1161 1639 1895 2063 1794 1826 1885 1950 2010 1919 1809 1681 1617 1584 1697 1735 1833 1770 1724 1696 1651 1545 1566 1787 1694 1718 1304 655 850 1751 460 558 980 1849 1490 1578 1644 1645 1590 1557
303 163 327 593 975 1225 1336 1702 1750 1848 1904 1997 1996 1888 1820 1763 1787 1521 1830 1728 1609 1539 1495 1623 1471 1466 1635 1859 1793 1894 1437 1139 1265 336 849 1227 1508 1490 1107 1705 1474 1364 1535
272 140 109 354 770 1120 1037 1563 1767 1778 1821 1784 1755 1825 1740 2325 2056 1937 1847 1588 1396 1378 1440 1712 1789 1692 1684 1858 2181 1994 1933 1115 630 1045 1122 1958 1696 1445 1225 521 1645 666 1265
270 153 164 339 506 693 428 1110 1036 838 821 1073 1303 1398 1279 1971 1783 1653 1458 1661 1760 623 1356 1512 1249 1659 2081 1051 1328 2376 1816 601 388 767 901 2060 1746 1457 1588 819 1465 527 490
355 251 284 376 557 467 1021 469 640 444 651 1065 1572 1860 1383 1653 1800 770 1099 1052 1438 940 848 1065 1207 1524 303 487 69 1057 692 483 166 414 696 1402 1361 1520 1114 1650 1109 1142 528
574 278 253 407 760 505 661 486 490 465 522 589 1083 1879 2302 1507 1538 1378 1637 1568 1440 1538 1557 1514 1257 1373 1422 1037 336 40 52 175 69 493 455 964 777 1192 1133 1348 1363 1173 1093
618 357 276 469 1341 1307 923 534 528 465 379 327 766 1503 1669 1957 2001 1822 1624 1754 1614 1741 2019 1795 1352 1444 1093 878 902 979 100 3 44 420 257 895 946 919 1277 1465 1445 1390 1458
725 520 400 504 918 1022 1382 1147 645 575 564 440 435 862 1657 1701 1630 1950 1654 1926 1919 2043 1308 1287 1359 1260 1128 750 380 433 68 65 18 321 346 688 1406 1109 1028 1138 1609 1628 1408
765 645 634 687 882 1047 1193 1230 1048 711 574 493 446 711 1305 1646 2074 2187 1665 1528 2105 2532 1609 1640 1362 1611 577 251 168 16 46 89 30 37 644 370 668 1551 1035 1082 1244 1631 1772
734 886 758 558 792 1099 1287 1450 1117 758 609 519 318 536 1232 1665 2186 2445 1784 1436 2049 1846 951 2006 740 380 735 29 44 46 178 28 78 2 143 618 616 290 1207 1191 1092 1284 1402
793 984 887 779 707 1097 1929 1496 1310 1820 806 514 229 301 1718 1548 1848 2493 1158 1141 2288 1963 1404 653 1077 756 46 48 39 53 58 22 257 34 15 45 368 491 357 1410 1400 1059 1029
728 807 1369 967 2108 2608 1859 2275 1308 873 794 499 215 209 2150 1614 1804 2390 2334 2091 1592 1901 1831 1370 1262 272 389 18 28 8 51 57 58 68 23 284 49 41 451 947 618 820 1282
658 886 1868 1960 2830 2158 1653 1410 1267 818 890 350 288 909 1117 1398 2003 2487 2324 2759 1864 2488 1684 1351 1306 914 688 25 11 27 42 26 32 41 54 54 47 62 19 134 986 598 604
993 1745 2552 2813 3513 2966 1970 2285 1523 1531 418 251 205 1481 1190 1616 2150 2557 2953 2358 2226 1648 1886 1936 1420 1253 37 0 182 39 38 30 37 45 34 22 31 20 7 12 82 1067 920
1158 2049 2590 3218 3524 3159 2930 2569 2345 1649 1281 389 457 629 1455 1989 2232 3457 2545 2250 2464 2560 3146 2250 1603 1042 265 0 413 273 191 99 18 1 17 36 5 15 4 4 31 83 339
1045 1520 2755 3397 3571 3383 3477 2262 2604 1175 625 406 653 533 1423 2762 2280 2473 2477 2032 2848 2162 2768 2244 1784 1605 1262 60 0 21 602 652 452 124 45 24 20 14 4 38 31 23 38
851 1107 1975 3512 3768 3534 3464 3256 2158 2075 640 470 484 1862 2456 3676 2594 2041 3206 2890 3157 2774 3384 2420 2358 2162 1094 529 0 0 0 0 0 118 181 263 20 21 52 26 64 116 80
677 931 1967 3500 4094 4069 4080 3645 4043 2723 2229 815 907 977 1214 1381 2328 3464 2722 3743 3848 3516 2553 2756 2856 2406 2096 898 194 49 23 41 65 44 17 442 272 307 26 32 27 32 77

GFSSE_con_sbcape_036.txt.gz
CAPE
60 179 453 1203 1980 2163 2421 2240 2385 2448 2439 2639 2496 2531 2350 2495 2547 2442 2420 2390 2336 2252 2267 1846 1783 1451 1648 1646 741 581 894 1510 1632 1671 1739 1728 1624 1598 1627 1500 2114 1523 2285
32 203 620 1261 1718 2196 2593 2510 2481 2533 2681 2494 2586 2378 2371 2146 1919 2565 2427 1992 2074 2117 1703 1561 1718 1717 1737 1571 1018 984 1218 1295 1373 1391 1270 1429 1517 1682 1667 2130 1978 1824 1810
43 202 657 1659 1675 2290 2496 2498 2450 2642 2414 2552 2436 2315 2514 2179 2357 2403 1927 2057 2072 1930 1799 1556 1548 1645 1578 1549 1381 845 1437 1281 1099 929 890 746 722 1533 1406 1582 2078 2026 1681
0 103 397 1827 2177 2195 2482 2483 2468 2086 2157 2464 2102 2587 2495 2093 2305 1944 1797 1934 1785 1730 1680 1607 1544 1373 1270 1446 1533 975 1107 1213 935 600 905 586 39 1250 1287 1778 1784 1844 1896
0 77 1174 2124 2123 2048 2313 2478 2428 2445 2236 2045 2097 2235 2056 2026 2004 1744 1875 1779 1846 1790 1516 1573 1485 1295 1148 1192 1280 1356 948 901 944 1095 1306 1063 164 968 1241 1347 1452 1374 1694
54 384 1437 1847 1901 2232 2484 2377 2295 2232 1962 2205 1965 1690 1924 1897 1907 1801 1920 1670 1745 1731 1763 1764 1673 1557 1321 1224 1180 1128 956 972 1025 1037 1132 1373 932 1237 1213 1633 1259 1331 1429
404 863 952 2379 2538 2494 2365 2263 2210 2002 1805 1885 1764 1711 1760 1799 2018 2037 1828 1753 1707 1723 1665 1695 1795 1760 1647 1535 1176 1117 1022 1057 663 649 444 1105 1561 1944 1519 1148 1101 1082 1469
532 688 1064 2100 2380 2388 2166 2176 2325 2004 1680 1713 1653 1669 1688 1831 2047 2097 1962 1768 1694 1657 1612 1579 1686 1768 1752 1575 1405 1148 901 1167 848 1611 917 1196 2106 2039 1583 1566 1413 1332 1370
323 729 1073 1558 1779 2010 2317 1967 1878 1805 1762 1833 1717 1703 1707 1646 1777 1900 2137 2031 1788 1743 1650 1521 1511 1650 1667 1714 1569 1315 1074 967 1049 1357 978 1481 2238 1921 1752 1652 1611 1532 1475
174 396 1074 1428 1033 1207 1384 1717 1679 1695 1816 1862 1788 1696 1618 1563 1431 1671 2555 2337 1786 1653 1499 1459 1362 1379 1734 2016 1970 1513 1007 1196 1346 1090 1169 1576 2177 1510 1737 1575 1630 1608 1623
329 305 460 406 1129 1654 1496 1491 1628 1617 1734 1820 1678 1634 1576 2293 2084 1614 2350 2104 1380 1401 1317 1430 1414 1596 2224 2301 2276 2112 1796 1108 705 832 846 1865 2112 1030 921 1602 884 1609 1649
26 47 199 422 870 1109 544 1686 1829 1317 1294 1573 1133 101 264 1724 1636 1711 1712 2276 1621 903 1154 1746 1379 1758 2027 1418 1796 2589 1571 1818 991 878 1182 2287 2137 1553 820 1009 796 656 1244
96 0 207 748 1138 780 1055 1229 1207 1139 1236 1234 419 257 146 984 1149 2026 1350 1399 1880 1326 933 11 268 1153 1643 1353 1008 1269 1168 1712 580 361 1542 2289 2202 1426 1684 1170 1277 443 499
115 161 226 790 1331 1087 1000 516 900 728 795 1456 1285 621 793 852 807 921 2024 2033 1790 987 664 751 1093 1635 822 737 930 1150 547 92 290 317 1497 1983 2080 1870 1475 1593 1247 1105 681
359 302 428 860 1585 2295 2119 708 728 1321 932 1108 2023 2555 304 1219 1446 1364 1787 683 1838 1385 866 1351 1862 1301 2121 1047 957 938 128 37 313 62 551 1663 1561 1947 1583 1559 1417 1419 1361
684 413 964 1065 1541 2524 2352 2923 1843 2169 845 1289 948 1916 2759 1781 1985 2290 2711 1655 1834 1436 880 1844 2934 2029 510 1099 1119 947 103 451 177 146 427 1168 1766 1695 1888 1859 1651 1538 1497
795 630 973 1166 1201 2252 2274 2157 2281 2028 490 1039 1429 2483 2231 2543 3019 1369 2646 2426 2483 3008 2891 2671 794 1087 772 255 697 723 302 43 418 97 176 278 1250 1825 1791 1852 2105 2161 1660
715 977 914 307 908 1298 1751 2206 2037 1273 1543 1645 1557 1743 2270 2299 2951 3494 2381 1653 963 1699 2694 1027 2237 1101 1207 1030 280 205 196 252 206 389 274 454 630 595 1448 1840 1986 1922 1429
1000 1344 1275 999 1065 1245 2075 1944 1631 1903 2081 1865 1874 1726 2589 2762 2748 2950 2211 947 2343 2656 2239 2099 1878 1093 1212 709 26 517 519 25 42 51 477 547 687 257 374 1720 1965 1976 1411
1390 1574 1577 1303 1999 1846 1760 2012 1764 1494 1840 1697 1873 1665 2519 2691 2739 3205 2303 2520 3000 2759 1740 1726 2341 1569 1044 696 9 128 70 271 62 331 140 184 668 563 289 572 1324 1148 1676
1287 1636 1499 1859 2435 1938 1705 1685 1749 1244 1592 1701 1840 2216 2906 2769 2991 3644 2161 1025 2410 2550 2692 2530 2014 1330 891 276 681 296 252 46 50 39 66 51 199 211 207 924 953 547 1196
1097 1547 1703 1810 2429 2297 1925 1898 1706 1990 1461 1311 1393 2457 2532 2448 3187 3365 2908 2527 2614 1142 2680 2188 2155 1666 1113 328 867 189 178 207 43 41 118 44 117 37 15 782 501 1083 676
1204 1517 1758 1943 2739 2631 2292 2534 2835 2739 2771 1581 1150 1650 1897 2528 2958 3077 2890 2845 2636 2619 2227 2270 2434 2551 1069 271 1385 1215 138 30 255 139 59 18 62 7 9 328 534 1097 583
1092 1373 1947 2185 2498 2782 2774 2229 2557 1499 1188 1152 1089 1279 1614 2079 2820 2861 2891 3504 3389 2579 2717 2893 3121 2718 1987 320 260 567 1142 1105 369 18 305 110 189 13 229 41 97 248 596
1029 1637 2049 2436 2614 2915 2258 2983 2265 2039 1404 1099 1519 1917 2305 2635 3006 3050 3031 3322 3690 3350 2962 2500 3222 2920 2675 1846 507 387 747 990 819 916 199 253 183 177 195 244 77 44 322
1081 1785 2124 2741 2717 3026 2931 2407 3322 2186 2018 1176 1183 1735 2144 2801 2708 3467 3234 3162 3598 3343 3478 2953 3417 3512 3115 2751 1686 1046 499 329 569 520 654 326 343 502 326 94 206 181 258

GFSSE_con_sbcape_039.txt.gz
CAPE
25 173 1667 2124 2081 2151 1865 1801 2078 2174 2521 2616 2533 2681 2439 2178 2264 2524 2781 2329 2232 2567 2360 1556 1686 1876 1649 697 609 956 1454 1645 1739 1760 1719 1718 1830 1744 1757 1809 1918 1714 2087
0 185 1782 2254 2040 2010 2383 2351 2171 2652 2597 2415 2731 2660 2247 2106 2338 2445 2516 2057 2075 2327 1755 1868 1838 1732 1664 981 1387 1333 1348 1398 1359 1211 1657 1728 1696 1609 2221 1631 1934 1786 1838
12 445 1456 2113 2320 2129 2498 2536 2345 2478 2273 2436 2697 2452 2192 2098 2333 1903 2032 1991 2056 1756 1654 1723 1794 1683 1697 1376 970 1485 1247 1144 1179 1288 1075 855 1276 1451 1354 1882 1960 1895 1837
25 278 1264 2098 2298 2415 2492 2749 2463 2126 1743 2325 2802 2525 2283 2356 2333 1966 1953 1887 1819 1828 1731 1645 1501 1431 1578 1608 1077 1092 1274 1055 938 915 531 172 831 1224 1568 1810 1821 1824 1622
9 376 1168 2324 2454 2405 2594 2530 2638 2464 2014 2545 2639 2314 2305 2568 2056 1858 1885 1974 1810 1880 1732 1600 1418 1307 1262 1259 1301 989 984 982 1048 1072 323 0 576 1102 1348 1682 1568 1688 1741
69 868 1994 2195 1889 2405 2241 2260 2134 1889 2033 2286 2354 2377 2260 2561 1953 1840 1832 1891 1887 1924 1884 1764 1643 1356 1238 1202 1177 1212 936 988 1048 676 657 1121 895 1756 1786 1735 1563 1679 1704
567 982 1471 2542 2509 2584 2149 2020 2266 1907 1717 2132 2396 2107 2074 2136 2046 1883 1850 1876 1880 1805 1819 1850 1779 1694 1582 1247 1153 1126 1003 1135 552 852 1036 1100 1246 2092 1209 1246 1064 1740 1644
502 772 1450 2293 2391 2517 1859 1810 2350 1737 1716 2198 2319 1827 1881 2108 2565 2146 1913 1857 1811 1739 1679 1768 1837 1719 1552 1315 1241 1258 1069 1449 764 730 877 1271 2164 2053 1579 1442 1268 1586 1684
479 828 1394 1549 1549 1800 2296 1882 1987 1704 1876 2044 2086 1906 1882 1802 1890 2137 2201 2411 1831 1786 1681 1630 1688 1777 1620 1522 1314 1363 1282 1755 690 993 1319 1548 2372 1924 1726 1660 1586 1532 1483
610 875 1200 1257 1147 1383 1618 1843 1729 1707 1910 1833 1790 1702 1626 1489 1556 1771 2224 2426 1920 1757 1643 1628 1816 1558 1757 1615 1612 1170 970 1710 774 744 1072 1581 2276 1800 1789 1765 1746 1561 1671
440 709 978 963 800 881 1081 1332 1645 1720 1868 1948 1881 1072 164 373 1116 1353 1872 2239 1586 1510 1457 2002 2253 1940 2041 1798 1925 1979 1308 712 629 682 1055 2024 1962 1636 1525 1205 1720 1669 1633
315 479 594 481 523 690 907 1047 1130 1240 1381 1451 298 2 0 0 222 1394 1691 2164 1656 1165 1548 1777 1415 1361 1223 1378 1348 1844 1506 836 422 469 1007 2233 1712 861 1214 856 1079 1672 1705
123 177 56 334 525 453 744 845 984 833 875 775 137 0 0 61 330 609 830 1314 1238 1075 733 32 147 715 1135 810 790 1095 741 1222 238 503 1655 2290 2249 1231 1012 1181 484 932 1184
13 0 0 345 511 321 405 526 710 622 636 558 159 0 58 7 490 517 924 964 1079 440 367 469 400 624 421 579 515 772 692 283 258 940 1876 2390 2260 1987 1377 1484 833 510 614
0 0 0 302 355 428 160 55 239 275 330 823 391 0 226 151 687 814 1139 517 627 565 499 918 670 807 551 443 74 33 82 38 127 641 1128 2233 2080 2144 1954 1422 1314 1158 1014
2 0 133 251 614 237 282 86 20 712 222 1180 1027 527 303 385 930 889 1380 1102 927 517 306 400 988 965 339 363 60 130 65 51 28 208 463 1098 2096 2146 1911 1904 1466 1520 1526
108 0 118 143 791 488 728 692 909 628 131 233 994 1361 1182 1138 834 790 658 1153 912 793 530 1156 38 630 378 231 55 41 17 52 41 94 276 646 1343 2101 2195 2286 2340 2197 1739
169 211 186 167 786 798 827 574 943 549 692 510 955 922 1014 1161 1787 852 986 830 840 1197 1439 1161 991 193 394 170 71 71 46 26 30 81 116 265 678 904 1911 2185 2259 2028 1776
55 279 265 190 428 880 680 841 570 712 798 822 945 760 828 1033 1734 1324 778 780 781 1371 1013 561 1019 322 260 260 42 53 44 37 47 108 24 157 263 476 613 1777 1983 1792 1456
90 237 144 263 215 422 751 1054 477 413 776 737 641 689 1027 1163 1548 1554 1032 790 1265 911 901 406 285 84 92 8 18 58 23 10 28 83 177 257 146 117 205 661 1053 1045 1402
349 249 114 406 476 272 1017 738 997 464 635 583 347 1123 1297 1388 1588 1482 1400 860 1218 880 986 977 386 458 96 0 0 24 9 10 23 31 30 104 148 52 90 150 372 491 1003
472 499 331 745 807 483 806 485 673 907 575 681 314 1314 1479 1556 1623 1505 1425 902 1308 1081 1234 1089 800 510 360 0 58 33 8 4 4 10 11 61 43 3 27 162 215 293 580
522 478 595 553 1072 710 786 811 903 962 592 690 391 312 1484 1333 1878 1638 1388 1425 1333 584 957 1151 893 917 0 0 41 104 12 1 1 13 2 0 6 0 0 343 174 114 193
659 599 486 725 1496 986 1030 1079 915 762 841 766 266 184 784 1224 1399 1761 1533 1312 1496 1275 999 998 1146 903 24 0 0 26 93 48 0 0 0 0 0 0 17 104 239 95 76
524 755 608 712 1254 1376 1187 1078 1210 1023 833 304 242 223 751 728 1196 2109 1615 1771 1537 1640 1064 1063 1748 796 618 145 0 0 0 0 0 0 1 1 0 0 0 0 18 90 0
583 818 864 765 956 1372 1283 1413 1050 1182 618 737 229 182 1083 1036 1380 1892 1865 1816 1673 1712 1396 1420 1648 1196 945 1165 67 16 0 0 0 0 9 5 0 0 0 0 0 0 0

GFSSE_con_sbcape_042.txt.gz
CAPE
71 373 1813 2111 1700 1712 1562 2048 2097 2558 2479 2603 2498 2351 2396 2454 2622 2604 2660 2503 2280 2336 1919 2002 2041 1219 661 856 1482 1480 1553 1807 1896 1879 1998 2023 2006 1870 2404 2066 1978 1713 1870
0 685 2042 2127 1896 1678 1730 2173 2342 2438 2159 2375 2515 2228 2493 2196 2195 2352 2599 2127 1976 2367 2057 2142 1917 1578 1204 1445 1212 1495 1614 1498 1957 1810 1770 1849 1803 1784 1981 1993 1954 1785 1995
165 1051 1550 2241 2335 1991 2082 2412 2502 1996 2018 2415 2237 2472 2535 2066 2213 2271 2337 1957 1820 1889 1938 2039 1932 1878 1131 1491 1388 1254 1460 1477 1373 1348 1675 1051 1146 1593 1709 1972 1964 1904 1843
360 955 1303 2339 2343 2209 2272 2342 2481 1993 2342 2233 2207 2539 2415 2151 2419 2003 2044 1983 1959 1870 1861 1785 1755 1848 1628 1006 1324 1195 1313 1146 1357 1130 392 550 698 1696 1717 1934 1836 1690 1757
256 1050 1377 2407 2402 2385 1981 2297 2118 2141 2005 2056 2026 2137 2516 2337 2020 2168 1984 1902 1926 1845 1759 1649 1596 1521 1500 1245 847 1086 1169 1240 1415 720 36 394 724 1310 1674 1756 1707 1596 1644
643 972 2137 2348 1857 2006 1863 2181 1814 1902 1834 2076 2151 2303 2435 2249 1947 2038 2019 2001 2000 1909 1769 1708 1457 1371 1404 1253 1120 1123 1023 1494 726 419 697 1231 857 1828 1895 1598 1645 1689 1629
718 1320 1719 2471 2576 1982 1961 1725 1786 1720 1703 2000 2218 2158 2361 2101 2000 2055 2080 2008 1982 1954 1928 1821 1721 1590 1362 1364 1243 1327 1247 1454 669 666 746 883 1526 2007 1578 1281 1675 1657 1668
867 1371 1655 2362 2466 1988 1632 2014 1712 1623 1763 1933 1986 2078 2336 2266 2106 2051 1998 1969 1901 1844 1856 1826 1747 1501 1382 1417 1263 1329 1558 1462 844 888 1135 1384 1989 1644 1179 1128 1789 1694 1656
931 1306 1574 1669 1522 1629 1876 1994 1686 1732 1797 1902 1899 1947 2013 2059 2050 2034 2108 1984 1891 1792 1696 1639 1629 1670 1599 1282 1300 1658 1834 1265 642 908 1275 1471 2182 1621 1383 1371 1627 1709 1673
902 1279 1202 1080 1065 1411 1511 1911 1700 1883 1812 1854 1801 1710 1659 1674 1749 1928 2185 2266 1919 1734 1658 1602 1556 1619 1573 1264 1230 1314 1842 1519 707 964 1249 1706 2247 1737 1617 1538 1507 1570 1654
965 1181 1051 895 996 1092 1237 1409 1614 1921 1824 1844 1768 1832 526 188 756 1362 1710 1925 1664 1461 1590 1804 1960 2067 1770 1481 1365 1535 1238 267 503 825 1107 2084 2286 1513 1545 1693 1772 1729 1574
764 1020 930 741 718 810 1311 1085 1001 1352 1455 1266 81 0 0 0 349 1177 1614 1745 1539 1044 1475 1083 1069 1657 1344 1255 1011 1457 729 408 434 612 1172 2142 2201 1320 1119 1688 1619 1734 1649
638 946 688 508 446 635 786 771 750 888 973 741 19 0 0 7 287 580 787 1164 910 807 467 0 106 567 742 788 567 978 929 568 275 466 1551 1860 1605 1118 1032 762 1534 1778 1566
549 722 418 266 420 187 551 575 574 595 553 428 11 0 0 0 310 399 284 516 918 257 239 173 320 522 524 255 448 704 388 457 149 818 1632 2468 1846 1265 1242 594 557 975 1255
270 253 161 170 304 120 203 157 378 333 371 409 67 0 0 21 233 421 641 722 557 433 264 474 528 594 499 45 21 407 417 49 440 1010 1300 2173 2427 1980 1525 1199 712 566 774
45 30 32 205 151 196 46 0 13 73 133 430 198 0 43 0 336 531 564 222 322 274 278 165 615 473 117 44 25 61 26 32 143 756 845 1622 2265 2511 2074 1431 1393 1282 1328
0 0 25 178 158 124 0 0 0 59 18 550 382 145 165 42 659 624 710 721 343 305 192 103 162 131 21 46 29 26 21 12 53 214 518 600 1596 2408 2395 2021 1861 1764 1590
0 0 24 205 301 5 325 122 453 37 0 378 787 579 407 462 577 657 647 679 605 848 685 744 369 77 89 75 51 12 17 27 28 47 205 397 709 1108 2173 2140 1873 2013 1582
0 0 36 38 500 3 405 103 272 318 320 262 530 579 672 1115 991 472 471 678 471 645 776 197 610 178 151 138 57 13 27 38 38 36 42 98 271 585 852 1685 1466 1926 1440
24 7 14 0 503 66 295 58 63 93 119 344 539 310 378 950 1221 922 439 211 494 628 502 381 62 33 54 66 29 34 5 22 37 39 48 73 85 140 215 702 749 1098 1254
79 40 11 0 298 225 340 245 43 20 38 200 174 368 434 711 1039 1078 910 899 851 802 709 70 70 45 5 0 9 4 0 9 11 36 52 39 38 37 94 234 374 420 766
96 71 30 0 51 290 180 235 211 24 31 172 5 451 609 822 1073 975 865 618 679 809 666 584 269 101 3 0 21 0 0 0 0 2 27 33 13 17 28 58 91 148 494
110 104 56 21 0 35 231 68 303 442 227 272 109 519 754 926 1131 1091 913 724 775 590 701 620 467 65 0 0 1 0 0 0 0 0 0 11 16 7 0 63 54 93 218
147 88 77 123 87 33 284 130 278 433 730 369 174 2 814 917 1139 1202 969 911 1080 531 380 641 540 355 0 0 0 1 4 0 0 0 0 0 0 0 0 82 78 46 39
216 194 101 383 228 194 449 277 177 210 360 279 113 21 400 786 950 1152 1117 923 895 1018 580 506 989 622 0 0 0 0 0 0 0 0 0 0 0 0 0 28 86 41 3
353 301 200 594 444 373 519 424 338 256 305 260 133 3 58 450 583 1117 1175 1047 1123 1092 968 563 891 554 551 0 0 0 0 0 0 0 0 0 0 0 0 0 17 55 0

GFSSE_con_sbcape_045.txt.gz
CAPE
107 424 1873 1906 1642 1961 2086 2070 2194 2348 2285 2306 2267 2121 1928 1896 1980 2039 2221 1853 1767 1755 1990 1441 926 677 1133 1527 1263 1350 1634 1935 2135 2117 2087 2121 2207 2134 2064 2015 1821 1542 1800
137 815 1976 2301 1662 2037 1816 2238 2103 2320 2124 2378 2036 1911 1890 1911 2147 2255 2074 2132 1775 1954 2107 1802 1218 1231 855 1226 1431 1602 1686 1757 1801 1790 1745 1828 1961 2190 1914 1957 1963 1706 1769
496 1048 1655 2144 1842 1931 2093 2277 2114 2430 2273 2372 2457 2251 2130 2109 2196 2008 1815 1975 2052 2103 2024 1888 1482 1261 1604 1356 1328 1274 1477 1521 1524 1672 1706 1051 1373 1848 1967 1944 1916 1796 1734
822 1077 1701 2179 2277 1839 2073 2025 2190 1869 1971 2198 2280 2280 2135 2123 2048 2029 1958 1887 1953 2026 2044 1872 1741 1218 1285 1140 1153 1330 1515 1563 1326 1216 384 624 981 2019 2000 1975 1905 1721 1726
897 1066 1600 2266 2389 1763 1904 2005 2374 2142 1892 2230 2299 2321 2214 2383 2027 2005 2041 1973 1957 1858 1622 1629 1623 1412 1039 1216 1239 1257 1301 1426 1164 430 313 562 1038 1714 1913 1738 1657 1637 1670
1062 1049 2015 1868 1983 1734 1891 2099 2316 1886 1908 2127 2659 2228 2216 2076 2153 2113 2020 2052 2026 1874 1771 1578 1401 1406 1339 1101 1079 1208 1502 1556 778 239 679 1082 1023 1769 1854 1801 1715 1527 1739
889 1350 1496 2324 2173 2123 1778 1871 1981 1847 2090 2346 2573 2194 2276 2117 2118 2248 2253 2204 2081 1994 1913 1743 1666 1403 1394 1191 1297 1448 1544 988 488 672 851 1185 1720 2255 1474 1775 1808 1777 1677
1172 1479 1538 2088 1832 2067 1677 1775 1735 1891 2139 2109 2267 2410 2257 2222 2240 2250 2195 2056 1957 1957 1974 1713 1578 1296 1411 1393 1371 1551 1603 1293 924 873 1138 1234 1881 1688 1269 1793 1742 1774 1706
1278 1373 1521 1610 1299 1715 1944 1712 1687 1947 2010 2047 2144 2343 2255 2238 2188 2027 2123 2030 1917 1823 1737 1763 1313 1265 1139 1275 1374 1585 1836 1343 692 981 1195 1286 1988 1111 1278 1863 1842 1726 1689
1248 1361 1328 1207 1000 1315 1705 1693 1788 1924 1996 1969 1935 1924 1922 2014 2090 1836 2492 2398 1884 1771 1684 1659 1559 1667 1488 1439 1304 1772 1554 1427 824 1070 1202 1388 1927 1353 1074 1676 1739 1563 1644
1211 1162 917 878 1076 1089 1306 1376 1773 1897 1947 1888 1736 2057 1215 608 960 1407 1825 1978 1612 1622 1801 1982 1811 1811 1814 1838 1807 1982 1623 428 670 957 1184 1947 2023 1645 1521 1526 1679 1706 1616
823 1157 787 789 910 1005 1466 1129 1238 1454 1426 1325 773 105 98 146 660 1276 1542 1722 1485 1240 1765 457 1358 1547 1357 664 893 1550 294 438 638 868 1195 1987 1958 1333 1665 1856 1670 1556 1693
769 1130 797 676 655 884 1143 850 837 1044 1153 920 1 0 0 28 290 551 722 1111 747 760 330 59 154 514 561 833 659 958 316 394 421 836 1403 2043 1878 1091 1373 1291 1742 1764 1782
779 924 714 505 485 555 509 717 690 786 772 640 100 0 0 84 331 499 327 357 574 145 148 50 207 656 168 324 409 542 622 338 148 602 1359 1916 1727 1213 694 1290 1646 1584 1498
619 749 565 306 336 301 308 430 449 500 588 457 22 0 0 17 212 311 443 371 454 371 164 277 217 340 128 37 62 499 263 63 285 783 1219 1724 1768 1659 813 542 689 977 1146
472 505 311 150 224 76 152 39 200 246 299 409 157 0 0 3 262 276 323 269 270 210 108 78 355 254 54 32 36 292 28 89 388 825 973 1553 2110 2039 1540 1059 796 672 842
226 198 71 25 115 41 57 0 2 98 117 265 307 58 9 3 315 475 374 435 205 182 164 6 6 27 16 12 35 28 21 39 161 618 708 813 1667 1738 1636 1415 1354 1241 1420
46 24 0 107 113 27 22 0 0 0 37 86 303 260 60 59 372 451 522 569 255 329 351 606 250 43 33 15 21 12 10 14 29 190 298 343 897 1350 1907 1839 1626 1662 1539
0 0 0 24 68 7 0 0 0 0 0 48 398 454 205 233 533 436 583 660 428 350 318 480 325 80 93 63 7 0 9 21 12 48 64 160 337 575 913 1496 1730 1695 1435
0 0 0 0 36 0 22 0 16 60 152 42 338 454 435 693 837 249 266 327 306 588 321 189 70 30 52 29 14 8 8 24 29 45 42 42 90 248 349 518 640 706 1123
0 0 0 0 11 6 60 13 0 0 23 184 193 341 364 677 893 568 273 235 537 314 373 24 31 0 0 0 3 1 0 0 0 33 39 40 59 21 35 176 259 275 399
0 0 0 0 0 62 24 140 0 0 0 40 37 220 264 441 857 824 637 607 577 455 308 210 20 13 0 0 1 0 0 0 0 0 27 44 32 16 32 53 88 90 198
0 0 0 0 0 120 30 0 45 17 0 10 9 230 267 479 809 784 647 359 492 419 454 245 124 0 0 0 0 0 0 0 0 0 0 13 16 9 1 0 14 31 134
0 0 0 0 0 38 2 11 89 35 4 0 0 3 407 556 732 854 613 398 501 326 151 319 158 20 0 0 0 1 0 0 0 0 0 0 0 0 0 1 14 22 66
28 2 0 0 0 0 2 10 5 0 0 15 0 0 311 516 685 935 751 580 699 624 256 315 276 113 0 0 0 0 0 0 0 0 0 0 0 0 0 0 18 25 18
100 43 4 0 0 0 3 4 0 0 20 151 78 0 5 414 496 776 854 619 522 654 591 259 339 232 9 0 0 0 0 0 0 0 0 0 0 0 0 0 0 35 2

GFSSE_con_sbcape_048.txt.gz
CAPE
45 278 1660 1531 1897 1581 2158 2099 2131 2162 2159 2022 1925 1733 1846 1971 2039 2137 2036 1854 1563 1825 1215 929 779 1130 1358 1574 1693 1701 1904 2310 2270 2227 2401 2536 2084 2212 2171 1999 1586 1484 1823
67 815 1761 1863 1770 1791 1989 2215 2140 2187 2244 2285 2060 1957 1894 1934 2004 2079 1827 1715 1748 2009 1356 1206 953 916 1216 1182 1386 1518 1714 1949 2044 2103 2170 2273 2202 1963 2070 1955 2018 1588 1920
287 1028 1330 2007 2007 2057 1803 2330 2025 2171 2163 2168 2129 2010 1995 2006 1871 2032 1936 1817 2010 2052 1734 1357 1558 1419 1085 1278 1398 1813 1739 1759 1573 1688 2112 1657 1864 2055 2084 2048 1866 1853 1677
673 1070 1240 1905 2240 1841 1898 2335 2073 2216 2215 2279 1894 1722 1872 1956 1983 1714 1951 2018 1541 1602 1795 1453 1294 1269 1270 1324 1493 1582 1320 1448 1668 1331 774 1115 1729 2054 2085 2014 1725 1805 1719
788 1228 1196 1935 2235 1742 2110 2233 1868 2159 2207 2119 1967 2114 1981 2053 2029 2057 1956 1970 1655 1686 1234 1531 1364 1145 916 1023 1148 1365 1585 1333 1213 724 838 1254 1821 1844 1894 1834 1722 1727 1815
906 1194 1687 1950 1597 1672 2123 2043 1795 2041 2086 2082 2136 1973 2040 2113 2001 2054 1977 1890 1767 1836 1679 1427 1425 1214 1260 1316 1178 1347 1520 1504 840 699 1224 1649 1497 1904 1672 1621 1383 1775 1746
775 1080 1210 2209 2062 1574 2087 2032 1718 1844 1866 2148 2097 2251 2209 1944 1905 2139 2187 2078 1971 1901 1693 1385 1338 1101 1152 1155 1628 1438 1675 1442 699 918 1071 1485 1958 2163 1939 1851 1729 1729 1736
941 1076 1298 1704 2034 1657 1754 1782 1715 2048 1838 2157 2200 2354 2301 2309 2127 2113 1995 1970 1885 1753 1558 1272 1120 1090 1231 1145 1432 1451 1327 1031 945 1198 1429 1598 2041 1659 1835 1792 1676 1694 1658
1185 1118 1237 1030 1788 1434 1557 1524 1774 1972 2004 2258 2151 2325 2301 2221 2205 2056 1975 1825 1776 1661 1379 1042 1104 1091 1256 1208 1447 1674 1512 1307 952 1254 1180 1464 1810 1485 1717 1765 1699 1701 1599
1138 1168 1195 869 901 1247 1163 1486 1513 1870 1920 2070 2141 2164 2183 2110 2063 2033 1601 1850 1582 1636 1421 1006 1205 1524 1354 1392 1775 1817 1501 1402 1086 1296 1395 1363 1337 1158 1745 1718 1655 1712 1759
1104 1066 955 739 819 1010 1022 1274 1649 1884 1882 1879 1790 1950 1249 871 1169 1522 1852 1724 1519 1587 1624 1597 1543 2040 1883 1481 1765 1695 1377 899 1062 1219 1362 1435 1548 1313 1491 1635 1793 1773 1685
917 1035 737 696 808 915 1396 1075 1189 1488 1185 1316 1097 317 267 359 714 1175 1690 1664 1334 1613 889 1538 1665 1563 1068 1053 1863 1749 654 762 1084 1208 1371 1693 1891 1686 1433 1764 1678 1747 1620
470 1072 639 678 699 882 1123 764 929 1020 1041 676 152 0 37 121 365 637 807 1043 590 717 236 289 480 736 791 913 1055 593 510 646 956 1131 1361 1617 1536 1258 953 1562 1655 1700 1718
456 740 636 549 585 621 625 654 702 855 863 630 18 0 0 58 305 486 602 443 636 199 179 316 475 687 75 717 459 863 563 492 645 948 1491 1786 1579 836 1098 1631 1686 1463 1474
416 765 652 403 394 403 356 522 498 606 683 544 162 0 0 11 316 512 429 178 495 401 208 476 643 459 113 48 325 573 553 265 459 836 1253 1202 1554 1170 556 897 1131 1141 1141
455 625 514 335 219 159 112 315 309 312 411 369 44 0 0 5 187 256 219 346 224 317 216 324 749 306 68 35 97 505 243 243 502 913 1171 1815 1755 1808 698 507 500 578 770
268 449 308 178 36 34 0 9 79 132 213 307 315 61 0 45 183 388 399 362 182 252 185 191 1 31 45 41 71 141 103 265 514 808 1154 1149 1518 1361 1358 1212 974 783 814
252 217 119 206 17 3 0 0 0 0 89 118 271 246 59 167 96 494 614 631 330 470 468 569 240 63 63 55 56 56 56 55 298 575 685 835 1273 1562 1480 1248 1060 1171 1234
123 52 0 10 0 0 0 0 0 0 0 3 139 259 186 235 389 524 506 711 582 606 584 745 425 92 108 80 37 37 29 29 48 140 312 395 615 974 1091 1258 1480 1512 1138
4 0 0 0 0 0 0 0 0 0 2 0 118 338 297 339 645 360 526 419 511 804 661 303 154 55 85 38 22 16 30 39 36 65 58 131 222 489 612 799 922 895 1171
0 0 0 0 0 0 0 0 0 0 0 52 72 403 419 557 930 275 348 336 738 521 594 143 59 20 12 9 17 7 0 1 44 54 36 41 80 164 145 305 485 548 525
0 0 0 0 0 0 0 0 0 0 0 28 48 235 377 603 1035 714 393 540 764 583 186 138 70 73 2 0 7 1 5 6 4 6 37 94 79 77 102 119 237 256 273
0 0 0 0 0 0 0 0 0 0 0 7 5 78 208 441 931 943 672 603 601 283 323 364 165 14 0 8 2 0 0 0 0 0 2 44 82 64 63 63 83 120 194
0 0 0 0 0 0 0 0 24 3 17 0 4 6 174 380 596 845 746 444 591 363 524 525 247 0 0 0 0 6 0 0 0 10 0 0 1 38 54 61 100 91 166
0 0 0 0 0 0 0 0 0 15 0 0 0 0 84 279 472 876 787 562 569 669 359 448 416 138 0 0 0 0 0 0 0 0 0 0 0 0 5 9 61 172 177
27 0 0 0 0 0 0 0 0 0 0 0 0 0 3 211 393 665 919 664 588 814 716 355 504 214 3 0 0 0 0 0 0 0 0 0 0 0 0 0 1 85 282

GFSSE_con_sbcape_051.txt.gz
CAPE
324 885 1763 1870 1893 2136 2043 2180 2190 2174 2106 2413 2435 2023 1662 1618 1741 2010 2103 1727 1570 1475 1036 872 1162 1297 1753 1872 1766 1949 1969 2331 2521 2512 2200 2171 2102 2200 1980 1822 1880 1518 1828
215 945 1807 2168 1980 2333 2426 2303 2312 2455 2164 2023 1860 1931 1965 2093 2177 2114 1712 1619 1980 1527 1182 972 1123 1386 1001 1366 1742 1837 2172 2214 2260 2322 2182 2053 2131 1994 2056 1872 1936 1749 1822
643 827 1529 2208 2231 2179 2248 2437 2324 2350 2390 2213 2156 2068 2095 2105 2087 1845 1624 1885 2042 1561 1381 1733 1163 1035 1584 1759 1670 1840 1936 1820 2048 1930 1804 1734 1847 2040 1886 1942 2016 1688 1609
601 573 1312 2275 2272 1848 2181 2460 2573 2205 2175 2226 2129 2099 2018 1961 2072 1838 1671 1416 1620 1857 1522 1396 1426 1408 1375 1392 1583 1392 1570 1938 1899 1922 1600 1622 1662 1800 1869 1892 1830 1786 1635
766 732 1345 2277 1929 2068 2014 2159 2427 2310 2243 1852 1900 1955 1892 1941 1738 1870 1633 1343 1582 1220 1577 1486 1215 1131 1192 1280 1651 1602 1588 1517 1467 1388 1764 1794 1736 1993 1883 1991 1716 1825 1862
887 608 1479 2062 1540 2090 2032 2094 2194 2063 1878 1999 2068 1670 1977 2009 1817 1892 1707 1729 1824 1639 1361 1396 1365 1426 1214 1040 1339 1545 1453 1344 1196 1439 1531 1683 1700 1793 1771 1452 1837 1817 1712
489 896 1393 2154 1968 1935 2011 1840 2160 2018 1855 1936 2017 2020 2152 2130 2024 1873 1978 1892 1906 1665 1341 1300 1279 1213 1206 1307 1136 1577 1749 1110 1241 1483 1619 1723 1868 1972 2021 1950 1866 1867 1755
334 733 1246 1838 1847 1759 2044 1703 2033 2057 1925 2123 2089 2483 2571 1956 2219 2106 1901 1837 1626 1243 1204 996 1184 1310 1211 1400 1524 1673 1319 672 818 1361 1646 1725 1795 2213 1913 1837 1857 1859 1365
377 940 1048 1586 1378 1776 1815 1717 1871 1990 1970 1927 2306 2442 2276 2212 2086 2043 1784 1739 1519 1274 1054 1017 1206 1342 1330 1489 1719 1561 1438 1195 1361 1461 1062 1039 1834 1982 1895 1869 1899 1855 1843
392 1017 932 1656 874 1042 1272 1705 1867 1893 2085 2207 2322 2234 2172 2134 1981 1882 1938 1771 1579 1140 1039 1168 1275 1299 1475 1776 1917 1708 1464 1186 840 952 964 1022 1850 1762 1838 1882 1860 1808 1786
523 1071 660 1405 1105 1411 1241 1427 1281 1792 1957 1996 2152 2262 2079 1877 1641 1345 1761 1606 1340 1407 1299 1061 1219 1461 1613 1650 1689 1563 1095 686 506 753 868 1105 1266 1190 1839 1797 1858 1688 1770
459 1015 627 971 1193 1118 962 1606 1750 1632 1478 1682 1862 1730 1699 1700 1807 1380 1564 1626 1557 1368 1415 1685 1299 1513 1163 1114 1426 1337 916 979 575 606 1030 1367 1739 1476 1469 1771 1679 1666 1618
417 845 964 931 1442 1135 1254 1426 1554 1621 1649 1784 1330 1166 1338 1576 1815 1373 1495 1699 1359 1076 876 1059 1305 899 886 859 1147 1131 1150 1100 849 412 1124 1432 1388 1636 1759 1500 1428 1538 1456
591 828 1144 931 1210 1241 1384 1359 1461 1390 1383 1134 983 854 1253 1331 1560 1747 1205 1391 1470 1158 1364 1323 1244 1341 1166 1197 1074 1161 1184 1059 955 430 1015 1294 991 910 926 1444 1542 1437 1513
362 519 1112 1048 1070 1372 1537 1264 1343 1408 1303 1112 739 297 883 1122 1466 1268 1121 1205 1641 1467 1499 1591 1576 1187 1066 1233 963 1234 1245 1151 906 449 557 1274 1017 659 724 1241 1296 1077 1138
333 570 1020 1078 928 1162 1132 1444 1323 1334 1200 1185 1052 243 350 630 1350 1471 1556 1576 1551 1388 1381 1667 1723 871 618 448 1290 1145 1151 1029 842 581 575 771 917 1014 506 405 499 636 714
425 612 925 973 793 1005 1004 1197 1005 1037 959 973 591 286 290 567 1274 1478 1500 1488 1364 1457 1369 1409 1109 661 392 663 1483 1325 1101 997 489 632 852 1304 1046 1031 1116 649 562 463 562
307 704 824 582 531 639 598 663 611 604 838 1139 1296 1316 877 730 1106 1725 1596 1556 1539 1568 1657 1309 913 491 466 599 963 938 982 734 489 578 605 912 1078 815 1130 1057 992 1130 1089
470 576 788 721 498 408 510 462 356 462 713 901 1029 1140 1394 1060 1117 1561 1772 1702 1778 1808 1688 1544 1439 625 435 356 448 643 535 253 221 207 492 649 840 871 910 1217 1296 1194 960
547 496 599 642 566 556 455 638 324 164 487 790 910 1028 1304 1335 1205 1622 1953 1974 1716 1973 1636 1288 1667 261 775 414 88 262 274 270 174 411 352 236 403 668 661 982 857 734 965
659 603 579 617 658 446 354 331 381 339 508 784 1020 1254 1480 1441 1483 1859 1523 1740 1602 2492 2159 1316 828 610 106 178 160 120 38 44 358 343 493 386 332 427 403 486 715 511 494
582 628 646 590 644 576 332 718 474 797 835 1157 1321 1375 1596 1524 1881 1948 1691 1521 1999 1729 1723 1488 1287 246 95 108 136 95 81 60 84 204 462 539 658 555 449 393 459 687 599
362 492 569 660 652 703 716 631 664 835 827 970 1265 1400 1574 1665 1955 2192 1907 1610 1991 2365 1600 1741 1342 939 62 172 256 78 53 38 68 114 388 605 848 811 702 736 491 546 722
336 330 474 702 736 620 773 772 1210 754 718 863 1204 1391 1629 1722 1829 2252 2335 2001 2006 1879 1970 1846 1561 1048 322 188 229 309 51 159 26 54 206 369 622 770 790 684 504 624 797
181 212 246 703 1058 1070 929 1157 879 1097 797 915 875 1457 1751 1847 1778 1746 2132 2042 1873 1938 2148 1854 2023 1831 563 135 211 615 722 54 25 68 25 155 351 479 660 714 462 571 887
308 128 109 696 971 1121 1039 1153 1580 1663 1264 848 955 893 1082 1325 1529 1713 1831 2046 2030 1872 2120 1975 1991 1906 1154 124 156 566 437 369 170 55 29 201 190 289 407 648 624 558 666

GFSSE_con_sbcape_054.txt.gz
CAPE
794 535 1778 1784 1762 1736 1661 1724 2001 2344 2460 2625 2358 2232 1864 1606 1851 2290 1907 1706 1493 1150 1019 1340 1405 1955 1931 1945 2013 2095 2229 2334 2472 2342 2065 2194 2082 2027 1902 1744 1892 1341 1940
585 539 2175 2318 1910 1965 2152 2090 2053 2126 2136 2134 2022 1754 1856 2168 2369 2033 1646 2092 1634 1370 1118 1374 1442 1142 1719 1900 2127 1503 1786 2206 2041 2227 2303 2292 2203 1789 2192 1596 2207 1818 1927
143 941 1402 2220 2259 2217 2429 2531 2332 2081 2109 2004 1936 2102 2225 2334 2078 1662 1832 2089 1605 1496 1815 1131 1126 1609 1619 1655 1845 1991 2004 2170 2143 2033 1883 1798 1683 1842 2065 1931 1770 1846 1720
137 747 804 2012 2226 2289 2399 2422 2473 2454 2345 2316 2285 2259 2211 2142 2035 1780 1496 1478 1843 1601 1532 1648 1539 1381 1574 1731 1629 1747 1993 2171 2106 1778 1791 1792 1527 1797 1989 1874 1996 1774 1801
184 624 1430 1955 2460 2132 2393 2313 2346 2331 2280 2303 2278 1978 2069 2121 1741 1572 1514 1575 1408 1776 1637 1370 1356 1425 1180 1616 1540 1728 1799 1740 1598 1755 1898 1571 2182 1958 1931 1994 1757 1750 1937
225 542 1799 1846 1856 2056 2234 2315 2283 2275 2059 1985 1957 1829 1959 1962 1812 1681 1656 1811 1647 1415 1558 1496 1508 1191 1131 1402 1593 1462 1519 1375 1490 1583 1608 1573 1559 1917 1702 1896 1928 1878 1722
190 609 1421 2200 2035 1925 2083 2120 2134 1949 2000 2135 2116 2076 1910 1917 1930 2029 1926 1942 1732 1486 1398 1388 1340 1272 1217 1194 1380 1703 1138 1109 1149 1651 1618 1707 1872 2254 2072 2014 2014 2004 1867
253 529 845 1758 1916 2155 1999 2073 2071 1840 2007 2080 2032 1935 2078 2146 2109 1980 1759 1546 1280 1271 1194 1309 1294 1282 1339 1640 1772 1545 951 614 884 1131 1814 1079 2119 2189 2023 2018 2029 1591 1203
313 415 638 1394 1767 1752 1800 2057 2113 1841 1905 1989 2257 2193 2266 2181 2002 1794 1635 1294 1237 1122 1010 1251 1271 1330 1533 1824 1683 1496 1014 1146 1031 998 864 930 2111 2112 2040 2092 1996 2026 1919
289 360 704 734 1545 1078 1370 1984 2135 1998 1828 1753 2013 2315 2221 1996 1500 1013 1780 1497 1146 1095 1050 1094 1260 1465 1483 1914 1864 1390 1347 1337 482 589 834 1127 2134 1944 2022 1980 1837 1903 1920
333 382 870 526 740 1085 1228 1743 1963 2051 2196 2285 2261 2290 2050 1062 884 1228 1681 1376 1285 1077 1032 1095 1205 1553 1706 1701 1682 1372 1561 318 304 494 569 1286 1975 1910 1867 1845 1848 1835 1627
199 246 689 512 737 887 917 1397 1470 1641 1488 1515 1449 1637 1120 1279 1375 1116 1363 1487 1429 1401 1479 1107 1331 1433 1734 1153 1209 1374 667 623 306 509 804 1363 1589 1622 1624 1763 1736 1678 1669
111 139 346 551 864 737 1195 1288 1410 1298 1497 1731 1800 1552 1288 1138 941 1170 1389 1529 1290 1392 1100 1237 1363 970 744 800 928 867 868 731 309 419 1086 1455 1532 1514 1598 1469 1678 1414 1593
67 191 222 559 1005 824 1176 1052 1088 1013 1097 1060 1092 1612 1644 1219 1193 1122 1155 1366 1283 1210 1440 1282 1048 1227 1133 1196 1094 1012 819 608 353 277 1027 1006 1085 870 1312 1529 1489 1535 1541
31 240 231 519 1071 1132 1271 984 894 934 829 716 1071 1237 992 962 1271 1207 1370 1287 1231 1194 1201 1251 1265 1286 1528 1057 960 1063 857 805 528 268 810 1054 781 705 1105 1472 1215 1191 1194
10 189 333 499 855 1139 1226 1338 1236 1159 1159 958 678 776 1428 1034 1482 1500 1353 1332 1296 962 932 997 1230 630 363 459 1145 1063 969 798 651 592 672 767 1146 718 478 482 583 694 706
96 155 432 543 580 1048 1213 1459 1237 1121 991 1063 1013 1056 1029 1337 2043 1642 1651 1752 1381 1672 1554 1329 988 649 137 250 960 1144 984 760 749 756 873 1089 938 1185 939 541 482 453 539
45 164 444 277 290 749 953 1203 827 847 851 839 829 967 1103 1551 1854 1621 1627 1288 1536 1097 548 576 305 139 151 95 405 660 807 575 700 762 773 856 770 1048 909 1012 957 1098 1063
131 274 501 367 269 477 824 852 830 938 1136 1262 1275 1428 1921 1630 1619 1232 1173 1238 1866 789 520 267 115 89 117 72 190 422 460 321 415 311 594 687 806 741 733 1200 1115 991 896
157 379 502 413 392 526 523 738 682 920 1159 1220 1237 1266 1914 1752 1684 1267 1390 1221 1247 755 614 345 380 482 136 93 74 151 230 311 376 373 253 156 280 440 346 720 1017 1067 1093
231 366 566 514 603 595 396 490 718 761 903 1126 1129 1484 1853 1729 1847 1544 1265 1354 945 918 1179 1453 1082 1179 221 265 75 84 159 305 450 328 226 107 339 339 273 400 751 299 873
391 492 617 718 773 803 234 485 508 704 809 1022 1345 1773 1988 1880 2106 1952 1734 1495 947 701 1201 1265 1155 436 273 250 103 64 65 24 40 116 194 272 340 325 344 247 240 521 322
371 611 744 976 1000 872 606 298 669 984 1252 1544 1664 1608 1971 2003 2082 2257 2187 1657 1473 1318 798 1054 1555 830 285 396 756 170 25 61 24 153 399 352 617 512 435 562 361 299 415
283 746 888 1183 1233 1002 920 773 1818 1114 886 742 1175 1017 1442 2094 2034 2194 2383 2129 1665 1131 1415 1077 1543 1023 931 177 370 142 634 551 132 332 207 302 438 470 591 559 470 541 550
197 370 902 1421 1868 1656 1598 1410 855 1469 438 566 802 1534 2013 2439 2205 1990 2446 2382 2220 1235 1428 1627 1639 1643 744 348 48 202 455 81 199 197 173 320 354 344 393 614 425 435 667
380 360 655 1604 2081 1803 1418 921 1853 1994 1421 672 1299 1208 1230 1286 1944 2255 2205 2503 2384 1637 1652 1668 1765 1867 1616 930 153 344 156 208 253 233 135 345 282 309 318 404 478 511 525

GFSSE_con_sbcape_057.txt.gz
CAPE
949 926 1203 1663 1936 2000 1896 2216 2402 2632 2523 2551 2339 2118 1625 1619 2253 1969 1718 1665 1143 1052 1444 1434 2132 2017 2146 2126 2180 2220 2254 2508 2326 2155 2291 2298 2065 2048 1859 1456 2452 1357 1850
738 890 1629 1805 1900 1863 1848 2049 2340 2501 2636 2469 2052 1772 1905 2357 2175 1595 1799 1675 1456 1136 1703 1569 1344 2015 1921 1882 1452 1641 2048 2206 2360 2277 2189 2125 1916 2007 2141 2610 2646 1785 2005
291 1000 1512 2118 2107 2038 2015 2013 2097 2191 2123 2028 2022 2042 2272 2276 1724 1901 1825 1733 1655 1687 1184 1354 1538 1401 1772 1841 1933 1711 2054 2289 2161 1902 1440 1697 1810 2077 1926 2014 1988 1965 1803
191 200 789 2388 2344 2271 2532 2374 2042 2056 2072 2010 2189 2267 2263 2075 1838 1614 1526 1762 1698 1765 1767 1661 1482 1791 1772 1773 1902 2160 2321 2058 1865 1394 1840 1699 1249 1988 1957 1983 1966 1819 1940
100 355 1650 1945 2312 2238 2282 2433 2209 2342 2321 2276 2302 2141 2190 1985 1719 1698 1615 1585 1973 1660 1490 1587 1243 1290 1638 1716 1821 1912 1777 1824 1664 1539 1493 2347 1323 1861 1870 1956 1743 1769 2064
138 596 1758 2105 1982 2145 2196 2292 2232 2106 2263 2262 2058 2116 1917 1906 1741 1682 1804 1593 1434 1681 1632 1486 1203 1269 1381 1511 1377 1545 1490 1569 1889 1844 1743 1492 1509 2111 1977 2143 1892 2019 1653
304 699 1161 2088 2076 2193 2247 2158 2114 2213 2106 1964 1970 2074 2049 1963 1937 1943 2015 1852 1531 1513 1550 1328 1303 1270 1215 1360 1593 1088 1208 1336 1919 1931 1904 1726 1832 2232 2122 1905 1938 1844 1464
145 306 1146 1939 1999 2103 2115 2120 1915 1992 2135 2196 2054 1967 1992 2038 2016 1791 1547 1380 1387 1348 1497 1402 1294 1406 1659 1586 1576 916 1055 1203 1465 1732 1585 1702 1992 2007 1988 1914 1578 1302 1718
197 311 1140 1555 1730 1979 1960 2015 1896 2008 2052 2001 2080 2016 2131 2000 1779 1550 1404 1404 1273 1212 1331 1151 1291 1406 1591 1632 1322 993 944 1659 1576 1525 1010 1463 2041 2038 2056 2007 1941 1942 1763
263 187 800 1270 1053 1215 1785 2077 1942 1931 1962 1868 2099 2161 1908 1442 1038 1060 1912 1614 1197 1071 1203 1267 1457 1507 1765 1756 1166 1079 1578 1578 423 821 1137 1589 2125 1974 1987 1864 1957 1853 1726
99 88 239 660 687 897 1742 1989 1958 1899 1875 2263 2122 1974 2060 851 1199 1072 1688 1321 1168 1119 1074 1126 1437 1475 1719 1663 1410 1349 1487 605 468 493 693 1779 1994 1879 1926 1922 1860 1633 1458
116 138 64 245 498 669 783 1662 1808 1718 1574 1322 826 1880 1840 1679 1766 1080 1305 1463 1329 1238 1127 1173 1400 1436 1730 1228 1430 1673 1079 264 527 470 1025 2147 1876 1827 1855 1727 1655 1684 1682
117 73 98 247 452 503 1033 1127 1017 1273 1516 1580 1286 1231 883 827 849 1055 1231 1382 1379 1542 923 940 1036 1491 1438 1265 1236 601 365 236 442 641 1536 2029 1648 1730 1418 1764 1424 1593 1339
51 47 102 350 536 955 605 874 1739 1063 1129 792 1115 1121 1104 2145 1593 1564 1285 1643 1375 1473 1236 1445 580 1321 1423 755 772 1065 556 308 238 490 946 1585 1460 1244 1559 1620 1660 1667 1554
37 26 136 427 778 1044 2223 1675 1360 811 566 725 1199 1211 1064 1399 1495 1595 1588 1079 982 1034 489 937 1553 1525 476 808 1215 1304 343 470 230 668 526 815 817 1113 1508 1546 1134 1294 1118
29 26 138 397 817 877 1680 1710 1352 865 1078 417 506 916 1102 2097 1853 1995 1184 1448 2142 1966 1826 1729 1960 1051 969 504 857 1175 848 635 889 1076 563 913 910 533 473 574 574 586 621
12 21 180 468 693 979 1451 1033 1205 1533 617 1197 549 1238 1080 1738 1656 2292 1070 1630 1953 1567 1312 841 242 98 81 639 1053 1141 514 1202 653 1010 1342 946 1161 1020 673 536 495 454 530
9 18 285 271 557 822 1029 1250 1040 1384 1081 1446 878 1024 1332 1694 1873 1907 1639 1460 875 1121 1068 514 581 1090 84 795 776 1063 888 601 536 662 1173 1481 1227 1236 1016 1084 1040 967 890
15 92 306 332 438 754 1142 1117 969 1197 1404 1359 1207 1712 1679 1750 1628 1754 1489 1486 1641 1100 933 730 1591 337 59 277 396 566 956 254 904 85 301 832 732 1092 1451 1567 1354 977 787
13 75 312 346 1093 1576 1182 1181 819 895 1095 1803 1308 1922 2128 2014 1437 1861 1797 1066 1585 1434 420 1412 275 1390 521 383 60 157 536 227 106 302 80 131 97 308 1068 1299 1105 791 1352
71 130 443 882 2151 1161 944 865 878 846 1219 1343 1684 1703 1930 2054 1544 1864 2089 1464 1478 1890 587 800 96 500 69 34 36 55 32 15 151 112 84 203 143 226 21 311 718 1291 1043
148 249 1160 1307 2332 1436 952 1465 1275 1441 683 746 790 1880 1687 1523 1916 1572 1648 1425 1494 1435 1352 927 1025 671 198 306 531 417 174 49 97 128 71 65 235 244 286 210 224 241 212
166 419 1341 1964 2259 1867 1686 1320 1422 1459 1309 794 1577 1387 1838 1758 1748 1947 1609 2222 1558 1929 1145 1376 1361 2657 919 50 328 830 268 286 313 46 134 258 444 648 403 524 317 308 399
168 431 1432 1743 2390 1911 2072 981 2104 1037 751 667 1261 1079 1699 1929 1781 1903 1876 1722 2119 2096 2619 1828 1683 2207 2232 367 35 52 1101 405 722 1102 217 237 366 430 602 600 704 520 556
213 485 590 2097 2555 2285 2079 1832 1232 1671 693 647 607 3079 2954 3361 2064 1683 2257 1818 2052 1626 1786 1819 1790 1900 1024 1422 116 79 376 56 817 1089 582 360 368 274 422 769 440 521 970
255 426 898 2333 2883 2804 2509 2039 2504 1802 1802 501 889 1551 979 1700 1919 2287 2047 2817 2112 1903 1970 1976 1949 1709 2681 1573 1206 513 248 453 492 179 104 540 285 346 278 357 513 491 542

GFSSE_con_sbcape_060.txt.gz
CAPE
879 704 1316 1455 1777 1748 2180 2421 2556 2672 2625 2663 2501 2040 1910 2309 1818 2035 1870 1232 1156 1514 1479 2120 2066 2201 2268 2202 2236 2364 2570 2780 2982 2810 2411 2251 2544 2309 2290 2306 2279 1408 1991
656 822 1822 2260 1967 1818 2187 2472 2595 2821 2405 2593 2375 2142 2237 2170 1706 1720 1792 1443 1299 1862 1531 1369 2058 2030 1873 1587 1907 2071 2427 2971 2908 2249 2167 2240 1789 1776 2497 2311 2011 1655 2026
703 1226 1646 2178 1983 2006 1991 2282 2399 2481 2396 2579 2450 2348 2320 1687 2036 1833 1794 1761 1470 1592 1578 1597 1581 1937 1992 1768 1891 2164 2274 2364 1954 1677 2465 1260 1895 2039 2091 2081 1937 1917 1691
725 1152 1210 2320 2605 2078 2080 2206 2344 2216 2136 2245 2463 2371 2294 1863 1714 1652 1614 1703 1956 1929 1847 1737 1707 1650 1779 2037 2215 2369 2098 2028 1545 1700 1789 1120 1270 2063 2029 1844 1928 1675 1349
130 597 1528 2393 2685 2397 2314 2644 2404 2363 2225 2378 2254 2283 2113 2084 2064 1765 1775 1877 1590 1727 1604 1244 1678 1516 1880 1861 1877 1827 1814 1698 1680 2068 1536 1464 1254 1752 1649 1742 1749 1913 1886
373 828 1834 2533 2400 2372 2254 2311 2378 2410 2340 2250 2203 2132 2059 2008 1802 1786 1463 1574 1704 1673 1471 1290 1272 1403 1423 1337 1507 1662 1771 1854 1743 1491 1331 1883 1597 1864 1954 1881 1909 1932 1857
630 947 1429 2573 2290 2407 2124 2567 2300 2313 2231 2024 2218 2423 2201 1858 1916 2036 1949 1484 1703 1515 1261 1309 1279 1253 1282 1493 1025 1287 1550 1938 1857 1704 1611 1654 1902 2450 1817 1939 1378 1608 1884
309 521 1119 1972 2032 2036 2213 2275 2238 2300 2141 2364 2267 2233 2080 2334 2169 1756 1416 1449 1431 1478 1377 1308 1498 1394 1315 1356 922 1012 1189 1686 1563 1715 1547 1538 2090 2330 2008 1440 1500 1708 991
120 686 843 1127 1905 2029 2123 2194 2294 2309 2360 2688 2546 2449 2566 2222 1786 1654 1825 1572 1425 1375 1240 1331 1335 1515 1526 1307 934 1001 1198 2154 1415 1112 1318 1568 2127 2094 1704 2013 1878 1780 1740
138 413 1015 929 1409 1559 1751 2007 2106 2293 2537 1989 2103 2477 2263 1986 1240 1369 2176 1908 1195 1246 1270 1430 1518 1564 1560 1292 1060 1160 1580 1662 799 1240 1402 1801 2254 2034 1833 1985 1920 1616 1771
79 424 449 502 1258 2007 1941 1924 2028 2039 2047 2217 2027 2025 1835 993 1305 1230 1906 1926 1122 1101 1188 1221 1287 1818 1565 1148 1133 1244 1510 1357 463 1086 1261 2172 2164 1945 1876 1840 1483 1542 1336
8 82 188 530 929 1429 868 2091 2138 1795 1702 1573 1533 1310 1805 2033 1717 938 1439 2065 1476 1247 1154 1225 1364 1386 1310 1189 1272 1573 1615 392 528 1056 1488 2331 2275 1849 1705 1591 1621 1671 1461
20 31 272 874 799 1186 1311 1967 1778 1712 1916 1664 2037 956 1724 1911 1645 449 1546 1119 1374 1577 901 1265 1440 1743 1054 1207 1096 1479 1141 642 821 1002 1730 2243 2176 1401 1807 1358 1584 1373 1235
59 12 147 367 1727 976 1196 1627 590 1678 1567 1235 1377 1752 2790 1715 925 130 1071 1622 612 1554 1454 249 1138 962 139 278 1441 752 533 427 424 897 1790 2286 2166 1524 1408 1550 1563 1429 1336
20 45 181 428 1587 1150 1779 1767 1124 627 1216 1419 1400 1884 531 1420 826 778 1118 674 751 1121 523 726 999 1555 452 843 1243 911 684 958 264 331 963 1941 2061 1893 1583 1155 1131 1091 1096
19 159 503 588 1344 1455 1641 1384 639 1339 999 1132 1022 1319 471 1508 1070 1436 1016 1019 235 608 1541 1655 1059 1327 245 863 420 856 516 1061 726 392 450 933 1370 1528 1593 884 675 588 583
34 218 415 591 812 1966 1404 2317 2495 1499 1218 1031 1695 2124 1809 1400 1680 2489 1236 2281 2274 138 2191 1006 1510 1177 886 888 1045 765 1398 1343 1034 1279 542 732 987 1224 1045 835 713 510 526
45 504 233 56 538 1194 1225 2271 822 1562 1245 1797 1883 1789 1931 2513 2642 923 808 210 1210 2463 113 102 1283 640 910 347 828 247 524 1073 1307 1312 1529 1114 1199 859 1263 1249 1117 875 556
317 717 387 885 796 1080 2244 1689 353 1447 1760 699 1754 1695 2608 2554 2499 603 86 490 2387 517 1527 736 1558 1077 52 893 215 313 711 1013 517 753 1408 1802 1719 817 1001 1660 1751 1634 950
330 554 530 1064 1533 1708 2153 2625 1794 1332 1341 2462 2216 1787 2824 2611 2297 2201 1719 2672 2785 583 1390 1973 409 989 1067 210 39 130 112 1024 660 1009 521 989 1263 1449 1353 887 1311 1065 1514
262 360 1100 1539 1943 1432 1624 1531 1131 1306 487 1937 1398 1549 3020 2865 2473 3326 2578 2218 1696 170 625 1915 1459 670 858 467 472 918 589 337 312 1005 624 486 402 1075 1202 1505 1074 1144 673
274 384 1111 1575 1910 1379 1659 1852 2134 958 559 126 1772 1990 2578 2687 2857 2992 2735 2557 1441 860 1729 1934 393 712 1662 954 1050 704 565 377 670 14 841 601 656 476 486 624 1010 1185 1400
338 439 841 1581 1770 1485 2044 1638 2619 2871 2047 912 2115 2354 2733 2914 2770 2698 2867 2639 2405 2072 2359 2006 1311 2207 1602 641 1124 1171 787 129 656 665 339 844 821 400 948 940 844 789 722
425 565 885 1607 2069 1440 2233 1432 2381 1967 2029 1365 2113 1602 2423 3066 2854 3035 2972 2966 2698 897 2396 2441 2123 1913 444 1385 1286 840 988 789 541 463 1191 1066 864 809 967 1467 774 850 1086
472 555 885 1368 2145 1430 1529 2104 1830 2151 1593 2085 1427 1544 2669 3473 3287 2645 2893 3187 2765 2785 2833 2453 2104 2307 2433 1387 1624 1065 1261 1369 1749 900 696 1145 1030 1156 1379 1199 1128 933 1195
346 458 917 1304 1741 1786 1443 1619 2367 1594 2404 2047 2046 1731 2327 2555 2983 3213 2896 3243 3433 2611 2404 2854 3064 2753 2760 2999 1923 2062 913 964 1149 1210 1087 949 1129 977 1118 1263 921 939 1374

GFSSE_con_sbcape_063.txt.gz
CAPE
760 1192 1931 1351 1522 1592 1818 2291 2574 2789 2454 2528 2028 1836 2329 1947 2143 1560 1300 1277 1566 1942 2235 2204 2273 2230 2235 2301 2601 2334 2342 2869 3045 2782 2494 1916 2355 2408 2421 2141 1525 1457 1838
454 983 1893 1951 1763 1972 2157 2361 2451 2540 2356 2340 2046 2421 1990 2092 1900 1677 1693 1382 1946 1892 1643 2149 2140 1750 1792 2093 2335 2542 2483 2689 2969 2672 2008 2026 2042 2175 2548 1797 1607 1748 1692
632 1282 1735 2102 1909 1933 2336 2270 2365 2460 2040 2441 2517 2535 1925 2165 2022 1884 1938 1500 1455 1829 1554 1722 1891 1966 1837 2052 2234 2246 2088 2078 2304 2263 2077 1471 1549 2005 1866 1899 1809 1537 1660
968 1237 1413 2263 2209 1946 2284 2643 2810 2185 2115 2483 2478 2639 2328 1880 1837 1785 1823 1891 1926 2178 1802 1649 1768 1869 1995 2259 2321 2023 1666 1876 2062 2535 957 1058 1243 1825 1788 1659 1123 1238 1695
988 1049 1380 2600 2555 2007 2028 2280 2482 2451 2185 2406 2345 2336 1958 1951 1810 2013 1739 1528 1850 1540 1671 1754 1668 1778 1853 1896 1845 1901 1871 2186 2345 1364 943 904 1142 1554 1884 1734 1661 1688 1520
970 1394 2350 2548 2294 2217 2286 2423 2187 2318 2421 2278 2404 2052 1963 1940 1662 1482 1803 1623 1606 1437 1342 1321 1596 1379 1588 1664 1892 1786 2049 2027 1875 1342 1293 1743 1393 2180 1985 1670 1885 1729 1638
961 1492 1969 2684 2586 2270 2172 2310 2230 2310 2116 2079 2455 1933 1917 1823 1986 1664 1438 1658 1421 1329 1317 1189 1175 1298 1321 1222 1590 1683 1898 2225 1134 1255 1346 1502 1712 2197 1757 1278 1918 1822 797
852 1332 1572 2178 2265 2149 2197 2042 2337 2016 2062 2153 2300 1892 2038 2113 1727 1504 1332 1513 1399 1349 1322 1370 1271 1184 1180 1062 1198 1487 2228 2463 1254 1161 1222 1478 2226 2404 1908 2007 1673 871 1109
591 966 1405 1516 1778 1968 2271 2130 2082 2139 1986 2095 1980 1990 1938 1623 1585 1408 1504 1434 1359 1243 1229 1220 1236 1218 1258 1026 1059 1515 1747 1959 1047 1191 1364 1511 2329 1580 1817 1589 1644 1769 1743
609 731 854 1277 1349 1376 1670 2037 2093 2229 2185 2028 2074 1865 1750 1534 1409 1348 2171 1992 1257 1210 1264 1301 1265 1349 1159 1080 1086 1526 2014 1506 1022 1235 1391 1700 2396 2062 1963 1956 1576 1850 1701
217 203 694 990 970 1184 1357 1716 2174 2107 1891 2045 1984 1683 1305 627 770 1076 1589 1737 1240 1215 1261 1293 1438 1477 1507 1365 1357 1268 1670 799 798 1141 1312 2086 2427 1818 1837 1476 1855 1033 1146
231 209 241 716 951 1059 1385 1423 1362 1436 1564 1476 1296 1054 802 643 380 942 1462 1894 1084 1182 1256 1359 1477 1521 1262 846 826 1114 1303 561 847 1017 1488 2345 2468 1725 1795 1708 1625 1577 1321
92 135 23 622 740 524 1036 1274 1279 1037 1138 721 655 664 699 834 293 668 916 881 728 1188 795 1336 877 363 624 805 926 849 619 394 795 1120 1904 2354 2072 1525 1505 1745 1621 1121 1256
0 32 167 274 592 359 957 1086 1035 967 1073 719 307 533 858 296 2 0 492 884 522 666 373 168 745 833 762 463 224 804 469 760 777 1029 1871 2342 1844 1666 1510 1370 1324 1261 1225
19 53 7 259 342 699 871 432 316 499 769 624 403 135 343 423 45 102 493 234 277 566 571 178 568 461 53 191 382 241 126 258 614 979 1233 2044 2223 1837 1476 1563 1257 1410 1069
17 15 92 59 134 551 191 575 200 212 424 386 210 24 9 288 247 382 274 365 193 66 264 111 585 852 501 387 108 271 37 21 203 579 864 1426 2215 2106 1585 965 1086 906 633
9 15 92 0 80 703 356 463 184 483 469 175 357 234 228 589 25 703 732 420 253 505 1068 247 686 232 243 296 179 351 494 153 50 207 337 491 1047 1900 1552 928 1014 892 497
10 3 11 216 554 589 488 1080 312 225 649 691 617 608 772 1044 401 457 59 309 352 756 215 57 399 135 523 303 440 411 504 670 547 277 295 379 410 397 1264 1396 1295 1181 639
0 0 0 3 209 115 336 572 91 283 510 148 497 743 1010 1250 405 35 0 168 943 49 131 272 150 280 71 77 86 112 128 600 680 479 711 771 478 505 474 1344 1476 1391 773
0 0 9 57 146 181 454 521 202 189 677 1134 898 786 1594 1005 637 522 232 0 270 191 193 1078 83 99 126 61 174 175 143 205 317 384 727 1104 821 500 471 616 1145 1266 1755
0 0 49 193 158 668 802 684 720 539 146 971 858 1332 1451 1091 1436 580 1029 1016 305 6 72 1077 349 501 63 66 51 172 137 106 160 177 164 471 755 770 700 364 701 572 708
20 0 86 325 297 589 555 690 450 638 229 329 953 531 1714 1263 1449 1048 598 1178 757 93 363 284 58 51 591 30 141 180 104 3 84 10 149 104 72 691 912 758 609 441 292
0 37 150 588 351 541 391 430 1168 525 136 115 933 920 1426 1557 1317 1594 1019 1055 284 1031 910 629 411 996 580 279 43 155 126 73 283 151 17 31 4 395 317 324 908 615 632
0 21 417 683 428 449 594 297 616 736 397 278 851 1168 1519 1552 1332 1390 1580 1252 927 363 1074 792 1067 819 109 132 314 33 173 110 105 80 166 275 37 264 160 233 265 136 278
0 0 400 839 534 284 724 304 396 744 974 516 769 1159 1459 1716 1633 1396 1410 1676 1244 634 907 1094 904 1116 1085 1210 619 197 102 30 160 125 110 424 213 105 208 426 255 264 242
21 4 218 938 459 313 369 1043 282 729 693 828 619 1295 1491 1824 1626 2011 1304 1528 1166 1244 1082 1201 1576 1164 1019 1546 1390 991 58 55 169 159 291 185 104 161 381 377 215 412 367

GFSSE_con_sbcape_066.txt.gz
CAPE
383 700 1797 1375 1623 1764 2213 2554 2182 2397 1852 1668 2308 1987 2012 1953 1235 1178 1326 1463 2215 2300 2395 2397 2338 2439 2589 2444 2351 2430 2449 2722 2741 2260 1901 1837 1740 2004 2248 1781 1581 1338 1015
871 1423 2273 1972 1803 1865 2420 2399 2290 2365 1787 1873 2530 1821 2226 1753 1401 1311 2009 2065 1494 2114 2149 2110 1956 2222 2362 2577 2578 2486 2547 2905 3041 2496 2224 2021 1917 1848 1973 1301 1567 1522 584
969 1351 1867 2447 2137 2326 2398 2472 2309 2066 1849 2329 2285 1979 2129 1965 1924 1890 1310 1611 1909 1446 1868 1879 1957 2083 2151 2359 2279 2012 2173 2488 2911 2054 2024 1502 1455 1739 1730 1729 1718 1581 1170
1133 1416 1691 2417 2558 2267 2165 2421 2542 2060 2078 2397 2042 2221 2052 1881 1953 2069 1908 2092 1884 1757 1930 2057 1844 2078 2266 2076 1904 1825 1966 2348 2729 1759 1021 1019 1151 1596 1157 1181 1758 1087 1457
1197 1283 1598 2418 2621 2107 2406 2484 2517 2238 2209 2200 2018 2074 1905 1829 1976 1596 1755 1791 1793 1785 1773 1944 1926 1887 2048 1904 1888 1748 2226 2298 1939 1224 971 991 1381 1685 1923 1920 1640 1384 424
1078 1195 2278 2305 1935 2031 2247 2223 2246 2228 2388 2277 2141 2101 1923 1767 1810 1644 1571 1584 1355 1469 1888 1681 1592 1753 1763 2063 1886 1984 2393 2064 1803 1318 1467 1847 1749 1952 1808 1784 1573 1050 432
1214 1664 2001 2761 2683 2384 2202 2251 2256 2137 2279 2185 2032 1925 1896 1750 1461 1807 1674 1417 1338 1212 1171 1228 1328 1463 1758 1981 1890 1999 2711 1947 1182 1264 1388 1414 1849 2058 1875 1845 1725 711 543
1310 1688 1841 2433 2427 2452 2338 2301 2155 2164 2059 2149 2083 1842 1955 1949 1739 1557 1565 1421 1378 1424 1327 1219 1171 1312 1388 1509 1838 2455 2109 1701 1287 1243 1368 1623 2444 2145 1801 1845 745 1376 1550
1343 1327 1471 1720 1975 2141 2404 2126 2050 2068 2160 2093 1879 2158 1684 1529 1457 1393 1583 1482 1314 1309 1195 1101 1139 1120 1160 1325 1387 2474 1903 1595 998 1244 1482 1684 1997 1408 1520 1208 1591 1621 1130
1000 1193 1171 1326 1364 1611 1846 2097 2099 2029 2063 1971 1864 1618 1660 1684 1446 1556 1974 1858 1337 1293 1223 1208 1322 1338 1282 1151 1341 1881 1995 1513 946 1164 1349 1895 2538 2019 1874 1612 1763 1562 1427
873 935 1094 1088 1084 1179 1415 1805 2251 2129 1982 1906 1725 1474 1565 628 832 855 1457 1746 1353 1358 1321 1284 1389 1349 1574 1335 1262 1418 1437 780 1021 1196 1368 2166 2373 1879 1875 1923 1246 1242 1185
303 711 784 796 929 1123 1574 1492 1297 1455 1295 1185 1076 853 327 312 524 861 1102 1462 1295 1289 1372 1420 1499 1358 1048 672 862 1174 1042 629 870 1100 1445 2443 2234 1751 1370 1338 1120 1418 1358
52 540 578 726 845 934 1278 1037 962 1012 1071 778 517 373 440 271 625 602 822 847 672 1082 797 908 415 459 225 639 676 674 463 723 840 1097 1838 2439 2171 1516 1414 1514 1507 1164 1297
42 178 425 696 547 582 938 876 853 796 806 364 100 346 220 27 17 262 442 561 389 515 329 450 467 618 794 528 289 442 302 588 602 1052 1727 2238 2002 1433 1294 1622 1027 1235 1188
76 5 325 438 294 392 817 607 698 578 652 221 128 253 121 0 0 205 299 202 226 412 154 4 47 319 336 115 290 421 627 652 835 1131 1257 1616 1936 1876 1457 1412 1317 1318 1155
32 0 154 241 148 452 538 316 141 230 429 62 0 50 35 42 0 231 79 129 90 78 251 56 82 492 341 224 49 49 145 447 789 929 896 1349 2190 2049 1455 1287 1073 1116 821
0 0 87 174 333 424 149 198 0 34 162 49 0 0 33 147 100 380 4 85 40 5 191 25 123 462 226 63 195 0 0 4 271 613 716 836 1634 1777 1581 985 971 835 612
0 8 43 296 330 108 114 46 191 146 175 38 71 0 400 52 19 257 88 178 233 475 121 31 205 111 103 108 157 180 50 4 0 182 247 351 528 1041 1731 1568 1373 933 632
0 0 0 79 269 97 654 41 127 163 167 161 137 184 740 297 339 0 1 0 376 119 9 9 126 97 82 87 63 138 173 394 86 109 117 144 129 239 233 1090 1545 1481 728
4 0 0 194 133 73 274 72 0 114 106 93 126 422 781 553 28 40 0 14 10 19 99 359 19 27 29 35 66 63 21 173 313 222 338 404 303 389 176 221 822 887 1448
0 0 0 90 10 170 96 312 82 192 414 544 338 543 648 666 580 427 391 366 79 24 120 91 38 160 36 22 5 38 33 39 113 157 311 478 687 615 334 315 427 632 692
0 0 0 78 14 335 123 193 208 154 138 517 475 919 788 821 780 421 559 543 99 2 375 51 22 70 158 14 17 12 3 0 0 25 41 181 300 726 588 490 366 347 257
0 15 31 98 36 395 161 312 460 103 13 235 429 322 1187 839 1072 596 675 598 113 42 204 90 128 242 68 39 4 92 34 0 17 0 0 0 41 159 579 636 661 456 282
0 0 54 156 77 324 167 204 653 326 46 4 478 558 822 1153 968 1141 803 441 219 168 466 360 833 111 17 35 42 5 14 0 0 0 0 31 0 126 168 58 453 685 433
0 0 236 170 131 220 176 81 255 333 151 1 423 653 806 1123 823 968 1122 776 325 126 366 488 475 739 469 580 224 249 7 1 21 10 43 128 33 0 0 0 0 73 6
0 0 391 201 132 212 226 60 66 316 443 338 276 676 843 1244 958 930 919 966 551 286 529 709 701 605 588 848 637 495 28 18 14 107 12 17 50 3 11 1 34 27 29

GFSSE_con_sbcape_069.txt.gz
CAPE
72 498 1687 1525 1985 2294 2091 2149 1954 1428 1823 2410 1792 2109 1558 1331 1239 1385 1830 2339 2139 2362 2345 2425 2386 2195 2022 2216 2209 2315 2285 2120 2048 2163 2019 1927 1828 1905 1848 1731 981 752 1456
56 904 1989 1926 1914 2312 2483 2163 2096 1543 2026 2428 1958 2448 1533 1271 1474 2251 1572 1627 2237 2223 2127 2245 2365 2436 2273 2200 2299 2577 2365 2220 2097 2334 2176 1831 1900 1427 1231 1617 949 518 1316
493 1375 1879 2437 2081 2282 2499 2296 2103 1662 2253 2152 2025 2018 1795 1985 1622 1720 1584 1490 1878 2044 1870 1990 2187 2366 2505 2333 2418 2303 2373 2354 2263 2225 2072 1370 1236 1820 1607 1799 1082 719 293
979 1358 1791 2581 2647 2430 2427 2354 2028 1917 2503 2003 2213 2134 2007 2163 1817 1635 1905 1805 1591 1829 1943 1972 1981 2211 2158 2011 2033 1788 2316 2297 1956 1794 970 980 974 951 1635 1544 1049 1686 1506
1121 1374 1586 2323 2523 2328 2299 2283 2143 2060 2396 1953 2315 1884 1923 1938 1980 1870 1879 1704 1672 1576 1732 1863 1986 2115 1986 1922 1873 1871 2212 2073 1894 1289 1058 1142 966 1540 1657 1784 588 808 1441
1152 1242 2096 2090 2021 2272 2355 2253 2211 2103 2134 1960 2026 1927 1869 1852 1440 1770 1467 1529 1703 1554 1682 1677 1742 1859 1959 1874 1795 2050 2311 2068 1759 1379 1675 1978 1641 1611 1627 1581 504 481 805
1013 1453 1669 2405 2175 2322 2278 2272 2173 2111 2097 1994 1753 1846 1616 1861 1746 1682 1504 1323 1202 1289 1337 1361 1667 1852 1785 1708 1891 2136 2238 1952 1169 1315 1354 1532 1639 2291 1823 1604 601 382 417
1358 1605 1891 2236 1997 1961 1965 2115 2114 1983 1981 1985 1791 1869 1801 1459 1700 1529 1498 1377 1315 1112 1104 1406 1511 1722 1820 1847 2498 2212 2167 1848 1359 1279 1417 1639 1814 2029 2068 829 1511 1373 1434
1467 1475 1649 1822 1941 1969 2068 2070 2076 2003 2017 1885 1759 1807 1758 1714 1518 1622 1420 1354 1163 1188 1170 1212 1296 1492 1628 1723 1873 2164 1800 1674 1054 1277 1683 1450 2319 2141 1126 1387 1537 1057 829
1215 1249 1295 1509 1604 1649 1784 2028 2046 2053 2112 1815 1823 1517 1581 1326 1504 1624 1821 1737 1285 1147 1253 1307 1366 1481 1294 1622 1905 1993 1688 1603 948 1167 1280 1542 2209 1625 1931 1890 1673 1590 970
1062 1016 1052 1125 1308 1408 1486 1613 1736 1979 1788 1637 1496 1722 1342 539 947 1047 1504 1497 1397 1308 1127 1209 1178 1322 1438 1414 1722 2084 1610 882 963 1125 1347 2191 2327 1945 1618 1657 1564 1273 1308
776 969 889 895 1054 1222 1678 1625 1412 1413 1283 1206 945 476 363 478 452 832 1305 1419 1366 1385 1413 1476 1235 1545 1084 663 1032 1564 561 751 907 1058 1338 2146 2244 1512 1754 1105 1166 1482 1272
683 1038 720 752 904 1117 1297 1103 974 985 907 839 573 301 355 284 677 696 738 656 660 1058 809 685 850 520 390 701 521 763 467 644 795 1088 1612 2240 2104 1645 1555 1573 1362 1176 1350
415 603 648 735 784 732 1005 925 793 880 774 385 246 166 187 171 248 392 421 363 422 347 341 300 209 529 673 381 257 263 511 593 642 984 1559 2070 2029 1346 1594 1546 989 1169 1074
227 392 538 617 447 489 905 671 665 602 712 352 60 282 75 21 36 118 334 444 215 367 224 36 56 252 161 217 269 213 442 516 718 954 1165 1443 2086 1492 1221 1269 1170 1165 1092
86 166 370 399 201 334 609 457 528 418 535 182 99 177 44 0 11 209 187 125 128 62 350 78 56 233 434 282 144 259 458 495 729 897 881 1013 1521 1650 1442 1432 1148 1309 868
35 3 293 209 133 364 546 377 249 198 303 115 74 21 52 0 6 133 19 23 26 19 244 88 25 351 505 117 95 70 142 343 607 740 743 790 1217 1612 1423 1062 991 940 713
40 26 123 345 243 287 222 196 87 57 143 64 20 0 167 127 115 322 0 39 89 141 156 143 25 214 111 46 49 2 0 38 181 368 367 439 638 1121 1547 1663 1385 892 592
35 61 107 255 238 171 120 76 125 47 116 42 33 25 240 77 119 257 39 67 110 215 214 23 109 28 56 75 104 99 29 13 0 11 111 98 117 266 142 668 1790 1495 716
19 60 104 178 204 94 268 0 25 159 48 71 85 94 538 261 261 2 0 52 54 29 40 45 20 18 10 29 82 90 44 125 210 28 41 50 37 34 32 26 98 762 1195
50 31 51 168 46 123 73 10 67 222 107 105 88 281 485 406 56 0 0 39 0 5 101 54 17 41 4 0 5 0 0 0 60 172 102 218 354 355 297 212 73 232 397
43 35 75 129 0 113 77 115 89 136 224 279 173 331 384 553 523 270 289 468 0 12 35 28 15 75 16 0 4 0 0 0 0 4 3 76 276 420 537 427 321 324 269
0 0 82 54 0 85 84 125 87 54 79 404 341 542 832 592 650 564 417 480 145 2 26 0 31 40 16 8 0 16 17 0 0 0 0 0 6 15 292 477 477 392 220
0 0 29 0 0 96 63 180 207 177 135 127 424 194 866 864 953 568 553 289 113 38 160 254 348 45 4 19 6 0 0 0 0 0 0 0 0 0 0 74 341 504 551
0 0 0 0 0 85 52 103 222 134 52 0 236 309 498 913 804 1022 667 375 205 48 105 234 362 285 162 101 56 83 0 0 0 0 0 0 0 0 0 14 26 41 198
0 0 0 0 0 48 69 31 133 249 167 74 56 236 389 653 833 626 848 641 338 69 203 247 235 457 510 570 203 180 28 0 0 16 0 0 0 0 0 0 1 3 3

GFSSE_con_sbcape_072.txt.gz
CAPE
23 541 1631 1773 2187 2074 2037 1662 1521 2125 2073 1757 1760 1575 1467 1439 1630 2140 2292 2112 2495 2487 2422 2396 2614 2062 2037 2066 2204 1888 2025 2268 2193 1949 1904 1942 1974 1907 1161 1124 1444 420 1197
58 808 1800 1984 2334 2109 2160 1916 1550 2262 2282 2085 2325 1311 1272 1323 1410 1485 2064 2293 2176 2228 2274 2314 2153 1851 1664 1886 2418 2255 2294 2206 2199 1986 1733 1919 1325 1432 1656 655 1267 1314 1072
458 1223 1825 2393 2327 2477 2109 2011 1575 2316 2148 2135 2078 1851 1695 1680 2302 1912 1433 2111 2099 1993 2069 2170 2263 2217 2233 2162 2354 2220 2132 2187 2300 1849 1871 1377 1552 1586 1203 819 390 290 254
831 1363 1776 2527 2624 2422 2250 2071 1707 2214 2107 2151 2119 2090 2224 1744 1548 2050 1838 1551 1802 1926 1915 1820 2044 2120 2272 2273 2069 2295 2166 2058 1932 1772 1212 866 1047 1533 1193 1540 1402 1241 975
1133 1313 1591 2248 2596 2277 2194 2056 1894 2260 1918 2172 2104 2011 2081 2054 1889 1816 1758 1679 1502 1709 1911 1996 1958 2105 1976 1895 1942 2161 2186 2106 1967 1449 1196 1110 1232 1632 1247 534 1237 1535 1119
1137 1242 2158 2268 2227 2230 2174 2071 2050 2244 1864 2073 1873 1861 1735 1605 1859 1574 1778 1572 1643 1634 1730 1817 1989 1872 1900 1989 2037 2279 2102 2033 1813 1734 1973 2201 1734 1343 1670 394 679 1363 1327
964 1264 1675 2404 2230 2270 2254 2159 1936 2019 1989 2008 1899 1846 1683 1567 1647 1530 1373 1542 1545 1420 1546 1508 1842 1788 1888 1849 2303 2324 2085 2010 1546 1629 1608 1631 2058 2068 1122 641 376 453 530
1091 1271 1493 1946 2191 2205 2175 2150 1858 1998 1843 1809 1666 1755 1507 1724 1511 1327 1298 1067 1042 1250 1469 1724 1621 1798 1956 2059 2344 2308 2044 1983 1465 1551 1661 1427 2129 1898 903 1629 1328 1548 1381
1283 1419 1470 1388 1584 1906 1955 1877 1821 1921 1785 1722 1857 1760 1606 1475 1478 1475 1451 1254 1115 1117 1424 1524 1753 1916 2023 2068 2121 2036 1911 1788 1355 1708 1841 1883 2324 1238 1336 1641 989 778 752
1133 1239 1312 1331 1188 1296 1578 1815 1910 1843 1847 1688 1694 1531 1470 1306 1250 1459 1500 1679 1187 1193 1417 1548 1732 1621 1979 2135 2046 1952 1717 1652 1265 1473 1216 1582 2035 1835 1954 1741 1648 959 956
972 895 924 1117 1133 1235 1306 1584 1806 2041 1553 1657 1419 1440 990 692 1119 1192 1485 1408 1241 1261 1446 1592 1608 1620 1768 1773 2189 2023 1586 1075 1194 1315 1694 2007 2123 1524 1914 1807 1425 1201 1085
599 780 760 886 969 1148 1663 1056 1044 1255 1045 1043 774 384 406 496 593 1069 1464 1475 1335 1179 1178 1191 1337 1763 1165 993 1701 1897 901 1041 1155 1308 1625 1888 2145 1860 1454 861 1299 1323 1143
379 896 596 674 807 1002 1166 946 882 834 792 695 354 229 312 306 628 703 698 667 907 1290 1382 1005 791 738 754 1012 832 973 762 931 1041 1311 1654 1947 1836 1411 1332 1529 1099 1140 1207
198 657 493 535 666 725 893 825 685 713 553 357 244 170 260 286 384 435 508 547 601 521 644 590 539 796 937 599 543 728 700 805 889 1210 1632 2019 1823 1313 1439 1363 906 1016 965
223 422 414 437 467 561 778 522 510 603 526 211 111 189 147 141 179 182 325 482 337 539 385 162 419 508 469 556 506 590 658 725 874 1179 1503 1516 1646 1204 1241 1240 984 1070 989
157 198 262 348 217 348 549 405 381 338 495 296 111 226 105 0 46 217 375 369 361 201 448 261 322 406 736 454 587 504 646 717 940 1098 1254 1314 1521 1720 1401 1358 1138 1198 961
51 103 203 207 68 224 376 282 187 226 371 253 123 106 189 5 57 226 200 171 156 145 407 388 238 541 579 329 414 451 598 649 829 1008 1046 1155 1298 1511 1521 1318 1005 994 827
0 2 146 372 88 152 243 186 142 121 170 141 44 0 99 171 81 219 163 126 154 248 367 493 205 557 361 280 276 151 202 309 603 773 742 735 858 1237 1458 1772 1447 990 745
8 0 105 153 93 133 145 108 76 24 29 48 23 0 106 295 220 162 59 170 324 518 380 144 272 260 297 326 342 273 178 146 133 129 318 397 402 677 497 487 1116 1521 878
19 24 49 107 94 47 75 10 23 23 0 0 36 36 215 225 153 119 77 213 435 222 112 74 156 59 189 252 292 451 319 361 375 197 96 114 112 183 194 191 230 304 954
22 22 17 64 61 44 68 0 0 116 0 57 63 156 476 340 305 0 23 157 83 108 136 175 47 180 132 21 205 237 173 116 169 403 381 312 399 515 517 542 523 457 474
19 19 0 8 0 77 129 0 23 33 97 116 57 200 496 513 76 35 20 443 29 91 138 85 57 217 92 7 127 24 166 20 0 0 112 258 363 514 789 877 829 799 731
1 6 0 0 0 56 37 0 7 30 91 227 179 215 611 530 584 216 365 461 5 37 56 24 47 119 84 28 20 188 189 78 0 0 0 0 67 136 289 590 869 904 866
0 0 6 3 0 1 7 72 68 107 172 194 241 209 645 601 783 765 240 298 180 32 150 101 308 117 22 75 99 11 11 7 84 177 0 1 9 24 79 159 398 686 926
0 0 0 0 0 0 15 93 58 56 70 49 153 201 336 711 765 699 507 338 289 150 274 545 582 320 262 74 172 329 30 7 0 7 159 106 119 131 115 166 362 441 476
0 0 0 0 0 0 0 9 61 74 36 34 89 210 224 449 762 722 830 717 375 286 349 348 446 593 783 743 362 425 268 81 77 153 77 85 69 339 72 133 190 250 270

GFSSE_con_sbcape_078.txt.gz
CAPE
1229 1134 2110 2038 1625 1818 2001 1924 1858 1803 1764 1744 1723 1748 2080 2437 2184 2174 2620 2274 2641 2868 2964 2943 2916 3034 2384 2253 2163 2069 2226 1888 1843 1874 1619 1499 1538 1496 1339 1475 2030 1376 1382
1224 1207 2407 2411 1731 1657 1928 2067 1856 2041 1679 1520 1460 1405 1477 2089 2407 2077 2175 2293 2421 2514 2017 2106 2422 2411 2365 2313 2191 2097 2011 1956 2448 1778 1761 927 1622 1564 1665 1620 1696 1004 546
1001 1255 2014 2502 2159 1583 1868 2447 1978 2406 1824 1432 1423 1906 2172 1490 1939 2223 2159 2204 2259 2251 2337 2048 2298 2360 2366 2188 2192 2012 2157 2157 2004 1849 1832 563 663 469 368 394 332 601 763
883 1130 1589 2587 2452 1664 1867 2428 1864 2315 1998 2242 2146 1665 1771 1841 1455 1992 2015 1952 2106 2194 2233 2189 2138 2015 2221 2332 2416 2260 2092 1945 1693 1215 897 340 1567 1688 1664 1466 1505 1507 761
914 993 2079 2656 2321 1844 1877 2444 1894 2251 2049 1740 1762 1844 1561 1609 1599 1765 1740 1873 2064 1926 2099 2259 2180 1878 2038 2163 2225 2140 2098 1559 1632 1246 1715 1100 141 1669 1583 1542 655 613 1459
883 1044 2004 2439 2270 2107 1930 2240 1864 2122 1884 1812 1814 1828 1661 1760 1762 1776 1747 1857 2031 2135 2210 2082 1838 1734 2037 2359 2204 2203 2085 1812 2400 1340 1311 1550 227 955 1675 1175 604 1302 1519
863 1215 1614 2677 2240 2154 2012 2010 1767 1966 1856 1645 1662 1661 1546 1642 1649 1665 1628 1820 1858 1998 1917 1933 1917 2054 2570 2394 2158 2157 2118 1797 1071 1277 1662 1230 612 961 673 1006 1577 1510 1109
966 1168 1501 2271 2155 2088 1916 1897 1908 1787 1538 1621 1645 1530 1538 1475 1345 1221 1540 1572 1780 1888 1874 1905 2023 2297 2507 2368 2168 2263 1965 1476 1034 1737 1752 781 1817 1876 1706 1856 1612 971 1179
938 1078 1317 1614 2095 2031 1889 1778 1828 1757 1685 1444 1638 1561 1385 1492 1506 1379 1004 1642 1867 1900 1873 2108 2308 2370 2477 2328 2146 2113 1765 1481 1109 1437 1223 576 1941 1698 1212 663 803 1102 1162
939 936 1118 1280 1595 1450 1541 1652 1756 1617 1493 1368 1558 1411 1471 1230 1250 1143 1906 1947 1779 1858 1910 2102 2057 2265 2297 2093 1961 1892 1722 1853 682 848 864 1848 1874 1802 1718 1136 955 741 1395
866 705 546 669 1086 1558 1381 1698 1596 1612 1458 1562 1416 1417 1409 767 996 995 1721 1631 1827 1890 1826 2036 1983 1972 2204 2323 2011 1656 1888 801 744 1113 1373 2137 1906 1642 1702 1267 1704 1057 691
611 571 783 1074 1336 1362 929 1335 1403 1221 1361 1166 1128 1211 727 887 1195 902 1410 1512 1704 1703 1705 1913 1875 1430 1771 1495 1839 1765 624 908 769 770 1810 2269 1900 1106 1003 1572 1060 1000 819
444 434 714 1259 1266 1029 1486 966 717 840 1207 1291 1331 981 812 750 991 633 1159 1418 1462 1713 1478 1796 1630 1459 1751 1586 1183 722 714 515 684 718 1217 1915 1571 1516 1721 934 1044 1187 1283
352 439 632 1181 1141 905 586 752 679 645 565 645 1035 1084 1098 613 782 874 1001 1332 1259 1270 1566 1399 1510 1943 1962 1875 1635 1218 442 240 529 695 1149 1746 1431 1387 1645 882 997 924 903
248 482 712 1013 1284 923 750 866 720 569 412 573 700 962 676 675 1075 1084 1369 1274 1409 1435 1389 1528 1732 1998 1975 1714 1625 1491 935 411 479 653 1044 1213 1478 1272 1187 1139 963 1086 842
167 464 745 930 1183 1011 1109 1220 1015 755 891 710 731 899 1016 657 1005 1193 1362 1349 1476 1374 1432 1573 1897 1833 1519 1689 1718 1564 1145 899 979 1075 1192 1315 1389 1713 1518 1425 1373 965 985
214 458 663 736 840 1075 1248 1392 1013 927 950 1085 1211 1644 1443 1018 1493 1367 1245 1316 1446 1725 1834 1776 1556 1558 1261 1240 1579 1456 1234 1007 1066 1115 914 996 1332 1089 1450 1494 1250 1019 973
141 552 656 397 479 871 1172 1353 1012 951 1142 1201 1242 1384 1736 1805 1679 1588 1248 1137 1399 1442 1496 1391 1413 1105 1065 1019 1056 945 965 922 1109 1102 968 959 801 766 1271 1434 1783 1733 1335
143 530 717 655 399 559 1109 1100 1140 1399 1149 1223 1239 1211 1695 1718 1774 1662 1394 1311 1648 1422 1180 1156 1258 1108 1015 873 811 900 944 980 1085 842 1127 1190 1018 878 758 1269 845 985 1051
75 328 589 721 579 617 901 1044 931 1006 1045 1193 1193 1263 1496 1648 1900 1649 1260 1548 1798 1289 1030 1218 1440 1280 1026 950 622 660 638 712 941 894 946 921 1035 1245 1091 1340 1362 1009 1203
0 184 528 762 815 956 978 766 720 876 985 1047 1220 1590 1609 1661 1733 1893 1332 1784 1750 1369 1680 1544 1575 1523 640 956 428 369 316 559 575 554 635 671 941 1030 1136 1320 1649 1268 1214
0 162 563 842 991 1094 801 722 793 951 966 1042 1275 1635 1458 1697 2080 1712 1510 1539 1718 1291 1786 1778 1660 748 404 708 773 664 225 479 346 268 320 436 646 734 794 1006 1269 1544 1711
0 142 555 906 994 873 831 1252 1713 1568 1684 1433 1407 1529 1631 1744 1819 1903 1648 1500 1964 1938 1088 1999 1612 1656 481 1082 1518 1198 930 382 635 434 791 366 774 572 754 984 1057 1371 1790
120 97 505 1001 1010 1042 1389 1317 1488 1139 771 866 1144 1127 1570 1835 1724 1729 1858 1995 2150 1325 1508 1681 1344 1677 1877 567 866 621 1424 1448 749 540 588 447 483 483 763 783 855 1088 1450
313 301 474 996 1427 1004 1444 1407 1447 1508 959 1048 978 1900 1893 2295 1477 1561 1804 2019 2145 1804 2176 1681 1757 1996 1089 831 347 562 1197 859 1451 1146 469 251 341 481 794 962 954 998 1408
486 476 577 1044 1431 1669 1655 1768 1713 1434 1361 927 1082 1503 1485 1566 1757 1886 1523 1805 2006 1688 2190 1925 1630 2056 2029 1879 1093 906 576 669 868 1015 785 834 760 973 1108 1188 1204 1465 1712

GFSSE_con_sbcape_081.txt.gz
CAPE
1183 1108 2063 1768 1992 2292 2053 1963 1901 1836 1815 1844 1937 2263 2363 2187 2259 2622 2632 2784 3102 3174 2907 2991 2943 2773 2150 2111 2252 2079 1682 1844 2193 1663 1724 1145 1331 1214 1533 1213 1823 208 1243
1025 1017 2462 1992 1882 2105 1788 1786 1828 1746 1693 1554 1502 1622 2208 2357 2169 2237 2289 2481 2354 2727 2335 2852 2474 2384 2183 2228 2093 2155 1894 2234 1712 1422 1909 1554 1572 1500 1049 962 1109 603 1502
910 950 1504 2247 1586 2075 2276 1917 2047 1559 1355 1406 1685 1604 1496 2093 2269 2249 2262 2369 2453 2368 2246 2233 2272 2254 2194 2282 2209 2090 1791 2144 1734 1505 2322 12 108 417 323 584 768 1205 1438
833 748 922 2385 1923 1950 2420 1902 2173 2022 2054 1836 1713 1879 1846 1490 2138 2142 2085 2347 2370 2387 2299 2126 2033 2375 2122 2346 2239 2064 1647 1466 943 1243 1122 1130 1135 1611 1598 1483 953 1292 1424
928 697 1404 2460 1861 1861 2230 1891 1941 2057 1881 1816 1863 1650 1858 1730 1884 1857 2053 2220 2229 2225 2177 1986 2061 2298 2185 2028 2055 1780 1333 910 1291 1330 213 310 1222 1536 1355 675 1056 1316 1331
812 1275 2084 2201 1757 1929 1990 1893 1952 1994 1802 1937 1909 1837 1937 1957 1919 1893 2068 2199 2159 2332 2159 1796 1868 2098 2231 2019 2001 1829 1731 1780 2234 1157 233 170 738 1624 648 1225 1449 1236 1262
839 1218 1875 2480 2080 1922 2030 1883 1922 1975 1617 1851 1847 1754 1896 1716 1852 1845 1957 2102 2219 2025 2031 2058 2056 2345 2178 2072 2070 2098 2070 2090 1594 1387 342 289 396 1142 1576 1540 1229 1277 1084
702 772 1171 1932 2114 1953 1827 1865 1905 1636 1654 1621 1747 1658 1699 1609 1741 1831 1893 1906 2084 2036 1910 2011 2356 2457 2193 2187 2267 2071 1876 1904 1218 940 485 1611 1694 1560 1570 1152 1115 994 1210
882 743 1156 1511 1870 1810 1944 1871 1746 1660 1675 1762 1570 1414 1686 1641 1347 1576 1812 1958 1983 1902 2144 2270 2513 2426 2161 2073 1953 1658 1673 1934 1211 950 537 1195 1838 1360 713 965 1253 1297 1424
522 574 1226 1110 977 1279 1486 1738 1639 1671 1473 1530 1437 1648 1532 1458 1492 1526 2218 1950 1814 1842 2068 2005 2211 2363 2080 1942 1759 1661 1957 2174 974 612 1376 1531 2249 1508 1213 965 547 1193 1271
496 579 966 946 1156 1770 1454 1550 1638 1353 1498 1536 1209 1405 1721 1371 1240 1216 2291 2003 2023 2089 2132 2093 2181 2402 2289 2177 1965 1960 2035 1195 830 852 1031 1908 2055 1331 1326 1622 1138 901 799
295 232 500 1050 963 1350 529 1475 1156 1066 1093 1216 1407 1675 1704 1325 904 755 1788 1933 1942 2054 2176 2115 2069 2328 2453 1902 1715 2123 856 552 718 1271 1341 2324 1360 1077 1282 1050 1167 1056 702
292 597 932 1409 1859 1044 875 1252 1190 843 1177 1388 1726 855 530 831 685 813 1506 1577 1847 1998 1777 2032 1840 1831 1312 1212 577 458 553 589 660 423 1834 2041 1532 1391 1099 885 921 1221 1041
272 402 1028 1013 1017 620 634 1054 428 645 587 696 564 702 798 579 825 2041 1407 1018 1425 1935 1566 1752 1601 1791 1658 1231 732 411 276 435 677 478 1470 1477 1254 1651 1349 712 881 744 819
239 330 776 781 1026 701 1793 423 500 234 476 489 794 700 1220 1370 1831 1818 1808 1449 1592 1673 1298 1810 2347 2000 1804 1307 1106 815 294 441 547 790 361 1409 1323 1024 1049 983 793 1000 1003
216 411 714 717 775 766 1819 1277 934 814 355 501 566 813 1010 1292 2144 1692 1999 2264 2095 2681 2113 2520 1743 3057 2165 1292 1553 1011 817 894 1107 1349 1395 1151 1948 1476 1172 1262 1220 888 750
221 452 665 655 711 1166 1027 840 871 653 869 566 769 1234 1231 1312 1847 2618 1607 1459 1965 1744 2024 1698 1831 2119 1530 1072 1486 1033 933 1006 911 912 1074 1429 1398 1450 1144 1111 1078 951 899
160 505 640 335 531 895 1076 2018 1344 1268 1001 1971 776 911 1334 1682 1484 2123 1752 1652 1288 2502 1948 2252 2782 2276 1085 1570 1021 1345 701 830 858 760 722 984 693 1355 1513 1440 1390 1447 1374
197 551 578 477 387 877 1246 1095 1406 1877 1560 2347 1677 1640 1526 1725 1699 2373 1705 1565 1878 1658 1327 1273 1713 1359 1271 1237 878 687 573 676 1083 584 859 773 593 782 933 1968 1614 1400 1228
167 514 645 495 452 974 1185 1166 1129 800 1553 1554 2059 1748 1749 2025 1909 2201 1382 1375 1858 1516 1395 1543 2858 1729 1054 1151 433 389 486 400 387 559 828 840 793 1088 974 1068 1581 1505 1677
114 351 691 681 953 853 1018 781 481 532 877 1222 1619 1583 1574 1603 1833 1887 1951 1598 1636 1838 1754 1403 1526 1334 1474 377 1659 543 231 387 541 299 490 529 706 868 670 1106 1491 1256 1528
47 224 655 824 1044 1008 962 1256 421 1501 330 1568 1676 1530 1557 1747 1984 1737 1887 2123 1925 1525 1725 1575 2210 2151 108 1282 1040 1249 892 404 242 314 297 287 544 538 619 981 826 1262 1630
4 111 565 984 1191 1240 1217 836 1245 1646 1447 723 1581 1307 1643 1508 1719 1894 1783 2336 1838 2181 1574 1760 1487 1479 1750 478 1777 1037 1233 1021 908 534 588 393 483 524 622 789 841 1306 1574
0 146 540 992 1244 1093 1189 1919 2803 1252 612 799 1347 1902 2231 1697 1611 1667 1776 1833 2061 1721 1883 1709 874 2401 2451 1480 634 1224 1317 1579 1857 1090 299 264 357 605 675 849 986 1008 1276
28 181 624 1118 1756 1986 1859 2433 1722 2138 1419 1380 1446 2436 2106 2311 1627 1350 1914 1938 2022 2105 2417 1675 1703 1796 1795 1303 1049 657 790 372 676 1261 383 227 309 493 804 1106 848 966 1403
156 100 438 1376 2183 1730 1533 1824 2122 1662 1927 2082 1268 1388 1802 1695 1541 1735 1596 1976 1954 1884 2141 1990 1872 1934 2019 2911 2106 1128 1120 700 1312 1688 771 995 683 904 992 1057 1098 1216 1380

GFSSE_con_sbcape_084.txt.gz
CAPE
1168 1276 2268 2309 1961 2274 2115 2121 2116 2171 2021 1957 2239 2273 2232 2520 2749 2964 3047 3212 3194 3169 3218 3102 2774 2294 2257 2093 1738 1832 1555 1896 1831 1804 1706 1611 1618 1858 1572 1666 1505 1092 1716
943 1407 2351 2330 2383 2047 2107 2062 1861 1785 1571 1597 1634 2263 2149 2178 2207 2693 2783 2952 2870 3046 3068 2435 2318 2285 2148 2156 1728 1820 1787 1991 2602 1819 1524 1332 1118 795 1299 897 1635 1292 1284
828 1042 1601 2546 2460 2057 2165 2177 1782 1348 1339 1742 1392 1606 2152 2149 2180 2654 2629 2266 2316 2492 2255 2279 2258 2269 2304 1965 1827 1758 1690 1861 1759 2395 730 46 306 1014 918 1169 1552 1479 907
429 382 777 2239 2402 2335 2215 1874 2353 2021 1859 1830 1767 1913 1666 2088 1900 2369 2195 2333 2267 2444 2363 2367 2329 2303 2116 2100 1810 1536 1505 1303 1648 992 840 636 1031 1444 1292 1237 1215 1297 914
394 596 1220 2327 2307 2349 2468 2196 2135 2020 1817 2073 1878 1823 2168 2177 1989 2081 2202 2235 2214 2403 2126 2306 2372 2046 1840 1788 1320 1487 1527 1504 1826 506 414 1108 883 1156 973 1373 1096 1319 1394
455 829 1974 2197 2083 1980 2227 2018 1995 2137 1899 2174 2069 2005 2255 2315 2033 2159 2132 2240 2352 1992 1991 1819 2200 2176 1771 1688 1786 1886 2102 2065 1315 94 78 1382 899 1004 1612 1194 989 1137 1383
508 686 1514 2375 2333 2155 2162 1800 1758 1825 1716 1867 1784 2070 1954 1953 1991 2133 2244 2289 2109 2012 2149 2004 2282 1948 1840 1917 1973 2024 2094 1628 1337 288 171 409 1170 1705 1489 1415 1028 1333 795
640 762 1189 1950 1921 1900 2011 1906 1798 1611 1724 1976 2199 2001 2037 2067 1982 2225 2096 2095 1956 1992 2024 2385 2185 1950 1948 1905 1976 1903 1875 2435 734 1369 1358 1276 1857 1691 916 1229 1133 1280 830
590 743 863 1337 1874 1944 1904 1759 1613 1914 1779 1771 1539 1919 1988 1979 1881 2001 2276 1958 1914 2058 2195 2343 2152 2012 1952 1851 1753 1693 1780 2574 889 1012 1135 1152 1879 942 1095 1250 1493 1262 839
407 552 1029 1366 1242 1144 1440 1633 1582 1539 1678 1412 1655 1617 1951 1750 1650 1923 2488 2513 2069 1987 2034 2351 2219 1964 1894 1793 1614 1667 2051 2247 902 1213 1283 1676 2038 1296 855 552 801 1008 741
604 625 794 1009 1180 1738 1593 1584 1518 1386 1397 1465 1505 1352 1598 1467 1347 1389 2337 2328 1894 2468 2022 2254 2349 2090 1889 1911 2362 2136 1995 1889 751 1103 1431 2089 1852 1347 1705 1009 853 733 320
615 744 776 1031 1102 1190 525 1662 1712 1526 1534 1483 1288 1479 1443 1777 1192 1142 1954 2338 2052 2593 2245 2494 2583 1495 2378 1671 1953 2259 1957 923 1226 1148 1769 1873 1545 1192 990 1188 1241 835 507
475 1056 884 1227 1421 1095 1328 1466 1294 1476 1345 1497 1758 1816 1758 801 1032 1263 1872 1820 2133 2000 1878 1759 2605 2084 1918 1944 1501 514 563 680 689 941 1552 1984 1671 1541 660 839 887 1032 578
655 995 468 773 322 1598 1227 1360 784 1027 913 1056 1598 745 1057 2000 1019 2101 1610 1413 1706 1228 727 1044 2197 2621 1894 1517 714 743 399 438 550 1195 1719 1871 1819 1616 786 707 710 584 748
930 693 558 666 320 2567 1197 1166 815 615 861 423 717 1160 1501 1021 2358 1405 306 1419 783 1736 760 1011 1261 1109 1583 1826 1457 701 467 1158 573 319 960 1834 1835 1629 1044 816 674 944 963
663 397 676 1130 1453 1920 2823 2742 1976 619 911 1166 852 743 1815 2421 2637 630 1155 1279 1500 2632 1360 57 1537 2709 1162 1673 1373 1331 1112 1157 1609 679 670 1469 1894 1586 1409 1325 1137 800 682
459 721 902 597 1053 1820 2172 1217 2391 1089 713 1070 1282 2088 2117 2223 1839 1012 446 1126 1639 3259 3010 1070 2408 1793 1841 1431 1723 978 1394 1421 1205 1478 1245 1034 1657 2270 1670 1339 966 905 871
537 852 870 78 975 1230 1658 2121 445 257 684 1738 1471 1885 2560 2244 2353 2382 1144 1260 1978 1179 1942 652 2435 2092 1827 1931 1482 1435 1643 1139 1369 1344 1348 1514 1302 1012 1747 1878 1615 1382 1300
677 952 1060 618 974 1268 1598 2475 366 602 516 1131 2193 1241 2631 2450 2018 2882 2229 1429 2781 882 2057 1456 1773 1751 1829 1106 471 1601 1606 1472 1317 947 1394 1535 605 1434 1356 1961 2144 2068 1586
463 937 1346 615 1897 2034 1996 1784 1667 887 870 1238 1830 2033 2817 2684 2604 2187 2611 2918 377 2523 2107 649 2265 1220 1846 231 452 834 1341 1033 1372 1491 1301 1157 1197 1288 1528 1955 1753 1585 1985
277 840 1412 1444 2328 1945 2054 1759 1158 1594 1424 1432 1886 3068 1709 1646 2931 2724 2569 2822 783 2473 545 2825 2661 2772 2274 2408 2841 1785 1337 736 868 1250 1347 845 1288 1367 1326 1651 2317 1728 1358
355 804 1635 1666 1804 2150 1605 2224 2421 1697 1734 1628 1565 2740 2436 2400 2679 2574 1886 2343 1170 1388 2909 2626 605 2669 1852 2356 1931 2314 1042 1269 973 656 1013 843 784 1147 1268 1582 1725 1748 1983
397 720 1452 1842 1612 1933 2257 2487 3213 2242 2079 2078 1833 2306 2283 2651 2971 1744 2328 2796 2256 2482 1964 2682 3083 1907 1960 2121 2298 1469 1734 1359 2264 1091 917 772 860 1415 1112 1041 1657 2023 2063
250 523 1374 2161 1682 1758 2576 2117 2999 2436 2189 1606 1792 2434 2720 2559 2713 2411 2935 2410 1651 993 758 2455 2255 1807 2782 2297 2409 1861 1943 1100 2045 1671 1210 586 1153 856 1103 1811 1356 1841 1901
16 256 1154 2025 1908 1858 2683 2125 2584 2551 616 723 1745 2489 2627 3036 2915 2032 3190 3011 2569 1925 1237 2090 2690 3285 2368 1985 1744 2009 2104 2500 1949 1921 1413 961 1305 1272 1150 1590 1318 1437 1966
99 225 1007 1867 2261 2558 2154 2401 2643 2077 665 273 1129 1461 1953 2912 2612 3076 2951 3026 2590 717 403 3316 2830 2838 3020 3728 3254 2737 2253 915 1397 1797 1940 1815 1478 1570 1792 1502 1470 2005 1982

GFSSE_con_sbcape_087.txt.gz
CAPE
506 1399 2120 2163 2030 2209 2214 2097 1941 1865 1967 2440 2658 2433 2608 2639 2962 3206 3185 3231 3234 2977 2535 2353 2791 2301 1822 1599 1333 1592 1346 1811 2263 1795 1525 1344 1543 1959 1923 1402 1261 1167 1611
945 1430 2177 2191 1983 1893 1720 1524 1503 1457 1471 1747 2404 2317 2358 2526 2499 2902 3009 3065 2645 2798 2559 2412 2306 2173 1632 1915 1727 1550 1565 2068 2533 1700 1113 872 708 1140 1615 1401 948 843 1423
1187 1478 1704 2497 1801 1561 1607 1400 1309 1176 1427 1307 1833 2148 2143 2195 2581 2587 2238 2278 2351 2841 2304 2267 2272 1885 1778 1899 1840 1606 1433 1691 2097 909 779 845 796 1250 1398 1425 1262 665 1045
1133 1182 1652 2440 2192 1764 1837 1680 1922 1784 1814 1681 1790 1920 2055 2043 2559 2274 2266 2138 2234 2780 2321 2298 2238 2095 1984 1777 1645 1339 1357 1636 1511 1466 606 556 468 1351 1393 1417 1324 968 1296
238 717 1550 2302 2416 2173 2090 1974 1781 2009 1931 1812 1663 1708 1955 1934 2081 2228 2241 2225 2112 2259 2628 2215 1751 1674 1348 1158 1455 2095 2503 2369 1611 1176 575 495 636 1374 1444 1236 1405 1354 725
399 910 2138 2015 1901 2008 1924 1830 1900 1884 1719 1780 1941 1982 2058 1967 2190 2109 2191 2197 1973 1758 2063 2158 1931 1556 1692 1868 2052 1959 2232 1563 374 428 318 749 748 1383 985 919 1478 1463 1154
698 983 1644 2358 2340 1881 1794 1759 1814 1790 1735 1705 2151 2018 2024 1915 2017 2135 2145 2123 2137 1962 2108 2052 1910 1766 2020 2108 1897 1988 1807 1060 5 168 570 947 1311 1716 1366 1350 1343 721 900
743 961 1274 1849 1867 1944 1670 1545 1604 1602 1668 1789 1940 1759 1895 1973 2067 2130 1910 2049 2017 1617 2310 1956 1859 1785 1813 1991 1907 1913 2045 1837 1014 1051 885 1098 1818 1235 1163 1549 1413 589 645
781 870 1156 1326 1552 1758 1610 1507 1544 1584 1711 1700 1637 1665 1966 2002 2014 2019 1954 1962 2066 2199 2148 1890 1778 1851 1906 1897 1791 1909 2611 2001 771 753 739 885 1550 1315 1271 1579 1019 713 742
566 778 979 1185 1226 1160 1236 1468 1649 1617 1488 1422 1617 1420 2082 1967 1941 1847 2317 2707 2134 2127 2220 1941 1719 1596 1598 1572 1644 2120 2299 1794 875 1104 1027 1461 1859 559 635 703 869 665 507
310 628 770 840 767 808 1017 1123 1314 1513 1338 1420 1382 1427 1719 987 1130 1519 2117 2585 2006 1980 2053 2152 1922 1802 1721 1680 1872 1821 1464 943 919 1025 1351 1874 1772 1783 950 783 657 334 240
391 571 545 691 659 690 951 863 804 787 682 670 698 931 646 733 841 1361 1791 2427 2097 1869 1903 2154 2335 2032 2209 1412 1408 2287 1610 1016 1082 1151 927 1552 1974 1105 975 1215 864 541 404
489 591 417 467 468 254 609 795 273 666 857 760 443 685 872 691 1159 1304 1519 1666 1507 1097 907 1208 1608 1118 1094 1413 1538 1425 1267 664 789 1052 1391 1909 1835 664 894 887 1269 736 576
218 334 458 575 524 555 525 535 300 509 709 419 978 528 467 455 722 976 1237 1163 561 672 369 865 1164 1755 1714 1747 1584 31 338 547 746 868 1582 2144 2058 819 689 651 617 616 724
434 311 259 215 203 512 746 435 311 622 234 216 234 365 738 388 805 315 476 974 850 200 557 45 302 1047 399 983 1 1 109 302 579 912 954 1808 2239 1941 755 715 838 1019 887
125 300 0 0 166 848 991 483 329 221 0 81 227 747 842 649 555 630 620 878 417 865 608 68 254 1164 689 678 334 47 233 205 91 371 583 1134 2155 2076 1452 1137 1019 752 667
83 234 145 349 686 1150 94 516 405 416 408 384 715 233 677 516 259 420 40 273 615 1118 588 688 702 1388 906 755 591 430 338 367 138 167 407 788 1337 1875 1467 1499 1693 1291 889
121 26 0 517 523 460 498 102 38 294 429 311 861 896 1307 674 428 435 333 560 838 264 1009 399 623 553 475 787 435 376 693 366 250 438 599 653 1001 1029 1923 2112 1982 1812 1201
170 7 0 188 137 745 751 294 25 21 49 803 541 992 949 1110 918 1227 671 566 1260 635 895 963 671 813 868 375 603 817 608 275 343 788 641 768 677 791 708 1426 2189 2029 1671
236 160 207 262 106 208 865 367 214 128 519 874 806 1249 1447 1360 1279 876 1649 798 733 949 943 508 789 440 682 150 135 296 412 475 481 462 436 356 634 857 797 862 1413 1557 2112
130 183 151 575 733 500 925 172 451 151 422 1129 1194 1193 802 588 1589 1428 1336 423 738 945 332 1501 1308 1466 1518 1247 1125 576 510 0 47 518 468 593 427 829 1099 1073 1046 1019 1102
97 163 743 828 612 552 709 714 653 716 643 834 1163 1365 795 948 1265 1427 1216 1119 716 815 1431 939 336 1229 854 539 798 403 321 289 328 98 315 538 487 691 889 842 1266 1299 975
173 340 662 575 684 582 606 866 1602 1016 1089 1175 1459 1153 1705 1601 1520 1088 1111 1089 343 675 682 754 1556 658 714 951 908 453 756 546 1008 294 92 149 4 601 647 738 948 825 946
174 439 690 531 272 293 1009 497 913 547 708 518 739 1060 1121 1521 1734 1548 1315 1203 1340 434 186 690 1627 1233 247 636 393 660 765 244 865 620 294 55 163 510 386 367 779 921 1021
140 387 912 568 298 220 904 1203 1097 524 174 247 1157 1084 1521 1535 1747 1428 1293 990 881 673 420 1058 1412 1392 1385 1867 1875 1324 1089 1028 1308 742 666 43 220 250 291 466 747 826 922
116 292 974 667 613 417 1045 957 1014 860 191 245 568 989 852 1143 1209 1028 1696 1148 1162 647 160 105 1347 1544 1804 1515 2038 1367 1347 563 217 1074 1011 849 163 496 295 710 184 871 932

GFSSE_con_sbcape_090.txt.gz
CAPE
795 1470 2130 2125 2151 2134 2171 2073 2046 2218 2213 2209 2480 2333 2414 2456 2642 3150 3026 2663 2485 2715 2654 2237 2040 1474 1553 882 1646 1810 1787 1779 1633 1450 1185 1170 1508 1429 1550 1379 1401 1151 1383
1004 1299 2425 2490 2156 2000 1683 1494 1483 1525 2196 2258 2176 2171 2354 2241 2230 2580 2696 2467 2354 2583 2293 2173 1713 1855 1643 1491 1350 1752 1866 1577 1867 1353 1026 927 1486 1377 892 834 1420 1266 1399
1159 1194 1723 2384 1713 1445 1520 1413 1156 1173 1630 2210 2359 2237 2176 2177 2047 2217 2416 2303 2421 2653 2219 2012 1916 2050 1818 1627 1517 1420 1204 1381 1044 1067 1016 574 1102 1359 1244 640 981 1246 1470
1134 1241 1680 2086 2011 1564 1230 1343 1978 1808 1630 1653 2187 2159 2180 2425 2276 2142 2245 2331 2415 2713 2355 2208 2146 2004 1994 1753 1312 1231 1444 1750 1444 980 473 383 1057 1504 1282 1109 1087 1524 1287
996 1262 1386 1925 1784 1986 2047 1886 1666 1955 1866 1617 1917 1978 1984 2300 2373 2346 2241 2201 2407 2304 2294 1949 1931 1881 1458 1536 1496 1719 1724 2182 1439 760 402 608 1010 1384 1383 1413 1011 574 612
706 1095 2106 1961 1983 2122 1922 1839 1916 1866 1969 1939 1942 2043 2175 2258 2340 2255 2097 2095 2267 2421 1869 1624 1451 1659 1695 1242 1937 2210 2121 1831 963 290 602 1194 618 879 1229 1461 1132 709 564
717 1424 1592 2336 2044 1875 1882 1940 1908 1839 2005 2153 2147 2130 2099 2109 2221 2264 2130 2095 1984 2281 2216 1704 1835 2095 2140 1811 1978 2333 1129 750 215 655 820 1008 1224 1361 1631 758 1066 610 628
859 1293 1434 1975 1879 1796 1721 1805 1820 1765 1767 1888 2057 1942 1965 2128 2102 2104 2291 2272 2140 2278 1972 1838 2014 2120 2056 1986 1817 2481 1814 1341 949 875 951 1041 1541 1454 1585 1294 532 673 666
936 1007 1215 1276 1451 1651 1566 1687 1749 1788 1837 1712 1806 1884 2049 2135 2044 2043 2420 1985 2161 2075 1834 1780 1820 1884 2023 1950 2050 3377 2256 1487 462 388 377 645 1813 1475 1617 943 676 752 982
722 1044 981 1047 1084 954 1268 1557 1582 1515 1591 1176 1494 1789 2044 2051 2014 2027 2569 2782 2125 2003 1776 1721 1727 1747 1704 1701 1870 2927 1969 1537 779 816 845 1173 1190 1328 1162 911 606 491 581
641 807 891 922 815 717 766 1262 1411 1376 1381 1512 1248 1684 1800 1126 1315 1462 2397 2579 2029 2025 2026 1881 1694 1679 1725 1806 1877 2013 1606 694 788 959 1014 1656 1941 783 637 547 391 272 272
426 604 684 580 599 651 1069 798 775 753 569 684 764 961 620 565 996 1396 1935 2452 1815 1928 2134 2114 2109 1882 1860 1258 977 1910 1171 695 900 945 971 1800 2232 866 968 859 539 386 297
386 526 393 477 410 519 728 442 399 369 325 421 429 558 549 615 1188 1237 1370 1362 840 843 784 1079 1342 687 1208 1066 1313 984 1043 779 874 651 893 1855 1450 947 1249 1446 985 623 573
344 331 315 216 282 110 474 222 177 382 474 429 212 401 278 520 685 994 1073 712 667 768 678 500 865 1119 1548 1557 1345 1134 578 373 412 486 929 1924 1889 642 722 615 768 610 633
281 231 225 283 341 265 446 167 58 298 351 295 396 159 316 325 611 574 529 627 298 0 365 31 149 618 329 395 86 442 201 349 434 631 941 1479 2116 1180 699 724 782 796 808
337 305 121 241 183 528 449 163 105 225 5 34 134 236 302 399 416 12 423 575 493 487 301 135 107 588 794 82 0 105 96 230 468 514 583 1040 1899 2005 1204 904 846 873 834
281 132 0 1 421 615 631 218 136 31 2 181 430 604 422 267 206 252 272 362 623 1050 587 295 511 966 796 321 201 60 29 14 35 154 288 537 1249 1740 1355 1316 1595 1371 976
172 0 0 648 456 319 389 173 180 183 119 372 181 506 279 187 154 177 0 212 571 663 668 276 587 541 281 396 180 136 142 96 15 57 153 424 719 928 1368 1889 2313 1979 1295
23 0 145 235 203 110 54 80 79 91 301 358 323 768 483 532 541 687 264 470 331 317 506 652 468 464 680 236 188 574 450 165 53 332 406 399 463 797 613 1087 2303 2313 1643
0 0 84 11 238 466 21 88 0 229 545 537 255 736 607 839 1115 961 634 716 654 753 697 392 475 238 356 5 35 155 69 348 132 401 626 649 618 573 505 459 760 1470 2255
17 0 0 0 47 465 322 74 69 120 379 850 722 1052 1093 1017 1056 1140 1120 172 363 133 231 866 825 798 1138 593 255 348 80 0 149 281 281 314 437 809 788 679 662 865 890
16 71 155 0 93 321 439 108 263 272 350 717 887 903 516 563 1157 991 954 325 516 660 1151 820 315 614 414 302 507 1 179 11 72 26 326 378 270 490 804 862 897 947 841
0 154 207 274 200 201 459 411 843 510 656 852 948 1092 988 1088 1121 1293 942 717 156 261 330 505 986 385 603 456 546 170 391 282 371 69 1 238 207 134 429 687 695 821 931
85 267 326 391 217 169 339 449 790 709 538 490 709 655 1042 1325 1097 957 1065 921 943 221 192 199 1179 662 146 1060 420 749 295 30 694 359 56 69 0 53 297 297 314 589 494
72 406 302 298 185 148 633 747 374 383 140 358 609 923 775 918 1319 1300 966 568 618 266 19 558 1184 971 1197 1375 1420 1092 765 149 201 386 543 37 11 35 16 45 82 164 475
138 456 208 147 107 0 356 748 564 261 79 535 705 725 603 600 617 936 993 780 497 509 267 216 1126 1225 1199 1080 1264 1040 923 823 1020 745 602 522 67 24 88 44 103 222 265

GFSSE_con_sbcape_093.txt.gz
CAPE
731 1325 1941 2033 2096 2075 1877 1950 1842 1720 1992 2222 2309 2407 2350 2433 2438 2405 2303 2163 2039 2233 1933 1470 1834 868 980 1202 1460 1786 1804 1661 1344 1042 1574 1465 1377 1349 1410 1376 1227 1005 1352
986 1205 2001 1942 1994 2006 1949 1804 2147 2089 1841 2203 2263 2140 2143 2268 2471 2446 2256 2140 2323 2404 1678 1589 1548 1281 1750 1720 1724 1514 1635 1428 1450 1103 1093 1357 1001 977 1394 1389 1265 1036 1286
1046 1389 1324 1977 1860 1516 1411 1417 1432 1999 1988 1933 2036 2224 2025 2079 2325 2313 2284 2167 2442 2494 1856 1825 1392 1607 1548 1509 1274 1272 1392 1185 929 908 1483 939 1119 731 751 1157 1323 1419 1326
986 1199 1699 2054 1535 1443 1243 1151 1165 1409 2018 2324 2093 2131 2133 2156 2363 2339 2325 2483 2374 2511 2014 2093 1892 1638 1522 1496 1562 1224 1364 1449 1235 1058 436 833 1110 1424 934 1391 1389 1365 1509
1097 1287 1266 1759 1519 1377 1645 1955 1796 1513 1620 2151 2014 2254 2224 2190 2248 2418 2428 2472 2487 2241 2239 2090 2007 1658 1557 1451 1454 1466 1516 1367 1066 681 670 813 980 1206 1390 723 666 723 973
1090 1027 1522 1846 2050 1952 1780 1913 1961 1910 1611 1902 1997 2037 2303 2277 2236 2151 2399 2580 2424 1973 1954 2009 1817 1754 1322 1541 1703 1862 1853 1556 1069 714 938 871 450 1410 1545 1459 612 619 583
953 1428 1650 2327 2034 1984 1863 1993 1950 1964 2071 1986 2081 1939 2203 2284 2326 2211 2214 2191 2244 1907 1604 1941 1958 1706 1637 2362 1934 2292 1756 1214 604 839 869 909 865 1667 655 1359 647 614 660
1177 1388 1592 1983 1977 1965 1960 1943 1868 2037 2177 2118 2113 1988 2251 2317 2366 2384 2321 2153 2154 2082 1978 2060 1811 1781 1878 1868 1958 1151 859 1153 930 923 915 823 1451 1777 1223 550 693 635 608
1183 1150 1333 1483 1557 1740 1753 1821 1800 1806 1821 2053 2075 2108 2228 2284 2302 2439 2136 2013 2097 1844 1897 2019 2146 1894 1959 2059 2122 1971 1711 1361 575 690 615 780 1713 1795 1179 796 809 1038 1261
869 1071 1040 1080 1262 1202 1202 1710 1798 1858 1667 1923 1968 2124 2173 2118 2237 2365 2700 2550 1898 1739 1705 1810 1873 1965 1905 1943 2453 2174 1600 981 387 439 555 1031 1733 1965 1335 650 582 645 634
846 783 817 812 689 763 1167 1244 1409 1566 1343 1389 1687 2229 1549 1052 1646 1802 2342 2302 1966 1761 1691 1680 1678 1710 1849 1966 2668 2201 1792 611 686 732 734 1272 1116 579 545 496 363 334 354
610 710 763 582 572 690 1121 856 550 793 752 887 929 730 593 789 1129 1716 1960 2116 2072 2042 2103 2054 1767 1804 1857 982 1093 1802 600 557 757 798 752 1745 1748 830 800 680 419 333 326
378 621 594 451 441 720 783 511 439 323 365 448 743 584 545 642 1168 1135 1061 1064 394 1007 846 946 1056 458 879 958 1156 789 904 643 676 606 591 1916 1498 923 1340 1420 941 690 647
378 474 334 349 357 178 516 442 271 301 360 338 372 445 439 688 867 997 1019 684 618 480 200 454 680 747 1103 1400 1385 1124 675 620 526 439 420 1454 1337 825 867 824 1059 822 707
347 341 305 228 267 159 419 174 111 305 464 377 279 322 383 433 571 684 625 477 271 24 315 108 154 382 636 118 622 1065 480 324 373 433 419 1461 1781 1136 814 799 823 880 961
229 217 163 180 199 161 277 106 53 211 182 184 322 163 306 370 412 182 451 578 491 405 371 185 38 662 672 1 115 152 153 268 284 306 546 756 1674 1782 1494 1012 1023 995 1020
192 161 135 175 145 221 267 106 79 146 0 66 122 256 368 410 147 97 400 417 425 906 647 330 429 552 218 126 40 27 15 84 72 185 241 287 738 1753 1732 1544 1466 1635 1491
154 88 72 361 257 325 346 112 88 42 51 213 329 431 360 280 214 57 3 84 488 597 623 177 302 488 235 262 143 61 54 22 6 30 34 175 324 589 891 1816 2132 2085 1704
71 15 0 229 264 257 148 66 94 98 119 193 251 306 312 219 225 244 18 372 261 453 307 525 413 226 474 217 89 288 202 182 40 109 48 125 181 582 535 698 1749 2399 1941
14 0 70 95 41 0 10 0 25 122 176 172 324 447 362 445 678 876 455 339 413 592 467 631 560 287 176 44 25 276 40 101 73 86 356 464 469 400 403 405 280 497 1556
0 0 0 40 121 21 1 0 41 195 272 446 154 549 608 660 1005 895 940 332 209 56 300 771 552 420 679 288 178 159 0 0 117 168 178 307 422 654 626 625 466 513 606
1 0 0 0 114 81 28 20 103 59 207 501 550 762 711 809 1012 969 694 106 354 599 855 813 675 180 172 178 469 0 103 0 74 28 71 283 286 95 458 726 696 732 715
3 0 0 0 39 209 102 116 377 348 393 669 671 730 514 366 919 1079 811 477 263 276 263 400 933 629 302 258 311 166 245 190 91 9 0 77 348 156 73 145 420 531 633
18 22 0 0 0 118 231 322 460 417 408 206 387 591 678 808 962 783 711 594 352 35 133 161 1059 362 261 852 489 476 112 19 781 358 10 64 4 1 0 41 236 270 356
42 85 75 43 1 98 218 288 290 197 161 163 347 670 382 633 1053 697 827 621 495 132 0 299 982 870 1073 1077 934 727 446 22 126 293 457 72 3 0 0 0 0 16 32
79 163 179 122 0 102 254 372 388 310 105 263 464 597 575 428 578 842 815 484 346 341 155 281 836 966 940 894 845 772 694 814 964 676 528 374 285 70 47 2 38 46 196

GFSSE_con_sbcape_096.txt.gz
CAPE
664 1235 2119 1848 2015 1983 1883 1908 1841 2143 2451 2527 2563 2207 2359 2243 2005 2132 2411 2143 1955 2184 1787 901 1247 1124 1160 1751 1952 1895 1608 1236 1567 1497 1540 1582 1492 1438 1372 1370 1346 1117 1310
905 1277 1966 1804 1934 1768 2075 2079 1645 2089 2236 2429 2272 2062 2203 2345 2393 2200 1988 1879 2032 2181 1740 987 1739 1868 1818 1812 1804 1783 1543 1619 1634 1681 1491 970 1163 1465 1398 1384 1407 1201 1167
971 1204 1731 2108 1852 1741 1483 1643 2075 1795 2239 2286 2185 2141 2195 2099 2325 2283 2070 2039 1864 2155 1382 1298 1341 1488 1325 1473 1709 1697 1454 1217 1288 1479 1444 1010 665 989 1389 1434 1351 1453 1637
1065 1197 1538 2041 1503 1335 1310 1228 1783 1905 1739 2064 2127 1958 1943 2146 2171 2048 1998 2192 2063 1946 1990 1844 1808 1777 1725 1537 1140 1182 1253 1209 1275 1370 945 1140 997 1138 1542 1414 1300 1516 1576
1074 1275 1182 1399 1286 1144 1292 1452 1355 1691 1782 1987 1784 1885 2176 2134 2309 2311 2119 2365 2271 1925 2032 1770 1754 1645 1649 1721 1667 1883 1375 1161 1374 1047 1016 1062 1246 1213 698 754 883 1117 948
1029 722 1295 1417 1489 1773 1810 1872 1657 1498 1878 2036 2108 2234 2275 2336 2351 2430 2387 2218 2211 2201 2101 1904 1801 1565 1626 1591 1610 1679 1663 1414 1351 1028 774 908 970 1426 1350 659 674 656 1173
665 974 1441 1750 1713 1724 1699 1677 1882 1643 1874 2006 1952 2097 2017 2308 2240 2225 2402 1992 1858 1934 2070 1907 1801 1687 1974 2076 2133 2180 1510 1374 814 925 978 886 1516 950 1275 720 686 684 906
1060 1198 1484 1631 1672 1549 1524 1797 1736 1854 1866 1922 2036 2264 2375 2308 2260 2286 2275 2325 1933 1973 1919 1629 1842 1756 1777 1648 1755 1431 1080 1235 1000 1042 931 992 1734 1427 655 742 685 729 600
1090 1077 1341 1359 1247 1493 1726 1826 1873 1888 1721 1989 2148 2232 2277 2031 2070 2183 2276 2165 1980 2007 1989 1856 2042 1926 2027 2044 1720 1481 1518 1405 807 780 795 1090 1774 1572 904 877 996 1275 1300
909 970 953 1092 955 938 1299 1739 1729 1850 1666 1752 2056 2032 2258 2093 2106 2030 2533 2325 1900 1909 2014 2021 2072 2037 2021 2196 2146 1914 1274 1052 375 455 752 1227 1887 1907 801 657 682 723 615
859 703 623 691 665 813 1121 1334 1383 1347 1468 1583 1683 1953 1389 1277 1676 1917 2423 2069 1783 1714 1774 1860 1821 1826 2108 2297 2167 2147 1700 718 662 728 815 860 879 616 578 510 422 382 410
656 612 586 493 519 685 1122 501 509 751 707 814 738 598 666 905 1500 1937 2225 2288 2158 2074 1746 1574 1529 1734 1523 1069 1177 2065 737 715 799 833 812 1622 1492 815 762 702 443 413 398
442 661 510 389 350 576 547 342 310 224 359 566 539 497 564 993 1114 1200 1138 765 852 1282 968 960 953 1071 1067 1276 1440 1064 931 629 808 912 756 1465 1893 950 1251 1448 1080 878 752
347 501 401 300 316 199 410 313 199 201 259 377 486 469 537 739 848 854 952 649 742 198 327 366 763 845 1098 1373 1470 1401 930 775 627 571 392 1087 1509 952 959 831 884 879 871
238 328 285 245 180 119 269 131 159 261 387 335 228 324 430 482 550 688 617 570 358 413 382 283 344 622 941 87 443 1288 890 548 641 624 488 1043 1498 1702 994 938 923 988 1095
178 214 183 216 131 106 166 68 79 204 305 215 288 170 231 295 399 321 498 585 534 625 738 315 225 914 657 1 402 475 539 457 452 438 494 691 1642 1758 1789 1498 1264 1279 1285
141 139 160 145 111 85 153 96 43 189 3 143 273 156 301 378 148 135 444 420 610 1091 812 462 636 515 382 217 314 240 291 379 375 396 435 413 586 1250 1789 1732 1644 1741 1916
109 114 108 310 140 101 113 49 46 44 2 130 160 217 397 362 203 189 86 228 433 581 612 688 580 679 397 506 376 366 301 251 302 289 227 202 435 480 680 1015 1557 2108 2079
82 59 72 115 141 176 133 17 44 8 61 166 242 319 306 296 310 236 57 470 806 611 643 693 579 372 597 332 184 482 530 526 429 307 398 360 368 632 725 709 1062 1377 1490
41 0 5 69 111 115 64 0 18 24 72 110 318 333 334 466 545 700 448 532 544 745 606 902 975 767 767 760 631 561 535 417 582 413 557 689 841 869 796 846 837 792 958
4 0 0 72 18 17 17 15 65 116 160 215 217 589 521 627 964 745 678 560 415 307 713 530 507 1001 818 397 670 599 127 147 168 609 524 608 717 754 855 1056 1050 1045 1047
6 0 0 16 0 0 1 3 64 50 138 355 183 507 688 802 941 916 549 167 410 825 933 985 447 472 457 500 797 70 672 408 532 515 314 604 729 577 576 700 943 1202 1249
5 0 0 0 0 0 0 108 136 219 276 478 502 677 528 293 790 691 417 375 360 396 419 570 1052 745 815 729 375 593 697 654 317 227 453 372 568 647 583 387 456 755 1032
18 0 0 0 0 0 0 173 246 173 210 170 310 527 667 630 898 1059 804 407 282 138 231 425 1152 308 836 1230 802 546 245 266 1160 1153 492 309 119 229 300 153 303 487 587
45 8 0 0 0 66 91 140 163 191 103 80 164 325 356 424 792 640 767 649 657 254 99 308 1142 1222 1418 1497 1081 956 860 353 433 623 978 1023 793 52 83 178 221 334 507
70 28 0 0 0 0 89 96 205 169 89 143 268 433 516 447 585 825 908 516 437 435 190 427 966 1126 1076 1052 1079 1050 1005 1255 1285 1179 957 726 830 790 620 809 552 753 883

GFSSE_con_sbcape_099.txt.gz
CAPE
771 888 1932 1342 1729 2067 1739 1936 2086 1984 2344 2413 2366 2364 2215 2242 2147 2214 2227 2068 1940 1654 1622 1695 1683 1615 1640 1660 1787 1479 1643 1654 1659 1603 1678 1642 1580 1541 1526 1390 1736 1268 1518
796 1384 1850 1802 1926 1907 1800 1748 2032 2034 2210 2309 2177 2278 2327 2327 2265 1994 1942 1916 2167 1549 1544 1823 1855 1898 1819 1763 1622 1477 1432 1735 1735 1177 936 1714 1632 1583 1575 1534 1048 1370 1164
855 1438 1601 2145 1780 1973 2121 1925 1696 1940 2059 2174 2120 2196 2149 2282 2207 2085 1994 2043 2002 1933 1591 1576 1662 1624 1770 1787 1640 1247 1187 1739 1569 1489 559 355 1334 1630 1653 1568 1652 1628 1672
1035 1284 1466 1823 1559 1376 1404 1882 1698 1698 1956 2200 1965 2098 2149 2148 1895 2043 2163 2109 2416 2371 1943 1944 1888 1719 1501 1236 1481 1441 1366 1566 1643 1373 1308 997 782 1482 1469 1610 1588 1632 1638
1299 1447 1623 1477 1445 1208 1124 1250 1835 1623 1969 1877 2048 2172 2176 2113 2070 2120 2183 2193 2032 1947 1770 1872 1764 1659 1890 1947 1847 1453 1213 1617 1582 1197 1293 1355 1010 701 802 939 1024 1143 1443
1278 822 1373 1209 1214 1548 1519 1539 1677 1734 2034 1884 1963 2092 2184 2128 2188 2173 2092 2182 2088 2106 1889 1817 1714 1726 1767 1759 1731 1780 1503 1619 1103 1084 880 1657 1430 1329 733 783 796 1477 1507
639 843 1315 1841 1813 1790 1647 1552 1602 1894 1963 2097 1951 1946 1993 2197 1894 1828 2044 2073 2100 2159 1738 1917 1861 2032 2124 2340 2345 1694 1497 1448 932 815 1343 1304 691 1269 791 775 748 859 825
486 978 1624 1844 1669 1592 1459 1713 1977 1881 1923 2046 2030 1996 1908 2016 2266 2100 2109 1833 2119 1929 1772 1979 1958 1915 1781 1938 1744 1220 1172 1203 924 884 1251 1666 1719 925 881 804 1342 1224 1380
1285 1362 1239 1416 1625 1539 1653 1496 1740 1898 1967 2200 2285 2081 2123 2053 2195 2053 2235 2021 2151 1819 1829 1998 1875 2008 2024 1748 1432 1450 1556 1399 979 634 777 1509 1976 1116 866 1027 1136 1167 1138
991 1253 1420 1443 1360 1424 1318 1663 1870 1581 1766 2006 2014 2017 2023 2102 1989 2166 2449 2369 2045 1984 1927 2043 1991 2024 2102 2147 2210 1546 1321 685 119 197 654 1654 2146 1355 737 633 595 567 496
1189 1212 1310 1101 1342 1541 1390 1543 1618 1449 1762 1921 2062 1864 2270 2155 1681 1558 2262 1960 1865 1950 1922 1944 1727 1865 2187 2091 2151 1871 1247 731 349 392 706 850 906 646 611 481 329 315 354
950 1105 1062 1012 1033 1099 1298 1732 1855 1509 1779 1925 1820 1988 1864 2215 2132 2175 2270 2357 2409 2093 1957 1830 1883 2058 1296 1581 1855 2287 1318 1092 673 378 658 1471 1592 894 1028 921 647 571 585
694 829 1026 1076 1289 1065 1400 1355 1265 1171 1562 1555 1638 1587 1952 1859 2050 1765 1508 1410 1584 1556 1313 1205 1142 1270 1623 1696 1588 1414 1465 1341 834 514 453 1168 1891 1088 1142 1154 1302 1073 798
596 786 827 833 1239 1262 1407 796 913 846 1007 1076 1379 1566 1658 1500 1526 1685 1523 1677 1403 1378 1542 1507 1629 1858 1937 1954 2029 2019 1718 1389 863 489 282 810 1378 1106 951 919 830 881 1012
489 668 702 810 1059 1000 997 798 845 1047 1006 1099 1154 1355 1214 1284 1590 1601 1721 1516 1828 1653 1453 1478 1868 2049 1514 629 1414 1910 1815 1475 863 540 414 679 1462 1569 1493 1150 1088 1151 1170
375 569 566 641 839 882 862 985 1108 1135 1158 1056 1075 1184 1353 1154 1720 1485 1620 1619 1838 1897 1796 1665 1954 1885 1258 1164 1448 1468 1524 1323 1056 698 536 706 1125 1824 1752 1825 1715 1645 1728
419 456 459 482 598 756 825 836 941 1150 925 1056 1131 1334 1289 1401 1514 1707 1670 1711 2159 2209 1930 1955 1850 1681 1355 1100 1377 1211 1139 1254 1125 995 929 855 921 918 1377 1667 1785 1870 2032
349 533 538 159 463 516 805 926 891 896 874 1157 1034 1171 1354 1503 1497 1444 1303 1670 1619 1828 1898 1984 1667 1712 1501 1447 1504 1424 1241 1213 1293 1238 1210 1133 1157 1231 1122 961 1351 1598 1759
526 665 682 713 852 883 1118 851 848 931 925 1004 779 1263 1430 1402 1212 1317 1153 1687 2102 1709 1942 1945 1562 1838 1924 1795 1313 1263 1498 1572 1591 1144 1361 1482 1419 1558 1622 1222 1185 1375 1642
628 703 773 806 968 1171 1115 1042 962 736 1092 1234 1391 1359 1429 1348 1458 2145 1626 1888 1748 1854 1795 2146 2245 2120 1966 1878 1314 1349 1587 1580 1661 1711 1544 1400 1698 1811 1775 2128 2093 1773 1413
586 620 730 829 1090 1084 1081 975 1091 940 1090 1268 1347 1539 1455 1726 1929 2231 1847 1882 1580 2067 2267 2024 1766 1999 1779 1975 1816 1290 1184 986 1099 1426 1629 1596 1580 1558 1632 1730 2030 1964 1847
568 567 693 862 1138 1131 1258 1161 1109 1167 911 1262 1392 1635 1773 1890 1963 2089 2186 1564 1850 2106 2443 2589 2496 1670 1848 1993 1795 1523 1101 1056 1488 1369 1389 1370 1590 1586 1602 1607 1681 1868 2144
544 597 640 920 1161 1073 1110 1059 1134 1236 1260 1380 1427 1309 1882 1801 1830 2107 1879 1669 1989 1888 1660 2147 2350 2170 1887 1965 2085 1853 1403 1330 1837 1366 1320 1291 1698 1576 1702 1618 1277 1797 2038
526 515 698 975 1067 868 933 1155 1499 1154 1477 1140 1495 1960 2215 1818 1697 1706 2067 1941 1897 1585 1803 1952 2152 2225 2312 1997 2056 1863 1971 2204 1960 1127 1630 1369 1542 1033 1209 1127 1196 1402 2066
481 431 576 855 947 719 809 1234 1458 1357 1216 1319 1514 1958 2328 2033 2156 1757 2046 2059 2119 1583 1548 1787 2451 2560 2320 1936 1748 2027 2314 2070 2319 2124 1449 1685 1614 1508 1971 1673 1316 1649 2197
425 321 409 743 846 968 821 1024 1486 1634 1489 1303 1482 1464 1555 1521 1839 2054 1988 2076 2068 1995 1681 1638 2466 2570 2376 2014 1673 1650 1528 1753 2138 2218 1823 1829 2108 2113 2411 2754 2336 1989 3054

GFSSE_con_sbcape_102.txt.gz
CAPE
506 681 770 1007 1265 1640 1726 1783 2113 2363 2347 2367 2291 2262 2153 2162 2134 2035 2286 1359 1765 2184 2154 1770 1595 1593 1625 1596 1642 1566 1687 1589 1697 1636 1757 1681 1658 1586 1498 1335 1860 1314 1475
578 707 1193 1566 1516 1928 1736 1774 1858 2136 2213 2225 2379 2419 2247 2122 2002 2142 2225 1303 1620 1835 1959 1887 1898 1784 1676 1575 1546 1623 1704 1617 884 1256 1804 1753 1595 1588 1337 1496 1715 1369 1520
626 959 1398 1759 1771 2183 1967 1618 1922 2037 2256 2237 2183 2351 2234 2117 2111 2287 1773 1825 1921 1847 1832 1787 1797 1845 1678 1038 1041 1843 1703 1688 1341 580 415 1170 1505 1655 1598 1505 1566 1518 1276
757 843 1183 1889 1553 1617 1958 1757 1857 1985 2176 2052 2211 2132 2170 1913 2078 2064 1698 1687 1901 1831 1632 1773 1765 1424 1675 1673 1579 1304 1687 1645 1481 1227 760 274 609 1410 1401 1475 1550 1534 1654
868 1144 1622 1491 1339 1144 1620 1933 1793 1931 1922 2100 2131 2211 1862 2061 2162 2232 2122 2099 1922 1913 1812 1808 1716 1860 1896 1842 1471 1226 1665 1603 1125 814 1082 1455 220 861 1133 1102 1644 1702 1701
1096 954 1075 1185 1186 1550 1264 1790 1880 2038 1737 1906 2146 2106 2085 2099 2177 2210 2173 2128 2032 1926 1856 1966 1891 1878 1870 2012 1765 1582 1629 867 426 853 616 1489 905 846 832 959 1600 1457 1347
370 280 973 1700 1841 1844 1712 1676 1874 1897 2107 2208 2011 1885 2153 2040 2147 2137 1999 2104 2155 1960 1980 2009 1993 2236 2292 2400 1661 1406 1281 958 645 1226 788 348 623 1094 794 782 727 940 927
203 929 1273 1713 1712 1648 1890 1769 1897 2001 2017 1890 2057 1951 1971 2234 2050 1951 2162 2242 1907 2022 2056 2004 2009 1937 1909 1499 1089 1188 1370 913 516 1121 1103 953 1401 1105 1094 1719 1750 1816 1378
373 948 1223 1513 1738 1691 1498 1949 1905 1966 1831 1933 1880 1985 2106 2087 1973 2010 2205 2157 1894 2075 2058 2010 2105 2126 1945 1769 1642 1520 1359 1148 208 709 888 1314 1641 747 836 832 714 660 614
695 754 988 941 1324 1178 1483 1830 1851 1892 1876 2132 1926 1973 1909 2093 2111 2020 2673 2420 1866 1985 2065 2007 1986 2210 2236 2312 1699 1486 947 672 191 251 523 1501 1671 725 594 483 380 369 446
649 831 674 950 1291 1380 1433 1744 1680 1834 2025 1956 1931 1829 1986 1458 1300 1664 2106 2036 2075 1933 1887 1704 1733 2046 2110 2277 2135 1876 1542 139 35 297 269 1266 902 816 790 513 342 379 468
594 595 629 791 869 1011 883 1501 1513 1390 1672 1633 1837 1251 969 1317 1712 1584 2040 2238 2202 1919 2020 1851 2100 1926 1435 1454 1956 2219 757 665 304 142 550 1599 1600 1019 1232 1220 912 884 841
486 496 509 701 615 607 866 859 859 1253 1484 1853 1549 1084 1255 1338 1365 1110 1497 1669 1462 1608 1472 1515 1597 1512 1927 1762 1447 1396 1486 907 325 125 372 1592 1432 1101 1049 881 953 1051 999
427 354 283 395 645 614 674 388 495 1089 1112 1090 1279 1694 1751 1460 1461 1402 1468 1634 1576 1453 1780 1800 1700 2014 1745 1709 1639 1627 1392 927 508 211 212 861 1237 1129 999 1012 1055 1079 1165
247 191 193 457 935 1144 819 360 522 802 1080 991 1111 1555 1473 1461 1789 1630 1804 1813 1767 1564 1550 1743 1924 1757 1387 1295 1462 1462 1285 1321 753 431 219 812 1429 1483 1524 1386 1347 1383 1491
163 134 213 490 963 1064 1009 978 934 920 1091 859 1014 1466 1568 1462 1828 1632 1748 1670 1757 1643 1726 1880 2234 1398 1158 1075 1347 1276 1245 1153 1237 812 692 1019 1127 1689 1694 1769 1775 1697 1769
139 141 404 632 991 1057 1153 1108 821 917 842 778 1017 1560 1680 1649 2082 1885 1787 1622 1898 2301 2387 2175 1758 1501 1071 1055 1566 1478 1260 1208 985 1200 957 1011 1237 974 1263 1475 1570 1639 1931
51 229 436 311 635 736 887 1126 920 804 787 855 1157 1462 1708 1964 2028 1809 1505 1549 1966 1905 1793 1561 1392 1114 1310 1226 1451 1379 1285 1087 1390 1388 1247 1380 1526 1451 1416 1496 1406 1737 2028
244 356 377 412 369 799 1361 1069 1077 1390 1170 1172 1161 1400 1947 1793 1706 1616 1626 2066 2118 1710 1687 1327 1352 1360 1239 1210 1040 1124 1166 1317 1368 1044 1497 1588 1553 1662 1668 1790 1681 1836 2053
432 466 527 498 843 1076 1250 1194 1046 1167 1342 1267 1259 1415 1750 1554 1741 1592 1760 2068 1928 1668 1647 1816 2479 1742 1139 1128 917 947 960 1224 1376 1446 1384 1317 1573 1655 1480 2064 2352 2418 2496
511 677 773 838 1308 1206 1016 834 982 859 1186 1265 1340 1732 1970 1820 1682 1748 1676 1969 1809 1808 2376 2120 1635 1699 1057 1391 1160 892 939 1116 1193 1281 1262 1243 1362 1273 1564 1992 2277 2314 2212
603 719 1055 1097 1610 1513 1283 1248 988 832 886 990 1151 1660 1690 1807 1540 1711 2015 1667 1956 1863 2434 2658 2524 1315 1362 2133 1041 1097 857 927 1007 951 1098 1015 1197 1374 1654 1855 1946 2257 2548
559 764 1023 1295 1418 1677 1432 1759 1764 1625 1419 1454 1431 1214 1606 1709 1571 1602 1914 1863 2132 1777 1667 2129 2086 2669 1305 1997 2515 1910 1023 1180 946 856 1090 951 1216 1466 1585 1551 1622 2001 2632
740 694 880 1274 1303 1715 1983 1409 1540 1282 1544 1200 1481 1206 1194 1135 1378 1396 1875 1931 2174 1630 1994 1945 2024 2389 2662 1535 1861 2294 2937 3266 1381 1020 897 1089 966 961 1489 1463 1483 1947 2603
805 879 891 1375 1372 1115 1909 1522 1992 1027 916 1127 1287 1513 1218 1318 1462 1583 1644 2262 2289 1799 1933 1987 2167 2144 2010 1721 1713 1903 2605 2433 2676 1455 1076 1115 837 1093 1723 1794 1762 1949 2556
829 854 839 1488 1853 1508 1657 1688 1427 1104 1183 1145 1266 1231 969 1338 1065 1096 1223 1558 2072 1960 2205 1634 1836 1719 2750 2219 1736 1624 1615 1792 1966 1748 1439 1608 1542 1820 2065 2479 2518 2191 2619

GFSSE_con_sbcape_105.txt.gz
CAPE
590 685 1048 1153 902 1267 1481 1958 2055 2395 2413 2276 2177 2023 2250 2037 1973 1990 2009 1809 2200 2172 1732 1617 1757 1742 1708 1724 1782 1622 1626 1653 1762 1722 1646 1592 1354 1343 1382 1194 1980 1206 1555
728 728 1305 1534 1387 1716 1743 1905 2164 2247 2339 2310 2073 2074 2031 2040 1969 1831 1958 1596 1798 1881 1855 1764 1686 1532 1662 1545 1667 1736 1007 772 1476 1600 1660 1712 1783 1976 1721 1501 1860 1605 1592
632 681 1553 1763 1950 1670 1582 1798 1987 2308 2255 2241 2245 2226 2013 2034 1828 1820 1671 1770 1838 1791 1841 1699 1521 1036 874 1439 1743 1604 1554 1376 1322 868 1114 1118 1495 1693 1686 1688 1419 1437 1621
470 743 1128 2068 1982 1987 1764 1945 2003 2112 2045 2218 2220 2150 2085 2100 1935 2141 1651 1882 1768 1915 1855 1509 1599 1797 1693 1335 1427 1561 1496 1347 1464 2356 335 172 1109 1486 1486 1683 1604 1650 1567
1085 1357 1549 1453 1287 1745 1877 1745 1937 1956 2005 2123 2069 1955 2200 2211 2102 1985 1814 1863 1801 1648 1646 1852 1878 1840 1776 1383 1431 1574 1600 1419 1300 1327 1145 305 225 1139 1655 1566 1924 1767 1778
1006 942 1226 1026 1159 1061 1908 1913 1988 1794 1993 2178 1914 2150 2066 2103 2160 2240 2073 1958 2033 2013 2036 2011 1969 1997 2134 1597 1559 1377 930 671 966 684 996 446 447 794 1125 1090 1055 1130 1247
567 159 824 1837 1893 1709 1638 1904 1893 2154 2182 2029 1947 2023 2163 2096 2286 2270 2138 2059 2072 2093 2055 2044 2214 2164 2058 1393 1134 1248 1141 910 1050 694 183 286 635 1102 1352 1261 1690 1377 1035
198 703 1280 1839 1815 1821 1627 1916 2063 2014 1824 1951 2068 1997 2152 2194 2422 2254 2274 2014 2168 2108 2043 2018 1982 1875 1404 1194 1352 1256 1258 1443 889 904 565 309 1424 1264 1279 1384 1386 1499 1156
725 835 1031 1504 1674 1719 2032 1893 2026 2045 1833 2212 2095 2252 2084 2128 2051 2307 2040 2070 2240 2083 2092 2142 2139 2091 1980 1842 1428 1018 825 947 619 1243 933 510 1161 724 695 613 484 470 495
424 849 979 1012 1057 1525 1455 1928 2004 2095 2051 1975 2006 2059 2216 2274 2183 2428 2442 2054 2099 2086 2043 2020 2206 2251 2375 1957 1735 1376 995 1096 245 241 394 687 1259 600 435 359 331 402 549
496 663 743 708 1462 2086 1472 1803 1867 2047 2298 2127 1865 1985 2538 1823 1606 1993 2279 2056 1965 1933 1803 1672 1830 2232 2321 2333 2167 1999 1727 217 138 179 113 1209 1050 972 833 598 605 761 851
486 505 614 752 814 1294 714 1887 1420 1478 1874 1934 1780 1894 2441 1647 1285 1118 1764 1940 1722 1754 1689 1719 1962 2084 2392 2470 2319 2551 664 334 189 194 480 1714 1110 1076 1216 1199 1043 1117 1016
286 324 420 975 1108 757 776 778 964 1610 1546 1556 1119 923 1172 1120 1340 1052 1727 1764 1732 2217 1733 1992 2057 1977 964 1513 584 475 651 314 114 31 911 1697 1158 1090 1005 919 907 1001 1120
150 205 227 243 1074 443 353 501 727 1155 1333 813 1152 1495 1856 1705 1634 3042 1329 1303 2573 1261 1549 2028 1274 1586 1378 1167 735 731 617 343 158 0 303 1013 1067 1020 999 1033 1133 1240 1355
155 170 176 356 1952 1278 487 242 987 1006 1399 894 1589 1777 2371 2166 1638 1997 2336 1993 1773 2291 1145 1345 1236 1196 1340 1128 882 957 694 614 380 13 19 944 1112 1206 1368 1376 1492 1587 1704
122 129 203 907 1169 1183 605 706 663 925 919 1228 1428 1435 1829 1788 2489 1543 2285 1413 1732 2137 1443 1677 1803 970 942 750 992 970 879 687 872 541 449 881 1221 1332 1514 1695 1802 1771 1910
124 149 414 637 617 581 661 763 1212 748 920 1188 1325 1603 1641 1935 2037 1838 1323 1813 2053 1745 2217 1720 1382 1298 784 761 1234 1086 859 868 982 1200 1125 1201 1211 1556 1668 1735 1669 1598 1814
150 253 298 431 361 428 775 1197 1265 1358 1045 1416 1016 1416 1785 2137 1860 2337 1919 1311 1336 1816 1496 1012 1175 715 872 1033 1153 1242 904 886 1214 1397 1443 1589 1658 1492 1894 2088 1794 1982 2253
215 345 305 654 410 736 937 1463 1377 1495 1622 1106 1109 1798 1841 1874 1919 3264 2589 1889 2718 1616 1219 2029 545 2018 863 985 1069 1113 1105 1070 1447 1215 1680 1621 1461 1729 1782 2413 2937 2732 2578
304 372 357 299 633 1879 1668 1565 1296 1694 1547 964 1622 1894 1773 1750 1782 2224 2010 1738 2882 2065 1472 1535 2880 1271 1284 1110 1064 931 1143 1146 1265 1438 1443 1346 1569 1841 1583 2417 2951 2603 3350
352 382 362 553 1048 1138 708 881 1322 1975 2055 2354 1930 1704 1712 1738 1844 2077 2419 1924 2468 2975 2416 2008 2032 1742 912 869 1598 887 910 1142 1376 1294 1168 1138 1218 1266 1570 2200 2274 2510 2643
341 352 427 978 1154 1554 927 2982 2467 1425 1280 1430 1567 1593 2023 1623 1837 1672 2589 2198 2203 1881 2159 2554 2608 2148 910 839 1619 1261 981 1090 1137 1077 1062 915 1115 1216 1606 2007 1984 2606 2811
356 505 691 1017 1290 1524 1745 2216 1771 1722 1937 837 1232 1437 1552 1605 1641 1989 2015 2534 1871 2621 2215 2610 1947 2435 1155 1009 2483 2940 1552 2099 1033 914 1004 1046 1247 1492 1551 1611 1745 2219 2708
453 465 982 1214 1498 1494 1778 2087 1886 1512 910 1825 1646 1758 1459 1481 1481 1618 1811 1961 2309 2950 3148 2391 2178 3518 3284 975 965 1457 2790 2865 3004 1160 717 1085 949 1108 1385 1532 1377 2246 2365
490 529 733 1442 1846 1691 1826 1588 1646 1758 1120 542 1551 2253 1966 1836 1402 1438 1754 1980 2085 2120 1987 2521 2075 2898 2336 2545 1639 1211 2130 1649 1556 1734 1843 1317 737 872 1639 1674 1602 1736 2575
461 425 671 1298 2077 1411 1736 1674 1888 1879 2063 1491 1704 1749 1524 1282 1483 1405 1516 1798 1872 2476 1928 1726 2087 2099 2850 3643 2555 2209 1258 1795 2442 2497 1617 1592 1831 1719 1503 2116 2035 1903 2147

GFSSE_con_sbcape_111.txt.gz
CAPE
67 359 1643 1323 1384 1596 1959 2043 2166 2187 2148 2024 2007 2354 1537 2089 2345 2391 2214 2128 1831 1982 2197 1791 1800 1809 1693 1844 1835 1628 1553 1560 1793 1647 1524 1432 1315 1300 1800 1539 1381 1158 1537
375 1124 1906 1531 1880 2065 2218 1979 1814 2140 2019 2015 2391 2540 1829 2136 2227 1793 1823 1829 1845 1771 1856 1683 1907 1778 1328 1154 1257 1289 1163 1549 2116 2142 1604 1448 1610 1760 1856 1630 1755 1640 1677
784 1027 1285 2319 2073 2037 2066 2331 2206 2150 2024 1903 2497 2580 1813 1864 1989 2065 1836 1790 1692 1752 654 943 1636 1547 1516 1569 1493 1238 1072 1221 1574 1552 1557 1245 1224 1370 1515 1775 1831 1802 1874
928 1074 1668 2165 2311 2036 2121 2042 2005 2114 2091 1955 2099 2662 2062 2134 2233 2248 1711 1484 1503 1935 1931 1569 1103 1288 1426 1516 1547 1458 1285 1588 1657 1552 475 826 1036 1784 1804 1579 1480 1690 1723
759 1216 1675 2493 2352 2165 1991 1868 2096 2072 1999 2092 2134 2404 2213 1741 1605 1572 1611 1881 1980 1937 1876 1696 1197 1315 1370 1454 1279 1339 2258 2260 1618 389 272 721 1071 1691 1778 1795 1606 1618 1471
1003 1329 2116 2205 1759 1760 1858 1979 1994 1964 1968 2140 2171 2220 2009 2031 2006 2019 1982 1899 1843 1929 1913 2002 1252 1130 1015 954 1143 1608 1932 1972 413 62 225 793 446 986 920 1006 1057 948 907
540 726 1017 2123 2164 1942 1940 2068 2149 2017 2080 2141 2197 2160 2161 1980 1954 2037 1986 2167 2087 1908 1894 2005 1151 1088 906 889 1205 1438 2046 1047 29 73 390 866 1246 1917 1742 1109 842 586 673
553 1156 1055 1925 2026 2277 1879 1971 2088 2126 2186 2260 2333 2358 2278 2077 1936 2550 1946 1826 1810 1838 1748 1465 1212 1005 909 902 846 876 1723 1487 208 224 518 794 1531 1301 1078 840 760 509 610
905 1129 1360 1266 1450 1940 2394 1854 2032 2254 2148 2047 2363 2293 2206 2092 2011 2177 1920 1981 2042 2059 1997 1786 1553 1351 1141 799 616 660 1128 1557 118 148 355 539 1253 642 424 394 413 500 583
799 997 1020 1185 1451 1516 1758 1970 1989 1980 2155 2303 2279 2280 2656 2239 1989 2116 2689 2571 2111 2161 2132 2089 1975 1921 1649 1282 1094 1180 1121 1524 219 165 427 720 934 376 324 340 457 595 711
701 686 826 1039 1055 1191 1519 1685 1864 1937 1928 2212 2135 2145 2590 1728 1551 1803 2122 2440 2080 2015 2115 2129 2178 2174 2211 2184 2079 1835 1611 1040 2 126 398 1128 1249 672 557 566 698 846 843
319 706 675 965 1134 1149 1204 1573 1607 1652 1130 886 336 858 1271 1307 979 1411 1942 2164 1967 1858 1809 1944 1683 1904 2451 1917 1723 2267 1894 53 23 214 720 1407 1451 1035 910 889 898 894 980
215 476 464 652 836 561 1032 1259 1386 1267 1249 311 0 0 899 688 497 100 1060 1382 1476 1614 90 779 30 428 1195 1742 1875 1726 1645 0 2 153 1124 1595 1376 958 838 834 885 1042 1243
155 213 406 654 379 781 1046 1149 913 1189 1029 857 593 989 1073 85 0 0 408 740 760 184 0 530 542 451 1236 1343 1200 1452 726 0 0 305 1382 1675 1450 948 917 940 1128 1355 1595
92 50 109 424 397 125 421 997 919 945 869 292 533 485 505 215 169 85 0 441 0 621 657 523 758 928 1003 765 374 208 65 0 0 17 428 1293 1597 1387 1103 1150 1434 1732 1866
156 260 604 597 814 1187 723 821 784 772 543 145 127 290 268 444 449 156 0 442 206 679 731 647 939 1330 1177 436 694 224 279 0 0 0 17 628 1902 1870 1848 1556 1797 2165 2102
267 315 304 243 409 959 456 348 84 491 756 190 0 0 0 237 1168 487 858 738 705 1300 1277 1590 1467 1642 406 621 436 714 310 462 0 0 0 106 1034 2126 2243 2536 2766 2906 2913
78 16 95 99 257 222 703 715 471 629 849 686 27 1 3 1237 1728 1294 1569 1150 1108 1186 1025 1251 1480 1462 658 573 586 463 566 608 605 289 274 272 415 612 1843 2902 2923 2927 3123
49 68 105 64 50 196 491 976 515 428 270 678 1077 1455 1358 1240 1898 796 1021 1532 1422 1490 1078 635 1087 761 694 682 936 831 547 566 734 1003 746 735 538 812 692 1514 2768 2689 3031
170 93 95 79 0 568 636 1424 886 841 1051 1474 1264 1206 1470 936 1632 1691 1975 195 0 134 1612 2301 1902 1804 1855 1105 826 803 735 632 732 934 1009 1287 877 1009 929 1055 1315 2002 2979
0 90 292 158 771 319 448 296 398 566 656 1131 979 1268 1222 1205 1298 1767 1683 0 0 232 781 2170 2092 2002 2226 1472 1376 1352 469 616 934 824 987 1054 780 1139 1358 1422 1738 1389 1885
0 0 377 477 542 58 574 524 857 704 1055 1210 1285 1384 1194 1599 1309 1505 1397 460 335 1005 1931 2050 2385 2584 1842 844 869 1661 636 401 574 808 742 972 696 781 1170 1376 1865 1758 2066
39 226 310 565 253 837 792 932 735 333 1136 892 776 1179 1288 1484 1277 1078 1507 949 830 908 849 2020 2451 2283 2495 1938 1534 2066 1590 1648 854 135 230 220 180 506 343 256 249 1106 1018
131 350 210 452 455 743 674 709 538 450 399 504 479 942 1029 1380 1387 1119 1376 1555 1073 918 1067 1779 1790 2196 2348 2321 1744 1612 340 182 5 433 556 2 267 322 201 175 14 5 243
194 205 451 517 565 591 415 997 415 310 230 367 495 400 484 1521 1422 1304 1118 1165 1536 1366 1160 1585 2171 1836 2079 2347 2084 2035 677 299 491 10 38 4 6 259 422 80 60 0 12
73 251 537 588 559 629 107 807 534 276 98 145 228 303 255 413 840 993 1479 1579 1172 1317 1301 1444 1738 1370 2034 1798 2260 1131 403 196 177 53 2 0 0 241 166 0 0 2 0

GFSSE_con_sbcape_114.txt.gz
CAPE
132 431 1345 1192 1365 1903 2260 2366 2372 2311 2132 1987 1690 1884 1872 1718 1480 1774 1881 1952 1909 2115 1855 1799 1807 1612 1310 1643 1592 1621 1818 1752 1801 1630 1493 1405 1469 1533 1456 1288 1108 885 1229
79 644 1838 1723 1900 2012 2193 2312 2215 2096 2058 1938 1669 1873 1941 1750 1938 1951 2009 1914 1891 2047 1961 1765 1444 1427 1561 1416 1298 1344 1894 2240 2254 1655 1755 1785 1641 1597 1580 1506 1641 1308 1394
584 960 1598 2394 2187 2247 2244 2207 2089 2007 1956 2050 1739 1823 1810 1952 1953 1899 1954 1930 1302 1135 1763 1757 1378 1684 1594 1400 1281 1286 1453 1674 1752 1522 1410 833 1096 1816 1779 1736 1729 1649 1645
862 896 1537 2374 2312 2180 2198 2321 2153 2007 2027 2083 1711 1927 2023 2018 1916 1798 1721 1178 1541 1594 1256 1306 1528 1606 1597 1507 1407 1267 1256 1281 1849 1265 769 927 1340 1621 1390 1529 1691 1602 1591
1032 1414 1449 2279 2444 2000 2149 2163 2142 1904 1983 2082 2025 1838 1702 1797 1998 2027 1839 1931 1726 1397 1115 1208 1415 1479 1603 1366 1591 2513 2790 2296 1416 826 687 890 1218 1636 1781 1826 1642 1392 1344
1253 1292 2151 2087 2104 1929 2076 2040 2083 2010 2138 2041 2102 1865 1821 1650 1612 1651 1810 1864 1834 1797 1882 1149 1262 1262 1174 1276 1842 1981 1515 1031 659 255 539 694 523 1361 1385 1211 944 963 1153
1196 1453 1934 2399 2081 1949 2083 2126 2040 2071 2225 2231 2185 2046 1973 2018 2139 2154 1983 1958 1968 2112 2044 1161 1095 910 966 1269 1464 2390 1221 644 16 188 525 676 1264 1762 1121 795 604 691 658
725 915 1551 2192 2087 2102 2131 2121 2190 2203 2331 2317 2129 2064 1918 1945 2107 2024 1879 1914 1762 1767 1590 1164 1074 896 904 965 992 2536 1490 581 234 479 642 820 1613 1814 777 847 562 497 613
998 959 1228 1568 1728 2119 2084 2245 2243 2187 2391 2126 2241 2166 2229 2124 2067 1914 1938 1957 1879 1758 1603 1361 1135 948 867 786 674 1237 2614 714 86 267 436 442 1100 538 434 417 448 541 627
1138 1264 1045 1159 1534 1564 1752 2129 2187 2110 2255 2346 2312 2289 2134 2212 2131 2081 2545 2371 1980 1920 1818 1745 1748 1875 1883 1556 1053 883 1863 736 33 36 226 422 957 373 338 379 477 603 705
945 980 984 1178 1225 1318 1477 1766 2026 2303 2306 2506 2415 2420 2280 1290 1618 1616 1999 2119 2006 2030 2062 2085 2235 2180 1973 1986 2008 1984 1507 323 14 119 257 1029 1109 481 472 594 732 844 893
641 771 792 968 952 1327 1685 1461 1309 1520 1464 1411 1417 1517 994 856 1091 1443 1715 2056 2008 1844 1821 2029 2213 2143 2725 1986 1541 1880 1952 895 0 110 424 1599 1432 1031 922 918 1004 1078 1101
486 678 643 903 839 766 1388 1223 1229 886 672 41 39 400 922 548 59 28 632 661 709 1436 0 405 700 329 871 1240 1591 1605 1442 0 6 193 908 1809 1503 1118 854 890 954 1069 1404
404 566 633 627 682 479 980 1033 949 1009 511 233 188 389 515 0 0 0 296 164 243 412 20 9 226 110 504 950 1045 1069 832 0 0 168 874 1789 1704 1271 1106 1087 1191 1412 1713
161 298 453 372 264 645 899 711 588 767 470 609 567 589 169 0 0 0 56 74 238 12 321 67 332 556 845 1286 1150 505 576 0 0 125 526 1284 1677 1297 1197 1180 1376 1774 2165
21 91 179 147 310 357 488 707 519 279 150 221 334 385 386 336 69 205 0 0 15 146 474 653 747 665 644 280 274 13 0 0 0 0 31 485 1725 1881 1756 1553 1962 2376 2486
0 209 159 309 671 420 481 500 454 321 62 1 0 43 12 469 477 394 3 0 561 360 1158 1177 1468 988 1064 351 290 222 0 0 0 0 8 62 426 1960 2403 2570 2891 3166 3309
66 80 73 260 359 171 248 59 114 498 345 71 0 0 4 1102 901 469 639 514 652 1132 1227 1016 769 996 520 345 344 414 247 102 0 56 66 88 232 433 813 2449 3222 3283 3419
0 0 0 0 16 144 353 315 101 359 428 323 43 76 458 968 1358 1084 1278 408 609 565 1178 1013 1163 653 462 522 564 409 393 454 317 444 256 211 193 346 357 777 1973 2963 3090
2 0 0 0 0 22 283 968 157 432 454 569 735 1022 1066 954 1747 1695 1635 238 0 657 994 1828 1527 1577 1195 587 749 769 453 377 406 505 533 535 446 382 486 540 717 969 2499
0 0 0 0 25 261 329 386 321 393 733 720 926 842 1237 913 1106 1213 1132 0 364 1317 1476 1510 1911 2304 1110 541 532 984 165 278 365 360 296 294 482 480 222 368 1072 1604 1803
13 0 0 4 134 68 186 314 184 489 475 684 878 1058 1130 1232 1263 1535 1000 551 723 1127 1046 1708 1769 2033 1842 940 1000 779 353 164 177 119 322 370 265 296 321 47 68 1010 750
0 60 0 119 0 78 395 555 243 393 693 600 642 675 998 1119 1076 1116 1070 958 752 520 700 1370 1590 1925 1751 1453 612 1234 967 1014 213 6 88 249 322 246 270 227 33 35 172
0 82 64 82 101 437 550 479 174 156 360 283 316 447 734 1038 933 1029 1159 1119 771 902 950 1480 1658 1647 1677 1607 1016 458 204 195 19 140 43 10 251 379 235 177 66 28 24
9 56 76 64 218 301 280 264 231 193 99 187 212 317 424 409 922 881 744 1159 1176 826 900 1061 1266 1580 1503 1573 973 411 281 98 6 0 0 0 2 157 174 271 59 0 0
127 78 116 45 316 158 212 372 272 147 171 197 159 222 219 49 306 417 761 856 826 929 1008 1055 1090 1243 1340 1362 1179 412 317 138 97 0 0 0 0 52 102 129 3 3 0

GFSSE_con_sbcape_117.txt.gz
CAPE
27 143 1084 1184 1533 1741 2055 2138 2110 1973 1755 1969 1664 1209 1214 1735 1703 1666 1689 1846 1765 1828 1863 1714 1732 1607 1458 1679 1733 1575 1571 1721 1631 1550 1569 1566 1488 1181 1192 1328 1392 1245 1171
124 789 1439 1707 1880 2050 2277 2162 2059 1915 1777 1899 1915 1687 1517 1792 1705 1809 1768 1792 1869 1910 1778 1597 1683 1557 1519 1415 1520 1529 1801 1762 1736 1682 1761 1751 1672 1472 1432 1650 1602 1071 1049
187 785 1730 2079 1982 2118 2206 2126 2057 1955 1434 1863 1759 1615 1777 1841 1897 1672 1929 1907 1802 1656 1408 1562 1538 1549 1550 1538 1572 1579 1857 1665 1575 1612 1692 1070 1476 1849 1924 1650 1746 1802 1495
561 938 1629 2523 2315 2126 2220 2292 2099 2114 1569 1817 1748 1706 1866 1901 1738 1782 1195 821 1008 1620 1442 1780 1786 1663 1663 1567 1386 1365 1613 1761 1609 1555 909 1146 1127 1775 1644 1849 1764 1735 1772
908 1127 1588 2127 2234 2165 2314 2233 2134 1904 1853 1877 1863 1750 1731 1641 1296 1219 2157 1813 1436 1167 1390 1628 1700 1673 1495 1701 1789 1772 1534 1567 1627 1044 915 1056 1263 1351 1585 1488 1408 1444 1768
1181 1345 1730 2041 2005 2023 2258 2206 2112 2060 2154 2113 1870 1712 1717 1774 1958 1925 2000 1899 1963 1678 1271 1494 1649 1533 1490 1902 1768 2460 1758 1673 1133 678 562 956 1014 1878 1642 1351 1300 1439 1679
1352 1517 1699 2221 1949 2174 2000 2169 2148 2075 2127 1943 1906 2009 1950 1934 1909 1823 1799 1918 2038 2149 1258 1208 1279 1240 1476 1720 2043 1360 1216 1006 125 271 414 794 1195 1232 1054 870 845 810 803
1341 1582 1772 2099 1971 2126 2168 2168 2185 2176 2294 2255 2173 2116 2168 2161 2260 2253 2041 1854 1868 2021 1289 1185 1084 1094 1266 1253 2184 1578 990 501 437 780 867 1128 2086 1528 938 1030 614 638 724
956 1187 1622 1809 1998 2220 2189 2201 2251 2142 2083 2221 2244 2077 2204 2189 1983 1942 1957 1933 1847 1731 1517 1326 1199 1212 1294 1111 1215 1704 1176 759 293 455 594 537 1186 821 601 519 573 668 740
898 1156 1202 1334 1664 1544 1841 2254 2110 2282 2277 2337 2257 2188 2130 2028 2000 2094 2387 2171 2005 1976 1922 1839 1780 1790 2058 1798 1407 1376 1235 936 97 85 249 379 832 475 431 476 580 710 842
1247 973 943 1280 1196 1131 1493 1934 2131 2255 2320 2286 2081 2118 2188 1317 1576 1696 2110 2128 2111 2223 2300 2288 2155 1928 1833 2000 2011 1961 1784 334 19 127 208 772 723 466 500 624 800 974 1113
1010 965 974 1049 1087 1276 1718 1407 1304 2030 1800 1723 1713 1376 871 810 1236 1489 1979 2454 2458 2315 2107 2271 2173 2303 2035 1856 1492 1866 1428 1082 2 29 169 1251 1111 885 845 928 1111 1285 1316
750 882 886 813 921 1142 1186 1072 1077 728 585 324 584 771 801 526 178 277 560 600 527 1317 284 3 91 11 246 565 988 1234 1312 85 0 38 436 1576 1492 1309 1059 1003 1135 1311 1634
669 716 671 750 805 505 1093 894 889 640 0 0 0 245 316 0 0 16 254 157 31 265 344 0 154 219 344 433 798 869 790 2 6 13 231 1502 1541 1460 1363 1278 1369 1617 1986
568 559 657 558 551 491 873 757 686 814 208 306 307 495 58 0 0 0 32 28 119 3 174 407 435 519 550 479 720 961 777 2 0 15 153 1382 1761 1381 1221 1345 1563 1930 2428
260 375 417 381 286 458 581 625 544 430 346 427 399 378 115 11 0 84 13 0 9 129 314 535 708 545 495 373 224 7 101 10 0 0 15 75 1835 1825 1352 1520 1936 2302 2619
75 117 243 220 204 295 300 379 364 137 134 98 294 245 184 389 388 403 44 96 432 611 944 769 683 941 618 269 124 36 0 0 0 0 0 2 13 1270 2160 2399 3045 3421 3414
38 95 79 321 374 206 266 231 260 100 0 0 0 0 15 837 740 426 412 809 748 978 949 796 564 623 364 246 260 264 18 0 0 0 0 0 0 54 274 1033 1735 2263 2810
41 0 91 118 97 136 48 42 65 259 252 3 0 4 314 1252 885 674 906 496 151 565 1161 1470 1065 377 357 219 299 298 142 216 5 31 19 30 69 214 407 878 1579 1765 2176
0 0 4 1 33 121 153 14 73 151 193 278 269 474 867 1017 1203 1228 765 3 28 839 1439 1527 1341 1253 420 277 375 575 309 62 95 217 218 407 502 633 770 1341 1549 1659 2189
0 0 0 0 5 100 344 244 219 313 524 422 613 844 921 799 1100 1184 20 0 638 1123 1393 1711 1634 1555 1011 310 341 344 47 21 50 212 251 262 278 244 143 295 1251 963 1094
6 0 0 0 21 78 59 130 39 288 302 388 677 714 714 873 1230 1153 781 375 618 627 1179 1429 1451 1420 1130 532 1074 194 76 102 14 120 263 255 191 200 202 111 145 538 93
0 0 0 0 10 44 92 332 116 347 428 476 538 483 587 799 986 1169 819 637 558 318 931 1150 1297 1351 1098 314 209 777 641 429 65 18 59 179 263 214 196 213 88 45 24
0 0 0 0 0 67 186 228 200 217 285 225 186 381 537 725 631 922 936 807 648 684 949 1388 1186 1140 1012 885 498 350 62 47 33 182 45 2 68 216 180 161 124 18 0
2 0 0 0 42 250 275 123 74 111 84 73 126 217 365 383 642 1026 675 826 791 608 822 949 1054 995 1155 622 386 160 47 0 0 0 0 0 0 2 91 154 83 20 0
6 10 0 0 80 108 170 118 102 102 83 153 115 190 211 93 319 441 753 697 667 594 757 879 676 1090 916 1097 603 266 191 60 23 0 0 0 0 0 114 130 104 11 0

GFSSE_con_sbcape_120.txt.gz
CAPE
18 101 892 1212 1137 1286 1609 2071 1721 2139 1898 1728 2007 1393 1729 1650 1761 1713 1762 1770 1690 1650 1684 1941 1698 1751 1590 1711 1550 1526 1615 1691 1763 1646 1606 1411 1301 1404 1560 1661 1355 792 1173
39 308 1209 1262 1409 1585 2174 2041 1963 2019 1862 1971 1600 1722 1763 1802 1849 1893 1812 1841 1660 1648 1617 1557 1745 1729 1700 1670 1299 1441 1724 1551 1670 1681 1876 1679 1607 1619 1739 1636 1118 1010 1178
204 803 1506 1680 1959 1904 2033 2016 1867 1721 1990 1932 1865 1892 1872 1875 1921 2036 1865 1543 1538 1522 1609 1757 1701 1704 1754 1734 1824 1859 1755 1847 1811 2015 1940 1618 1730 1678 1790 1851 1820 1607 1515
370 1042 1488 1821 2072 2025 2210 2016 1963 1656 1803 1689 1847 1861 1987 1980 1961 1489 934 1405 1617 1521 1745 1609 1404 1540 1504 1548 1570 1914 1913 1685 1686 1646 1185 1287 1466 1774 1825 1789 1867 1924 1733
760 1112 1580 2047 2190 2121 2095 1898 1734 1903 1846 2011 1822 2024 1925 1902 1415 1938 2000 1549 1338 1618 1847 1807 1642 1698 1736 1816 1751 1694 1791 1659 1679 1204 1274 1474 1415 1638 1415 1460 1590 1718 1891
995 1296 1775 1949 2164 2142 1962 2146 1878 2000 1983 1983 2015 1961 1931 1757 1877 1994 1800 1908 1469 1392 1576 1715 1624 1738 1941 2023 1933 1920 1910 1626 1173 581 639 1076 1343 1777 1482 1203 1258 1561 1567
1132 1202 1711 1938 1866 2055 2161 2197 2104 2076 2087 1878 1792 1753 1731 1782 1785 1831 1892 1976 2078 1372 1344 1379 1371 1571 1591 2014 1555 1453 1282 1124 280 433 738 1165 1291 1174 870 773 800 766 787
1166 1440 1576 1889 1987 1918 2115 2074 2216 2121 2094 2096 1988 1934 1774 1722 1847 2051 1856 1911 1966 1347 1254 1267 1202 1320 1382 2016 1375 1136 734 601 753 879 1034 1337 1811 1207 1113 773 658 758 851
1266 1472 1381 1678 1701 2138 2154 2233 2217 2234 2181 1988 1976 2037 2096 2010 1857 1896 1874 1802 1656 1438 1245 1229 1311 1459 1363 1339 1708 1353 961 826 496 575 654 600 932 624 521 541 623 732 817
935 1260 1345 1354 1587 1546 1452 2136 2126 2235 2172 2229 2182 2113 2102 1978 2152 2216 2273 2136 1850 1703 1514 1339 1364 1593 1831 1638 1618 1703 1218 821 181 118 240 344 638 441 412 486 644 822 1001
942 981 879 1148 1081 1017 1287 1817 2000 2204 2346 2309 1989 2165 1573 1184 1434 1578 2237 2159 2182 2245 2138 2033 2048 2088 2158 2056 1868 1827 1485 236 64 151 181 449 599 453 484 656 926 1204 1464
916 824 815 975 1032 1128 1764 1370 1152 1931 1645 1486 1241 804 699 791 1499 1669 2038 1961 1905 1960 1478 807 1795 1084 492 867 1428 1708 1419 1060 159 111 112 585 913 969 953 1102 1349 1487 1565
767 778 779 800 890 918 981 884 785 764 796 633 823 678 665 439 100 333 458 360 130 872 492 9 76 97 269 496 716 936 1309 618 82 42 165 765 1349 1515 1359 1184 1401 1603 1900
623 698 707 629 782 616 846 842 554 302 18 73 153 437 318 50 4 21 241 113 132 2 198 224 254 397 559 589 556 824 825 47 6 18 33 911 1545 1587 1592 1508 1636 1796 2147
477 553 584 544 583 385 746 615 529 388 0 36 41 228 72 0 0 2 22 45 73 39 344 550 684 764 763 640 364 866 867 11 13 23 42 552 1601 1496 1418 1517 1898 2225 2581
395 421 476 450 385 364 568 540 584 581 306 398 393 497 47 0 0 52 58 44 72 433 611 720 897 969 530 600 363 25 185 95 6 3 16 75 994 1997 1243 1412 1937 2269 2742
201 262 361 309 197 325 454 501 389 214 204 360 298 245 222 309 147 370 180 411 678 833 1208 1203 972 793 770 395 279 176 2 2 0 0 0 0 17 230 1126 1686 2053 2889 2875
42 184 188 388 154 145 226 251 284 2 73 49 8 98 20 487 668 485 682 975 1071 1068 1323 1426 720 640 391 468 355 437 29 0 0 0 0 0 36 137 348 939 1814 2244 2448
0 44 68 101 147 157 139 100 71 9 2 0 0 0 127 1130 921 859 980 539 396 991 1467 1627 1253 482 411 390 466 519 354 424 293 276 465 258 267 568 850 1031 1888 2300 2373
0 3 23 25 41 28 18 0 32 110 165 19 0 167 427 1022 1032 1195 547 97 554 1484 1744 1764 1556 841 569 537 430 338 266 231 336 452 468 667 787 971 1233 1795 2192 2123 2695
0 0 0 0 8 65 79 21 99 228 205 206 356 655 705 787 1155 474 0 250 909 1351 1434 1777 1730 1567 1255 632 803 265 252 204 348 487 449 423 489 478 389 914 1639 1023 1220
0 0 0 0 0 96 145 53 48 94 232 276 543 616 783 594 894 790 349 597 715 932 1305 1454 1489 1310 671 343 1362 171 422 460 254 185 408 464 357 273 412 327 260 298 309
0 0 0 0 0 4 52 52 149 289 346 431 535 559 632 825 850 841 558 481 451 619 1186 1295 1345 1315 880 399 328 1158 866 569 248 230 156 198 324 414 452 433 429 300 208
0 0 0 0 0 0 98 99 210 263 317 240 259 342 494 731 689 912 800 621 715 588 1149 1465 1283 1263 1078 772 506 263 185 293 402 690 253 224 203 241 417 403 351 242 66
0 0 0 0 0 17 112 95 87 89 82 62 101 240 392 409 754 1013 772 772 719 690 771 951 1138 1234 1036 727 533 369 113 52 0 119 104 46 44 146 189 228 255 235 37
0 0 0 0 0 32 69 45 61 97 81 125 87 138 164 195 411 633 792 774 728 593 828 872 748 1006 1044 1078 668 456 411 282 210 0 0 2 2 132 256 314 336 208 48

GFSSE_con_sbcape_123.txt.gz
CAPE
87 158 1107 733 657 936 1613 1744 1742 1860 1457 1684 1845 1853 1690 1639 1749 1768 1731 1629 1731 2229 2185 1721 1725 1642 1627 1675 1403 1367 1585 1605 1646 1492 1254 1403 1597 1704 1656 1208 978 976 1569
35 288 825 911 987 959 1284 1949 1784 1688 1466 1604 1889 2037 1817 1846 1772 1692 1692 1732 1850 1690 1615 1772 1817 1728 1528 1486 1608 1614 1633 1528 1546 1498 1622 1584 1493 1744 1385 1225 1074 1306 1228
218 958 779 981 1124 1485 1756 1957 1864 1890 1585 1906 1903 1912 1900 1849 1797 1725 1561 1515 1799 1832 1795 1796 1711 1689 1874 1951 1738 1812 1803 1689 1803 1895 1552 1375 1683 1888 1804 1596 1617 1528 1695
592 1047 1134 1740 1799 1753 1883 1939 1800 1822 1829 1956 1978 2058 1840 1857 1413 1484 1714 1706 1821 1527 1632 1452 1176 1224 1356 1692 1973 1827 1752 1695 1728 1321 1158 958 1228 1799 1814 1869 1997 1858 1821
1062 1332 1456 1793 1942 1888 1899 1834 1899 1837 1987 1956 2061 1917 1910 1477 2135 1868 1427 1466 1912 1777 1742 1411 1374 1692 1753 1593 1845 1824 1699 1827 1646 1344 1499 1432 1750 1409 1558 1460 1672 2023 1670
1106 1670 1536 1869 2004 1997 1944 1682 2025 1939 1999 2041 2005 1874 1386 1994 1764 1852 1707 1361 1570 1665 1677 1590 1835 2002 2023 1909 1854 1997 1621 1493 1150 1473 1657 1427 1308 1446 1137 1077 1415 1453 1335
1150 1336 1629 2021 2090 2084 1934 1972 1923 2007 1929 1858 1765 1879 1914 1940 1866 1936 1920 1826 1324 1467 1530 1456 1677 1872 1936 1436 1388 1307 1177 1053 345 620 1304 1301 959 1065 745 743 772 808 833
1090 1270 1574 1862 1848 2034 2034 2017 2142 1970 2041 1970 1943 1860 1832 1854 1914 1899 1916 1718 1253 1329 1437 1355 1451 1584 1980 1493 1261 824 691 435 891 1306 1683 1266 1697 1165 742 681 802 856 917
728 1120 1598 1286 1875 1922 2074 2184 2169 2012 1999 1966 1773 1768 1839 1829 1923 1949 1677 1425 1274 1181 1286 1400 1575 1538 1491 1675 1660 1233 633 1007 448 763 625 580 838 550 513 599 764 892 998
1087 1068 1460 1840 1764 1627 2069 2086 2209 2270 2162 2044 1900 1873 2144 2062 2072 2134 2294 2139 1474 1268 1131 1279 1556 1760 1731 1673 1853 1631 1164 573 354 2 33 173 678 485 481 611 872 1093 1320
1209 1311 1668 1755 1972 1743 2052 2112 2143 2090 2177 1991 2156 2370 2331 1965 1727 1680 2257 2150 2169 2014 1796 1615 1604 2024 2029 1838 1818 1914 1546 1241 694 46 0 432 672 654 621 839 1124 1453 1714
783 1269 1585 1628 1415 1921 2180 2394 2389 2456 2518 2503 2167 2194 2051 2043 2269 2214 1823 1368 1977 1650 1427 567 1157 752 732 969 1518 1892 1931 1918 1118 221 0 423 946 1282 1227 1411 1535 1631 1837
364 1052 1332 1631 1744 1900 2350 2296 2261 2334 2091 2179 1949 1811 1906 1635 1098 1193 1295 906 1044 673 874 689 594 754 1032 1182 1352 1487 1575 967 677 102 132 480 1250 1609 1629 1606 1756 1898 2142
630 868 1233 1377 1727 1729 1738 1918 1723 1478 1487 1314 1635 1885 1641 1028 721 951 1106 802 851 1154 1716 1763 1561 1747 1812 1776 1479 1666 1400 552 187 31 58 624 1388 1605 1679 1900 1930 2214 2516
602 831 1109 1254 1648 1719 1783 1788 1152 998 872 1129 1346 1536 1308 796 571 525 672 739 1150 1421 1792 2125 2205 2197 1990 1699 1004 1513 1416 769 315 65 49 368 1271 1706 1484 1538 1918 2368 2652
511 779 927 1038 1403 1497 1458 1625 1485 1240 821 1223 1311 1645 1273 620 297 746 1164 1271 1661 2025 2213 2248 2213 2249 2003 1314 960 772 1140 832 505 98 58 134 289 1273 1548 1560 1987 2461 2594
655 795 887 846 1010 1417 1668 1737 1827 1914 1595 1460 1426 1442 1370 1634 1629 1767 1608 1802 2049 2381 2744 2614 2086 2083 1372 999 1206 694 710 380 167 85 47 109 229 256 788 1329 1989 2429 2415
483 854 965 611 799 1175 1472 1747 1533 1483 1533 1474 1315 1496 1285 1671 1951 1899 1865 2108 2242 2839 2930 2772 1984 1556 1237 1350 1414 1157 533 380 478 378 543 695 847 952 988 1295 1934 2613 2566
643 815 937 1036 1065 1220 1432 1350 1535 1265 1334 1128 890 1071 1590 2165 1911 2151 2079 1585 2241 2802 3152 2672 2206 1721 1370 1277 1154 1305 1150 1169 1175 939 1463 1661 1499 1612 2000 1936 2143 2278 2681
572 867 990 1059 1141 1391 1253 1279 1183 1043 877 618 515 1000 1584 2178 2123 2516 1664 1430 2646 2819 3024 2520 2462 2109 1766 1634 1028 1334 1256 1122 1186 1347 1405 1462 1714 1798 1803 2361 2730 2228 2524
510 660 956 1014 1085 1114 1101 1090 1146 1072 1324 833 863 1544 1928 2154 2418 2183 1200 1853 2554 2772 3211 3154 2723 2708 1903 1631 1423 1301 1212 1181 1330 1457 1441 1425 1468 1335 1310 1530 1907 1554 1083
522 655 765 775 1052 1112 1083 1180 1082 1323 1318 1379 1461 1930 2141 1886 2319 2146 1620 2080 2276 2429 3067 3103 3039 2213 1687 1778 2245 1270 1290 1229 1135 1078 1327 1401 1381 1111 1041 1003 1067 964 868
397 579 651 680 898 1021 1079 1018 1180 1310 1414 1495 2061 2561 2012 2040 2180 2233 1820 1950 1985 2366 2326 2894 2789 2726 1612 1302 1666 2289 1463 985 1313 993 1075 838 958 972 1057 1083 934 954 781
287 384 446 530 656 819 1129 992 1275 1049 1139 1565 2365 2220 2017 2082 2018 2123 2030 1975 2284 2105 2784 2667 2373 2498 2333 1526 1209 941 1264 1423 1134 1040 1074 973 873 633 610 579 689 860 790
218 249 282 414 481 654 933 1070 1504 1145 1046 1373 1395 1661 1862 2058 1954 1825 2158 2070 2229 1884 2456 2511 2451 2692 1868 1787 1407 1018 767 479 584 563 420 273 558 295 525 798 986 970 1026
176 174 203 312 415 514 810 1248 1344 1338 1186 1177 1378 1271 1470 1590 1656 2100 1956 2327 2345 2031 2177 1997 2293 2452 2364 2248 1479 1318 981 790 797 404 366 721 893 894 943 1076 1177 1459 1557

GFSSE_con_sbcape_126.txt.gz
CAPE
115 630 263 283 330 306 1267 1287 1267 1628 1661 1649 1549 1563 1616 1681 1730 1694 1644 1620 1457 1596 1676 1850 1785 1762 1619 1624 1605 1637 1709 1618 1406 1397 1687 1718 1680 1520 1097 1019 1901 1228 1830
84 377 936 540 605 610 1438 1649 1452 1677 1445 1446 1497 1558 1652 1749 1756 1850 1918 1708 1674 1727 1633 1882 1700 1642 1606 1751 1742 1728 1623 1711 1799 1856 1861 1837 1753 1258 1351 1735 2250 1151 1135
219 377 428 956 914 716 1285 1693 1474 1433 1224 1750 1895 1802 1854 1793 1685 1591 1785 1880 1852 1662 1737 1643 1748 1846 1939 1934 1848 2016 2015 1988 1623 1687 1627 1234 1713 1883 1564 1569 1656 1725 1728
378 547 784 1360 1170 835 1778 1612 1728 1603 1495 1662 1600 1808 1625 1697 1838 1880 1937 1844 1570 1482 1356 1350 1343 1587 1978 1950 1804 1644 1706 1664 1317 1213 845 1100 1397 1785 1912 2083 2009 1859 1754
794 869 1065 1508 1662 1531 1623 1772 1851 1439 1581 1753 1879 1663 1728 1932 1771 1474 1782 1882 1785 1492 1463 1748 1909 1721 1874 1969 1790 1765 1873 1644 1407 1847 1463 1923 766 1471 1598 1988 2062 1764 1918
907 839 1384 1724 1797 1870 1764 1878 1872 1790 1657 1711 1547 1740 1944 1846 1785 1381 1598 1829 1746 1700 1844 1979 2043 2043 1829 1892 1971 1539 1500 1291 959 656 631 575 760 1098 1038 1220 1364 1232 1118
874 752 1371 1938 1964 1817 1890 2011 2007 1938 1954 1896 1959 1880 1911 1881 1746 1931 1573 1445 1672 1718 1787 1850 2134 1827 1573 1272 1188 1136 1220 536 704 869 680 489 573 861 780 774 861 899 926
679 868 944 1820 2034 1762 2022 1870 2016 1957 1913 2030 1992 1992 1916 1822 2051 2100 1639 1302 1551 1595 1591 1612 1986 1992 1691 1464 867 585 596 741 768 817 1027 583 1190 787 681 781 851 897 983
580 844 796 964 1607 1850 2104 2060 1941 1888 1821 1852 1901 1994 2005 1884 1682 1577 1344 1183 1280 1416 1498 1645 1684 1761 1841 1932 1531 795 626 642 219 595 446 262 600 595 590 700 891 1072 1280
437 698 726 1060 1440 1637 1698 1965 1950 2013 1941 1897 1897 2074 1995 1883 1695 1571 2114 1479 1120 1127 1280 1545 1717 1826 1786 1905 1938 1502 1212 945 1 60 159 146 751 577 598 810 1135 1416 1738
585 881 947 1233 1436 1910 1853 2015 1959 1941 1985 2030 1857 1853 1674 804 1070 1300 2127 1980 1805 1540 1307 1397 1733 1825 1607 1710 1871 1952 1899 650 157 57 204 384 768 957 950 1182 1504 1755 1934
635 897 984 1118 1234 1496 1548 2007 1837 1587 1437 1226 1209 1287 985 1451 1825 1404 1602 1913 1890 1711 1274 1344 1405 1052 1050 947 1515 2041 1050 824 436 202 234 551 1023 1523 1631 1631 1672 1990 2171
668 938 1122 1328 1457 1483 1648 1607 1395 1227 1116 1488 1661 1396 1649 1462 1692 1657 1674 1243 1455 1235 988 903 981 1106 1428 1271 985 747 504 651 535 318 160 525 1177 1623 1873 2077 2169 2277 2511
612 783 925 1130 1496 1303 1309 982 979 1138 1036 864 1578 1805 1801 1225 1214 1400 1078 1364 1581 1542 1976 1776 1651 2161 2051 1763 1165 1000 489 391 421 427 218 567 1160 1478 1617 1906 2123 2421 2786
458 764 1006 1341 1655 1684 1245 653 684 758 827 1003 1349 1746 1366 1003 966 922 1599 1587 1952 1960 1950 2062 2110 2021 1805 998 947 901 587 593 537 560 838 354 877 1500 1605 1622 1840 2366 2780
482 719 1059 1281 1643 1503 1623 1694 1356 1085 1188 1083 1316 1657 1480 888 1101 1565 1868 1666 2003 2131 2090 2094 2148 1626 1130 700 823 869 728 836 728 670 835 963 324 764 1295 1726 2099 2431 2538
584 725 1010 1087 1269 1555 1669 1735 1394 1342 1052 1138 1278 1840 1812 2086 2270 2483 1792 1884 2158 2655 3197 2656 2176 1766 924 584 1062 1254 1157 901 952 942 988 1101 1121 854 831 1241 1810 1951 2432
382 712 775 630 1006 1520 1664 1765 1240 1377 1452 1345 1384 1521 1921 2204 2385 2388 1794 2033 2881 2808 2654 2137 1442 1105 997 653 1053 912 1065 1166 1437 1435 1602 1946 1836 1693 1782 1648 1755 2276 2820
663 1086 785 918 1113 1308 1814 1504 1456 1707 1562 1498 1478 1495 2339 2080 2090 2109 1870 2193 3138 2718 2673 1717 1430 1064 1119 833 725 1025 1203 1240 1405 1206 1735 2025 2068 2282 2371 2315 2477 2367 3080
744 1206 1251 1298 1336 1545 1701 1864 1376 1235 1321 1315 1195 1425 2001 1988 2287 2422 1640 2304 2909 2294 2340 2304 2137 1932 1545 1180 620 883 1087 1152 1308 1344 1387 1527 1891 2280 2098 2521 2756 2536 1850
568 832 1314 1442 1578 2039 1561 1274 1145 1100 1133 965 1069 1446 1791 1981 2341 2371 1673 2015 2544 2197 3472 2867 2415 2452 1852 2202 1627 1388 1422 1580 1407 1421 1538 1574 1847 1885 1935 1984 2233 2031 1304
729 761 1124 1205 1419 1950 1554 1379 1233 1299 1161 1073 1275 1662 1781 1830 2168 2308 2175 2047 2441 2103 2881 3319 3097 1670 1813 2292 2307 1305 1143 1250 1064 1311 1611 1761 1923 1702 1478 1427 1611 1656 1716
626 817 1013 1431 1505 1806 1583 1590 1839 1739 1909 1405 1580 1349 1802 1907 1794 2506 2293 2307 2322 2517 1780 2597 2896 2901 1431 1910 2790 2542 1346 1074 1192 1636 1615 1528 1607 1396 1286 1175 1033 1100 1366
537 692 896 1318 1480 1328 1287 1394 1418 1098 866 1083 1504 1158 1528 1798 1980 2165 2003 2277 2443 2047 2425 2062 2252 2967 3253 1566 1588 1494 2167 2166 1193 896 1321 914 1036 873 701 947 879 922 1039
555 673 747 1232 1320 1279 1539 1775 1124 961 942 1018 980 1499 1699 1812 2021 1992 2124 2181 2293 1893 2404 2326 2223 3180 2268 2193 1467 1411 1687 1064 1033 904 566 637 1033 672 999 1148 1378 1549 1797
560 606 743 1133 1329 1476 1588 1056 1101 1023 1019 786 1110 1321 1017 1001 1235 1814 1888 2176 2361 1909 2142 2186 2274 2366 2272 2575 2086 1711 1192 965 816 683 589 749 654 1034 1175 1386 1548 1380 1528